<?xml version="1.0" encoding="UTF-8" standalone="no" ?>
<gpx xmlns="http://www.topografix.com/GPX/1/1" creator="www.cicloide.com" version="1.1" xmlns:xsi="http://www.w3.org/2001/XMLSchema-instance" xsi:schemaLocation="http://www.topografix.com/GPX/1/1 http://www.topografix.com/GPX/1/1/gpx.xsd">
  <trk>
    <name>www.cicloide.com 26547</name>
    <desc>www.cicloide.com 26547</desc>
    <trkseg>
      <trkpt lat="41.606912390" lon="2.542397000">
        <ele>133.76</ele>
        <time>2015-05-31T05:09:42Z</time>
      </trkpt>
      <trkpt lat="41.606913820" lon="2.542396070">
        <ele>133.76</ele>
        <time>2015-05-31T05:09:43Z</time>
      </trkpt>
      <trkpt lat="41.606907950" lon="2.542422140">
        <ele>133.76</ele>
        <time>2015-05-31T05:09:51Z</time>
      </trkpt>
      <trkpt lat="41.606886320" lon="2.542472690">
        <ele>133.76</ele>
        <time>2015-05-31T05:09:58Z</time>
      </trkpt>
      <trkpt lat="41.606881630" lon="2.542483250">
        <ele>133.76</ele>
        <time>2015-05-31T05:10:10Z</time>
      </trkpt>
      <trkpt lat="41.606894960" lon="2.542465060">
        <ele>133.76</ele>
        <time>2015-05-31T05:10:22Z</time>
      </trkpt>
      <trkpt lat="41.606918850" lon="2.542448960">
        <ele>133.76</ele>
        <time>2015-05-31T05:10:33Z</time>
      </trkpt>
      <trkpt lat="41.606911050" lon="2.542426330">
        <ele>133.76</ele>
        <time>2015-05-31T05:10:47Z</time>
      </trkpt>
      <trkpt lat="41.606898060" lon="2.542400940">
        <ele>133.76</ele>
        <time>2015-05-31T05:10:59Z</time>
      </trkpt>
      <trkpt lat="41.606903590" lon="2.542388950">
        <ele>133.76</ele>
        <time>2015-05-31T05:11:09Z</time>
      </trkpt>
      <trkpt lat="41.606898310" lon="2.542396910">
        <ele>133.76</ele>
        <time>2015-05-31T05:11:22Z</time>
      </trkpt>
      <trkpt lat="41.606893700" lon="2.542401440">
        <ele>133.76</ele>
        <time>2015-05-31T05:11:26Z</time>
      </trkpt>
      <trkpt lat="41.606824630" lon="2.542292390">
        <ele>133.76</ele>
        <time>2015-05-31T05:11:32Z</time>
      </trkpt>
      <trkpt lat="41.606884230" lon="2.542279480">
        <ele>133.76</ele>
        <time>2015-05-31T05:11:35Z</time>
      </trkpt>
      <trkpt lat="41.606884900" lon="2.542108660">
        <ele>133.76</ele>
        <time>2015-05-31T05:11:39Z</time>
      </trkpt>
      <trkpt lat="41.606852880" lon="2.541973790">
        <ele>133.76</ele>
        <time>2015-05-31T05:11:41Z</time>
      </trkpt>
      <trkpt lat="41.606812310" lon="2.541823000">
        <ele>132.32</ele>
        <time>2015-05-31T05:11:43Z</time>
      </trkpt>
      <trkpt lat="41.606689350" lon="2.541300640">
        <ele>129.43</ele>
        <time>2015-05-31T05:11:49Z</time>
      </trkpt>
      <trkpt lat="41.606615170" lon="2.540947680">
        <ele>127.03</ele>
        <time>2015-05-31T05:11:54Z</time>
      </trkpt>
      <trkpt lat="41.606611990" lon="2.540898230">
        <ele>126.07</ele>
        <time>2015-05-31T05:11:55Z</time>
      </trkpt>
      <trkpt lat="41.606694630" lon="2.540822120">
        <ele>126.07</ele>
        <time>2015-05-31T05:12:00Z</time>
      </trkpt>
      <trkpt lat="41.606718770" lon="2.540831590">
        <ele>126.07</ele>
        <time>2015-05-31T05:12:01Z</time>
      </trkpt>
      <trkpt lat="41.606995210" lon="2.540933430">
        <ele>127.03</ele>
        <time>2015-05-31T05:12:11Z</time>
      </trkpt>
      <trkpt lat="41.607233420" lon="2.540997970">
        <ele>127.99</ele>
        <time>2015-05-31T05:12:19Z</time>
      </trkpt>
      <trkpt lat="41.607567020" lon="2.541009790">
        <ele>128.95</ele>
        <time>2015-05-31T05:12:30Z</time>
      </trkpt>
      <trkpt lat="41.607721080" lon="2.541001160">
        <ele>128.95</ele>
        <time>2015-05-31T05:12:37Z</time>
      </trkpt>
      <trkpt lat="41.607940350" lon="2.541035690">
        <ele>129.92</ele>
        <time>2015-05-31T05:12:44Z</time>
      </trkpt>
      <trkpt lat="41.608219890" lon="2.541130910">
        <ele>130.40</ele>
        <time>2015-05-31T05:12:52Z</time>
      </trkpt>
      <trkpt lat="41.608447450" lon="2.541288570">
        <ele>131.36</ele>
        <time>2015-05-31T05:13:00Z</time>
      </trkpt>
      <trkpt lat="41.608613580" lon="2.541460400">
        <ele>132.32</ele>
        <time>2015-05-31T05:13:07Z</time>
      </trkpt>
      <trkpt lat="41.608819780" lon="2.541511950">
        <ele>133.28</ele>
        <time>2015-05-31T05:13:13Z</time>
      </trkpt>
      <trkpt lat="41.609207610" lon="2.541470960">
        <ele>134.24</ele>
        <time>2015-05-31T05:13:24Z</time>
      </trkpt>
      <trkpt lat="41.609512460" lon="2.541422520">
        <ele>134.72</ele>
        <time>2015-05-31T05:13:33Z</time>
      </trkpt>
      <trkpt lat="41.609731390" lon="2.541387400">
        <ele>135.68</ele>
        <time>2015-05-31T05:13:40Z</time>
      </trkpt>
      <trkpt lat="41.610006910" lon="2.541414130">
        <ele>137.61</ele>
        <time>2015-05-31T05:13:49Z</time>
      </trkpt>
      <trkpt lat="41.610202370" lon="2.541392340">
        <ele>139.05</ele>
        <time>2015-05-31T05:13:56Z</time>
      </trkpt>
      <trkpt lat="41.610462550" lon="2.541318250">
        <ele>140.01</ele>
        <time>2015-05-31T05:14:04Z</time>
      </trkpt>
      <trkpt lat="41.610751890" lon="2.541194950">
        <ele>141.45</ele>
        <time>2015-05-31T05:14:14Z</time>
      </trkpt>
      <trkpt lat="41.611084820" lon="2.541071150">
        <ele>142.89</ele>
        <time>2015-05-31T05:14:26Z</time>
      </trkpt>
      <trkpt lat="41.611409280" lon="2.540929330">
        <ele>144.82</ele>
        <time>2015-05-31T05:14:38Z</time>
      </trkpt>
      <trkpt lat="41.611677250" lon="2.540834610">
        <ele>145.78</ele>
        <time>2015-05-31T05:14:47Z</time>
      </trkpt>
      <trkpt lat="41.611986130" lon="2.540838050">
        <ele>146.74</ele>
        <time>2015-05-31T05:14:57Z</time>
      </trkpt>
      <trkpt lat="41.612309250" lon="2.540852210">
        <ele>148.18</ele>
        <time>2015-05-31T05:15:08Z</time>
      </trkpt>
      <trkpt lat="41.612544190" lon="2.540864950">
        <ele>149.62</ele>
        <time>2015-05-31T05:15:16Z</time>
      </trkpt>
      <trkpt lat="41.612762630" lon="2.540882720">
        <ele>150.58</ele>
        <time>2015-05-31T05:15:24Z</time>
      </trkpt>
      <trkpt lat="41.612956000" lon="2.540893530">
        <ele>151.54</ele>
        <time>2015-05-31T05:15:31Z</time>
      </trkpt>
      <trkpt lat="41.613246600" lon="2.540902920">
        <ele>153.47</ele>
        <time>2015-05-31T05:15:41Z</time>
      </trkpt>
      <trkpt lat="41.613507190" lon="2.540944250">
        <ele>155.39</ele>
        <time>2015-05-31T05:15:50Z</time>
      </trkpt>
      <trkpt lat="41.613804920" lon="2.541007950">
        <ele>157.31</ele>
        <time>2015-05-31T05:16:00Z</time>
      </trkpt>
      <trkpt lat="41.614066100" lon="2.541069810">
        <ele>158.75</ele>
        <time>2015-05-31T05:16:09Z</time>
      </trkpt>
      <trkpt lat="41.614326860" lon="2.541140300">
        <ele>160.68</ele>
        <time>2015-05-31T05:16:18Z</time>
      </trkpt>
      <trkpt lat="41.614678230" lon="2.541207440">
        <ele>162.60</ele>
        <time>2015-05-31T05:16:30Z</time>
      </trkpt>
      <trkpt lat="41.614953400" lon="2.541240040">
        <ele>164.04</ele>
        <time>2015-05-31T05:16:39Z</time>
      </trkpt>
      <trkpt lat="41.615145850" lon="2.541307180">
        <ele>165.48</ele>
        <time>2015-05-31T05:16:47Z</time>
      </trkpt>
      <trkpt lat="41.615440900" lon="2.541407430">
        <ele>166.93</ele>
        <time>2015-05-31T05:16:57Z</time>
      </trkpt>
      <trkpt lat="41.615685560" lon="2.541563920">
        <ele>169.33</ele>
        <time>2015-05-31T05:17:06Z</time>
      </trkpt>
      <trkpt lat="41.616016480" lon="2.541806240">
        <ele>171.25</ele>
        <time>2015-05-31T05:17:19Z</time>
      </trkpt>
      <trkpt lat="41.616326190" lon="2.542017380">
        <ele>173.66</ele>
        <time>2015-05-31T05:17:31Z</time>
      </trkpt>
      <trkpt lat="41.616537250" lon="2.542129700">
        <ele>175.10</ele>
        <time>2015-05-31T05:17:39Z</time>
      </trkpt>
      <trkpt lat="41.616771770" lon="2.542111170">
        <ele>176.06</ele>
        <time>2015-05-31T05:17:47Z</time>
      </trkpt>
      <trkpt lat="41.616999340" lon="2.541947390">
        <ele>176.54</ele>
        <time>2015-05-31T05:17:55Z</time>
      </trkpt>
      <trkpt lat="41.617223980" lon="2.541701050">
        <ele>177.50</ele>
        <time>2015-05-31T05:18:04Z</time>
      </trkpt>
      <trkpt lat="41.617423470" lon="2.541447750">
        <ele>177.98</ele>
        <time>2015-05-31T05:18:13Z</time>
      </trkpt>
      <trkpt lat="41.617552630" lon="2.541204840">
        <ele>179.42</ele>
        <time>2015-05-31T05:18:21Z</time>
      </trkpt>
      <trkpt lat="41.617694620" lon="2.540926480">
        <ele>181.83</ele>
        <time>2015-05-31T05:18:31Z</time>
      </trkpt>
      <trkpt lat="41.617774170" lon="2.540717260">
        <ele>183.75</ele>
        <time>2015-05-31T05:18:39Z</time>
      </trkpt>
      <trkpt lat="41.617865530" lon="2.540486340">
        <ele>185.67</ele>
        <time>2015-05-31T05:18:47Z</time>
      </trkpt>
      <trkpt lat="41.617987400" lon="2.540239490">
        <ele>188.08</ele>
        <time>2015-05-31T05:18:56Z</time>
      </trkpt>
      <trkpt lat="41.618085890" lon="2.540255590">
        <ele>189.52</ele>
        <time>2015-05-31T05:19:01Z</time>
      </trkpt>
      <trkpt lat="41.618097960" lon="2.540383830">
        <ele>190.48</ele>
        <time>2015-05-31T05:19:05Z</time>
      </trkpt>
      <trkpt lat="41.618061660" lon="2.540649790">
        <ele>192.40</ele>
        <time>2015-05-31T05:19:14Z</time>
      </trkpt>
      <trkpt lat="41.617962510" lon="2.540805440">
        <ele>193.84</ele>
        <time>2015-05-31T05:19:21Z</time>
      </trkpt>
      <trkpt lat="41.617961840" lon="2.541038540">
        <ele>195.77</ele>
        <time>2015-05-31T05:19:29Z</time>
      </trkpt>
      <trkpt lat="41.618044310" lon="2.541242640">
        <ele>196.25</ele>
        <time>2015-05-31T05:19:36Z</time>
      </trkpt>
      <trkpt lat="41.618125370" lon="2.541471050">
        <ele>197.21</ele>
        <time>2015-05-31T05:19:44Z</time>
      </trkpt>
      <trkpt lat="41.618232660" lon="2.541764160">
        <ele>199.13</ele>
        <time>2015-05-31T05:19:54Z</time>
      </trkpt>
      <trkpt lat="41.618354030" lon="2.542034230">
        <ele>200.57</ele>
        <time>2015-05-31T05:20:03Z</time>
      </trkpt>
      <trkpt lat="41.618479500" lon="2.542282500">
        <ele>202.01</ele>
        <time>2015-05-31T05:20:12Z</time>
      </trkpt>
      <trkpt lat="41.618669770" lon="2.542499680">
        <ele>203.46</ele>
        <time>2015-05-31T05:20:22Z</time>
      </trkpt>
      <trkpt lat="41.618824500" lon="2.542655580">
        <ele>205.38</ele>
        <time>2015-05-31T05:20:30Z</time>
      </trkpt>
      <trkpt lat="41.619062970" lon="2.542802760">
        <ele>207.30</ele>
        <time>2015-05-31T05:20:41Z</time>
      </trkpt>
      <trkpt lat="41.619318450" lon="2.542802850">
        <ele>208.26</ele>
        <time>2015-05-31T05:20:51Z</time>
      </trkpt>
      <trkpt lat="41.619534370" lon="2.542886670">
        <ele>208.74</ele>
        <time>2015-05-31T05:20:58Z</time>
      </trkpt>
      <trkpt lat="41.619808030" lon="2.543249520">
        <ele>208.74</ele>
        <time>2015-05-31T05:21:05Z</time>
      </trkpt>
      <trkpt lat="41.619852710" lon="2.543318590">
        <ele>207.78</ele>
        <time>2015-05-31T05:21:06Z</time>
      </trkpt>
      <trkpt lat="41.619923200" lon="2.543708430">
        <ele>205.38</ele>
        <time>2015-05-31T05:21:10Z</time>
      </trkpt>
      <trkpt lat="41.619854640" lon="2.543909180">
        <ele>204.42</ele>
        <time>2015-05-31T05:21:12Z</time>
      </trkpt>
      <trkpt lat="41.619547190" lon="2.544610660">
        <ele>201.05</ele>
        <time>2015-05-31T05:21:18Z</time>
      </trkpt>
      <trkpt lat="41.619449620" lon="2.545296380">
        <ele>197.21</ele>
        <time>2015-05-31T05:21:23Z</time>
      </trkpt>
      <trkpt lat="41.619412910" lon="2.545887810">
        <ele>194.32</ele>
        <time>2015-05-31T05:21:27Z</time>
      </trkpt>
      <trkpt lat="41.619407460" lon="2.546036080">
        <ele>193.36</ele>
        <time>2015-05-31T05:21:28Z</time>
      </trkpt>
      <trkpt lat="41.619329850" lon="2.546785590">
        <ele>189.52</ele>
        <time>2015-05-31T05:21:33Z</time>
      </trkpt>
      <trkpt lat="41.619344770" lon="2.546934290">
        <ele>189.04</ele>
        <time>2015-05-31T05:21:34Z</time>
      </trkpt>
      <trkpt lat="41.619402850" lon="2.547372410">
        <ele>187.59</ele>
        <time>2015-05-31T05:21:37Z</time>
      </trkpt>
      <trkpt lat="41.619353230" lon="2.548053690">
        <ele>185.19</ele>
        <time>2015-05-31T05:21:42Z</time>
      </trkpt>
      <trkpt lat="41.619492790" lon="2.548370780">
        <ele>184.23</ele>
        <time>2015-05-31T05:21:45Z</time>
      </trkpt>
      <trkpt lat="41.619629330" lon="2.548533050">
        <ele>183.27</ele>
        <time>2015-05-31T05:21:47Z</time>
      </trkpt>
      <trkpt lat="41.619950530" lon="2.548845450">
        <ele>181.83</ele>
        <time>2015-05-31T05:21:51Z</time>
      </trkpt>
      <trkpt lat="41.620184300" lon="2.549101510">
        <ele>180.38</ele>
        <time>2015-05-31T05:21:54Z</time>
      </trkpt>
      <trkpt lat="41.620548410" lon="2.549795120">
        <ele>175.58</ele>
        <time>2015-05-31T05:22:00Z</time>
      </trkpt>
      <trkpt lat="41.620597360" lon="2.549920430">
        <ele>175.58</ele>
        <time>2015-05-31T05:22:01Z</time>
      </trkpt>
      <trkpt lat="41.620789560" lon="2.550724750">
        <ele>175.58</ele>
        <time>2015-05-31T05:22:08Z</time>
      </trkpt>
      <trkpt lat="41.620829870" lon="2.551168070">
        <ele>174.14</ele>
        <time>2015-05-31T05:22:12Z</time>
      </trkpt>
      <trkpt lat="41.620993320" lon="2.551594460">
        <ele>172.21</ele>
        <time>2015-05-31T05:22:16Z</time>
      </trkpt>
      <trkpt lat="41.621069590" lon="2.551693870">
        <ele>172.21</ele>
        <time>2015-05-31T05:22:17Z</time>
      </trkpt>
      <trkpt lat="41.621268830" lon="2.552271630">
        <ele>169.33</ele>
        <time>2015-05-31T05:22:22Z</time>
      </trkpt>
      <trkpt lat="41.621357260" lon="2.553001110">
        <ele>168.37</ele>
        <time>2015-05-31T05:22:28Z</time>
      </trkpt>
      <trkpt lat="41.621597820" lon="2.553610640">
        <ele>166.45</ele>
        <time>2015-05-31T05:22:34Z</time>
      </trkpt>
      <trkpt lat="41.621910970" lon="2.554065860">
        <ele>163.56</ele>
        <time>2015-05-31T05:22:39Z</time>
      </trkpt>
      <trkpt lat="41.622174580" lon="2.554605990">
        <ele>161.64</ele>
        <time>2015-05-31T05:22:44Z</time>
      </trkpt>
      <trkpt lat="41.622312550" lon="2.554759380">
        <ele>160.68</ele>
        <time>2015-05-31T05:22:46Z</time>
      </trkpt>
      <trkpt lat="41.622697860" lon="2.555086950">
        <ele>159.72</ele>
        <time>2015-05-31T05:22:51Z</time>
      </trkpt>
      <trkpt lat="41.623111590" lon="2.555202280">
        <ele>157.31</ele>
        <time>2015-05-31T05:22:56Z</time>
      </trkpt>
      <trkpt lat="41.623282580" lon="2.555243020">
        <ele>155.87</ele>
        <time>2015-05-31T05:22:58Z</time>
      </trkpt>
      <trkpt lat="41.623511160" lon="2.555550800">
        <ele>153.95</ele>
        <time>2015-05-31T05:23:02Z</time>
      </trkpt>
      <trkpt lat="41.623538150" lon="2.556013820">
        <ele>152.99</ele>
        <time>2015-05-31T05:23:06Z</time>
      </trkpt>
      <trkpt lat="41.623586430" lon="2.556301400">
        <ele>152.03</ele>
        <time>2015-05-31T05:23:09Z</time>
      </trkpt>
      <trkpt lat="41.623629180" lon="2.556446160">
        <ele>151.54</ele>
        <time>2015-05-31T05:23:11Z</time>
      </trkpt>
      <trkpt lat="41.623746100" lon="2.556544220">
        <ele>150.10</ele>
        <time>2015-05-31T05:23:15Z</time>
      </trkpt>
      <trkpt lat="41.623834370" lon="2.556513970">
        <ele>150.58</ele>
        <time>2015-05-31T05:23:19Z</time>
      </trkpt>
      <trkpt lat="41.623993960" lon="2.556485890">
        <ele>152.03</ele>
        <time>2015-05-31T05:23:27Z</time>
      </trkpt>
      <trkpt lat="41.624015250" lon="2.556486310">
        <ele>152.03</ele>
        <time>2015-05-31T05:23:28Z</time>
      </trkpt>
      <trkpt lat="41.624160760" lon="2.556458980">
        <ele>153.95</ele>
        <time>2015-05-31T05:23:35Z</time>
      </trkpt>
      <trkpt lat="41.624279280" lon="2.556436520">
        <ele>154.43</ele>
        <time>2015-05-31T05:23:41Z</time>
      </trkpt>
      <trkpt lat="41.624428220" lon="2.556388660">
        <ele>154.91</ele>
        <time>2015-05-31T05:23:47Z</time>
      </trkpt>
      <trkpt lat="41.624669960" lon="2.556305000">
        <ele>155.87</ele>
        <time>2015-05-31T05:23:56Z</time>
      </trkpt>
      <trkpt lat="41.624852850" lon="2.556205430">
        <ele>155.87</ele>
        <time>2015-05-31T05:24:01Z</time>
      </trkpt>
      <trkpt lat="41.624944130" lon="2.556132170">
        <ele>155.87</ele>
        <time>2015-05-31T05:24:03Z</time>
      </trkpt>
      <trkpt lat="41.625100540" lon="2.555991690">
        <ele>153.95</ele>
        <time>2015-05-31T05:24:09Z</time>
      </trkpt>
      <trkpt lat="41.625204890" lon="2.555911980">
        <ele>153.47</ele>
        <time>2015-05-31T05:24:15Z</time>
      </trkpt>
      <trkpt lat="41.625303880" lon="2.555769570">
        <ele>155.39</ele>
        <time>2015-05-31T05:24:22Z</time>
      </trkpt>
      <trkpt lat="41.625426010" lon="2.555683990">
        <ele>156.83</ele>
        <time>2015-05-31T05:24:29Z</time>
      </trkpt>
      <trkpt lat="41.625547380" lon="2.555557590">
        <ele>159.24</ele>
        <time>2015-05-31T05:24:36Z</time>
      </trkpt>
      <trkpt lat="41.625694730" lon="2.555318200">
        <ele>160.68</ele>
        <time>2015-05-31T05:24:43Z</time>
      </trkpt>
      <trkpt lat="41.625803950" lon="2.554984690">
        <ele>161.16</ele>
        <time>2015-05-31T05:24:50Z</time>
      </trkpt>
      <trkpt lat="41.625895220" lon="2.554686790">
        <ele>161.64</ele>
        <time>2015-05-31T05:24:58Z</time>
      </trkpt>
      <trkpt lat="41.625974100" lon="2.554475150">
        <ele>164.52</ele>
        <time>2015-05-31T05:25:06Z</time>
      </trkpt>
      <trkpt lat="41.626037050" lon="2.554334420">
        <ele>165.48</ele>
        <time>2015-05-31T05:25:12Z</time>
      </trkpt>
      <trkpt lat="41.626141070" lon="2.554152030">
        <ele>166.93</ele>
        <time>2015-05-31T05:25:20Z</time>
      </trkpt>
      <trkpt lat="41.626271150" lon="2.554047090">
        <ele>167.41</ele>
        <time>2015-05-31T05:25:26Z</time>
      </trkpt>
      <trkpt lat="41.626445660" lon="2.553976180">
        <ele>168.37</ele>
        <time>2015-05-31T05:25:33Z</time>
      </trkpt>
      <trkpt lat="41.626657730" lon="2.553925130">
        <ele>168.85</ele>
        <time>2015-05-31T05:25:42Z</time>
      </trkpt>
      <trkpt lat="41.626835840" lon="2.553780120">
        <ele>170.29</ele>
        <time>2015-05-31T05:25:51Z</time>
      </trkpt>
      <trkpt lat="41.626871630" lon="2.553758080">
        <ele>171.25</ele>
        <time>2015-05-31T05:25:53Z</time>
      </trkpt>
      <trkpt lat="41.627001640" lon="2.553663870">
        <ele>171.73</ele>
        <time>2015-05-31T05:25:59Z</time>
      </trkpt>
      <trkpt lat="41.627199950" lon="2.553512910">
        <ele>172.21</ele>
        <time>2015-05-31T05:26:08Z</time>
      </trkpt>
      <trkpt lat="41.627380660" lon="2.553450040">
        <ele>173.66</ele>
        <time>2015-05-31T05:26:16Z</time>
      </trkpt>
      <trkpt lat="41.627485020" lon="2.553437720">
        <ele>173.66</ele>
        <time>2015-05-31T05:26:20Z</time>
      </trkpt>
      <trkpt lat="41.627533050" lon="2.553265730">
        <ele>173.66</ele>
        <time>2015-05-31T05:26:25Z</time>
      </trkpt>
      <trkpt lat="41.627524920" lon="2.553074540">
        <ele>173.66</ele>
        <time>2015-05-31T05:26:30Z</time>
      </trkpt>
      <trkpt lat="41.627610830" lon="2.552774710">
        <ele>174.14</ele>
        <time>2015-05-31T05:26:39Z</time>
      </trkpt>
      <trkpt lat="41.627700690" lon="2.552579080">
        <ele>175.10</ele>
        <time>2015-05-31T05:26:46Z</time>
      </trkpt>
      <trkpt lat="41.627851980" lon="2.552468360">
        <ele>176.06</ele>
        <time>2015-05-31T05:26:54Z</time>
      </trkpt>
      <trkpt lat="41.628016850" lon="2.552389650">
        <ele>178.94</ele>
        <time>2015-05-31T05:27:03Z</time>
      </trkpt>
      <trkpt lat="41.628139390" lon="2.552403980">
        <ele>178.94</ele>
        <time>2015-05-31T05:27:08Z</time>
      </trkpt>
      <trkpt lat="41.628229670" lon="2.552287640">
        <ele>179.42</ele>
        <time>2015-05-31T05:27:14Z</time>
      </trkpt>
      <trkpt lat="41.628270490" lon="2.552157970">
        <ele>181.35</ele>
        <time>2015-05-31T05:27:21Z</time>
      </trkpt>
      <trkpt lat="41.628276440" lon="2.552143390">
        <ele>181.35</ele>
        <time>2015-05-31T05:27:22Z</time>
      </trkpt>
      <trkpt lat="41.628344330" lon="2.551919170">
        <ele>184.23</ele>
        <time>2015-05-31T05:27:32Z</time>
      </trkpt>
      <trkpt lat="41.628476260" lon="2.551772990">
        <ele>185.19</ele>
        <time>2015-05-31T05:27:40Z</time>
      </trkpt>
      <trkpt lat="41.628579780" lon="2.551617590">
        <ele>185.19</ele>
        <time>2015-05-31T05:27:46Z</time>
      </trkpt>
      <trkpt lat="41.628638450" lon="2.551496730">
        <ele>185.67</ele>
        <time>2015-05-31T05:27:52Z</time>
      </trkpt>
      <trkpt lat="41.628647670" lon="2.551471920">
        <ele>186.15</ele>
        <time>2015-05-31T05:27:53Z</time>
      </trkpt>
      <trkpt lat="41.628766780" lon="2.551357170">
        <ele>187.59</ele>
        <time>2015-05-31T05:28:02Z</time>
      </trkpt>
      <trkpt lat="41.628883540" lon="2.551252480">
        <ele>188.56</ele>
        <time>2015-05-31T05:28:09Z</time>
      </trkpt>
      <trkpt lat="41.628968620" lon="2.551128010">
        <ele>189.52</ele>
        <time>2015-05-31T05:28:15Z</time>
      </trkpt>
      <trkpt lat="41.629028040" lon="2.550973860">
        <ele>190.96</ele>
        <time>2015-05-31T05:28:22Z</time>
      </trkpt>
      <trkpt lat="41.629040280" lon="2.550827100">
        <ele>190.96</ele>
        <time>2015-05-31T05:28:28Z</time>
      </trkpt>
      <trkpt lat="41.629106500" lon="2.550571110">
        <ele>190.96</ele>
        <time>2015-05-31T05:28:36Z</time>
      </trkpt>
      <trkpt lat="41.629110690" lon="2.550547310">
        <ele>190.96</ele>
        <time>2015-05-31T05:28:37Z</time>
      </trkpt>
      <trkpt lat="41.629154020" lon="2.550430210">
        <ele>191.44</ele>
        <time>2015-05-31T05:28:42Z</time>
      </trkpt>
      <trkpt lat="41.629297440" lon="2.550225690">
        <ele>192.40</ele>
        <time>2015-05-31T05:28:51Z</time>
      </trkpt>
      <trkpt lat="41.629458040" lon="2.550060740">
        <ele>193.36</ele>
        <time>2015-05-31T05:28:59Z</time>
      </trkpt>
      <trkpt lat="41.629623750" lon="2.550011030">
        <ele>193.36</ele>
        <time>2015-05-31T05:29:05Z</time>
      </trkpt>
      <trkpt lat="41.629752410" lon="2.549993520">
        <ele>193.36</ele>
        <time>2015-05-31T05:29:12Z</time>
      </trkpt>
      <trkpt lat="41.629916780" lon="2.549954960">
        <ele>195.28</ele>
        <time>2015-05-31T05:29:20Z</time>
      </trkpt>
      <trkpt lat="41.630077040" lon="2.549818920">
        <ele>195.28</ele>
        <time>2015-05-31T05:29:27Z</time>
      </trkpt>
      <trkpt lat="41.630226490" lon="2.549646340">
        <ele>196.25</ele>
        <time>2015-05-31T05:29:36Z</time>
      </trkpt>
      <trkpt lat="41.630299910" lon="2.549560760">
        <ele>197.21</ele>
        <time>2015-05-31T05:29:42Z</time>
      </trkpt>
      <trkpt lat="41.630416840" lon="2.549464790">
        <ele>198.17</ele>
        <time>2015-05-31T05:29:50Z</time>
      </trkpt>
      <trkpt lat="41.630503340" lon="2.549384070">
        <ele>199.61</ele>
        <time>2015-05-31T05:29:56Z</time>
      </trkpt>
      <trkpt lat="41.630583390" lon="2.549316170">
        <ele>201.05</ele>
        <time>2015-05-31T05:30:01Z</time>
      </trkpt>
      <trkpt lat="41.630682880" lon="2.549216260">
        <ele>202.01</ele>
        <time>2015-05-31T05:30:08Z</time>
      </trkpt>
      <trkpt lat="41.630843400" lon="2.549095310">
        <ele>202.01</ele>
        <time>2015-05-31T05:30:14Z</time>
      </trkpt>
      <trkpt lat="41.631026540" lon="2.548890880">
        <ele>200.57</ele>
        <time>2015-05-31T05:30:20Z</time>
      </trkpt>
      <trkpt lat="41.631197200" lon="2.548632880">
        <ele>200.09</ele>
        <time>2015-05-31T05:30:26Z</time>
      </trkpt>
      <trkpt lat="41.631407330" lon="2.548252090">
        <ele>201.53</ele>
        <time>2015-05-31T05:30:33Z</time>
      </trkpt>
      <trkpt lat="41.631413870" lon="2.548239020">
        <ele>201.53</ele>
        <time>2015-05-31T05:30:34Z</time>
      </trkpt>
      <trkpt lat="41.631472460" lon="2.548063500">
        <ele>203.46</ele>
        <time>2015-05-31T05:30:41Z</time>
      </trkpt>
      <trkpt lat="41.631553090" lon="2.547912120">
        <ele>205.86</ele>
        <time>2015-05-31T05:30:49Z</time>
      </trkpt>
      <trkpt lat="41.631603300" lon="2.547769130">
        <ele>207.78</ele>
        <time>2015-05-31T05:30:56Z</time>
      </trkpt>
      <trkpt lat="41.631697850" lon="2.547597300">
        <ele>208.74</ele>
        <time>2015-05-31T05:31:03Z</time>
      </trkpt>
      <trkpt lat="41.631821730" lon="2.547451620">
        <ele>210.67</ele>
        <time>2015-05-31T05:31:11Z</time>
      </trkpt>
      <trkpt lat="41.631876720" lon="2.547428650">
        <ele>210.67</ele>
        <time>2015-05-31T05:31:14Z</time>
      </trkpt>
      <trkpt lat="41.632047880" lon="2.547308040">
        <ele>210.67</ele>
        <time>2015-05-31T05:31:22Z</time>
      </trkpt>
      <trkpt lat="41.632219290" lon="2.547209890">
        <ele>210.67</ele>
        <time>2015-05-31T05:31:28Z</time>
      </trkpt>
      <trkpt lat="41.632364710" lon="2.547003860">
        <ele>211.15</ele>
        <time>2015-05-31T05:31:36Z</time>
      </trkpt>
      <trkpt lat="41.632494130" lon="2.546868160">
        <ele>213.55</ele>
        <time>2015-05-31T05:31:44Z</time>
      </trkpt>
      <trkpt lat="41.632570570" lon="2.546839820">
        <ele>213.55</ele>
        <time>2015-05-31T05:31:47Z</time>
      </trkpt>
      <trkpt lat="41.632707110" lon="2.546783410">
        <ele>215.47</ele>
        <time>2015-05-31T05:31:55Z</time>
      </trkpt>
      <trkpt lat="41.632736780" lon="2.546761540">
        <ele>215.95</ele>
        <time>2015-05-31T05:31:57Z</time>
      </trkpt>
      <trkpt lat="41.632841810" lon="2.546607810">
        <ele>217.40</ele>
        <time>2015-05-31T05:32:05Z</time>
      </trkpt>
      <trkpt lat="41.632930070" lon="2.546480240">
        <ele>220.28</ele>
        <time>2015-05-31T05:32:13Z</time>
      </trkpt>
      <trkpt lat="41.633048510" lon="2.546429450">
        <ele>221.24</ele>
        <time>2015-05-31T05:32:20Z</time>
      </trkpt>
      <trkpt lat="41.633204330" lon="2.546388540">
        <ele>222.20</ele>
        <time>2015-05-31T05:32:28Z</time>
      </trkpt>
      <trkpt lat="41.633312960" lon="2.546366670">
        <ele>224.12</ele>
        <time>2015-05-31T05:32:36Z</time>
      </trkpt>
      <trkpt lat="41.633402730" lon="2.546340680">
        <ele>225.09</ele>
        <time>2015-05-31T05:32:42Z</time>
      </trkpt>
      <trkpt lat="41.633469450" lon="2.546319480">
        <ele>226.53</ele>
        <time>2015-05-31T05:32:47Z</time>
      </trkpt>
      <trkpt lat="41.633518400" lon="2.546297850">
        <ele>227.49</ele>
        <time>2015-05-31T05:32:51Z</time>
      </trkpt>
      <trkpt lat="41.633596010" lon="2.546248980">
        <ele>227.97</ele>
        <time>2015-05-31T05:32:56Z</time>
      </trkpt>
      <trkpt lat="41.633766080" lon="2.546241440">
        <ele>229.89</ele>
        <time>2015-05-31T05:33:06Z</time>
      </trkpt>
      <trkpt lat="41.633837920" lon="2.546245380">
        <ele>231.33</ele>
        <time>2015-05-31T05:33:10Z</time>
      </trkpt>
      <trkpt lat="41.633933640" lon="2.546269350">
        <ele>231.81</ele>
        <time>2015-05-31T05:33:16Z</time>
      </trkpt>
      <trkpt lat="41.634067410" lon="2.546333390">
        <ele>232.30</ele>
        <time>2015-05-31T05:33:24Z</time>
      </trkpt>
      <trkpt lat="41.634238910" lon="2.546392650">
        <ele>234.70</ele>
        <time>2015-05-31T05:33:35Z</time>
      </trkpt>
      <trkpt lat="41.634298330" lon="2.546361220">
        <ele>235.18</ele>
        <time>2015-05-31T05:33:39Z</time>
      </trkpt>
      <trkpt lat="41.634318700" lon="2.546181680">
        <ele>236.62</ele>
        <time>2015-05-31T05:33:47Z</time>
      </trkpt>
      <trkpt lat="41.634221390" lon="2.546061400">
        <ele>237.58</ele>
        <time>2015-05-31T05:33:54Z</time>
      </trkpt>
      <trkpt lat="41.634123650" lon="2.545957040">
        <ele>239.02</ele>
        <time>2015-05-31T05:34:02Z</time>
      </trkpt>
      <trkpt lat="41.634048390" lon="2.545838770">
        <ele>240.47</ele>
        <time>2015-05-31T05:34:10Z</time>
      </trkpt>
      <trkpt lat="41.634035230" lon="2.545660240">
        <ele>242.39</ele>
        <time>2015-05-31T05:34:18Z</time>
      </trkpt>
      <trkpt lat="41.634096920" lon="2.545465610">
        <ele>243.83</ele>
        <time>2015-05-31T05:34:27Z</time>
      </trkpt>
      <trkpt lat="41.634195570" lon="2.545364270">
        <ele>245.27</ele>
        <time>2015-05-31T05:34:34Z</time>
      </trkpt>
      <trkpt lat="41.634309310" lon="2.545320020">
        <ele>245.75</ele>
        <time>2015-05-31T05:34:41Z</time>
      </trkpt>
      <trkpt lat="41.634431100" lon="2.545284730">
        <ele>246.72</ele>
        <time>2015-05-31T05:34:49Z</time>
      </trkpt>
      <trkpt lat="41.634570750" lon="2.545144670">
        <ele>246.72</ele>
        <time>2015-05-31T05:34:55Z</time>
      </trkpt>
      <trkpt lat="41.634695550" lon="2.544983150">
        <ele>246.72</ele>
        <time>2015-05-31T05:35:01Z</time>
      </trkpt>
      <trkpt lat="41.634868220" lon="2.544856000">
        <ele>247.20</ele>
        <time>2015-05-31T05:35:09Z</time>
      </trkpt>
      <trkpt lat="41.635042560" lon="2.544715350">
        <ele>247.68</ele>
        <time>2015-05-31T05:35:18Z</time>
      </trkpt>
      <trkpt lat="41.635114980" lon="2.544581320">
        <ele>249.60</ele>
        <time>2015-05-31T05:35:25Z</time>
      </trkpt>
      <trkpt lat="41.635191760" lon="2.544432460">
        <ele>251.52</ele>
        <time>2015-05-31T05:35:32Z</time>
      </trkpt>
      <trkpt lat="41.635298630" lon="2.544273960">
        <ele>252.48</ele>
        <time>2015-05-31T05:35:39Z</time>
      </trkpt>
      <trkpt lat="41.635411280" lon="2.544173880">
        <ele>253.93</ele>
        <time>2015-05-31T05:35:47Z</time>
      </trkpt>
      <trkpt lat="41.635530220" lon="2.544121490">
        <ele>254.41</ele>
        <time>2015-05-31T05:35:54Z</time>
      </trkpt>
      <trkpt lat="41.635651340" lon="2.544066170">
        <ele>254.89</ele>
        <time>2015-05-31T05:36:01Z</time>
      </trkpt>
      <trkpt lat="41.635803890" lon="2.543963070">
        <ele>256.81</ele>
        <time>2015-05-31T05:36:10Z</time>
      </trkpt>
      <trkpt lat="41.635880920" lon="2.543869950">
        <ele>257.29</ele>
        <time>2015-05-31T05:36:15Z</time>
      </trkpt>
      <trkpt lat="41.635994410" lon="2.543629390">
        <ele>257.29</ele>
        <time>2015-05-31T05:36:21Z</time>
      </trkpt>
      <trkpt lat="41.636064320" lon="2.543459490">
        <ele>257.29</ele>
        <time>2015-05-31T05:36:24Z</time>
      </trkpt>
      <trkpt lat="41.636202280" lon="2.543258400">
        <ele>255.37</ele>
        <time>2015-05-31T05:36:30Z</time>
      </trkpt>
      <trkpt lat="41.636321810" lon="2.543159500">
        <ele>255.37</ele>
        <time>2015-05-31T05:36:36Z</time>
      </trkpt>
      <trkpt lat="41.636468660" lon="2.542963030">
        <ele>257.77</ele>
        <time>2015-05-31T05:36:44Z</time>
      </trkpt>
      <trkpt lat="41.636594560" lon="2.542668570">
        <ele>257.77</ele>
        <time>2015-05-31T05:36:51Z</time>
      </trkpt>
      <trkpt lat="41.636704950" lon="2.542493050">
        <ele>257.77</ele>
        <time>2015-05-31T05:36:58Z</time>
      </trkpt>
      <trkpt lat="41.636847690" lon="2.542249390">
        <ele>259.69</ele>
        <time>2015-05-31T05:37:08Z</time>
      </trkpt>
      <trkpt lat="41.636943080" lon="2.542065070">
        <ele>261.14</ele>
        <time>2015-05-31T05:37:16Z</time>
      </trkpt>
      <trkpt lat="41.637049690" lon="2.541898530">
        <ele>262.58</ele>
        <time>2015-05-31T05:37:24Z</time>
      </trkpt>
      <trkpt lat="41.637096720" lon="2.541816380">
        <ele>263.54</ele>
        <time>2015-05-31T05:37:28Z</time>
      </trkpt>
      <trkpt lat="41.637149610" lon="2.541734240">
        <ele>264.50</ele>
        <time>2015-05-31T05:37:32Z</time>
      </trkpt>
      <trkpt lat="41.637221350" lon="2.541622430">
        <ele>266.90</ele>
        <time>2015-05-31T05:37:41Z</time>
      </trkpt>
      <trkpt lat="41.637306100" lon="2.541490910">
        <ele>268.83</ele>
        <time>2015-05-31T05:37:50Z</time>
      </trkpt>
      <trkpt lat="41.637400730" lon="2.541352190">
        <ele>270.27</ele>
        <time>2015-05-31T05:37:59Z</time>
      </trkpt>
      <trkpt lat="41.637504410" lon="2.541211710">
        <ele>271.23</ele>
        <time>2015-05-31T05:38:06Z</time>
      </trkpt>
      <trkpt lat="41.637606840" lon="2.541085900">
        <ele>272.67</ele>
        <time>2015-05-31T05:38:15Z</time>
      </trkpt>
      <trkpt lat="41.637703980" lon="2.540975170">
        <ele>273.63</ele>
        <time>2015-05-31T05:38:23Z</time>
      </trkpt>
      <trkpt lat="41.637749330" lon="2.540935700">
        <ele>274.11</ele>
        <time>2015-05-31T05:38:27Z</time>
      </trkpt>
      <trkpt lat="41.637895680" lon="2.540737210">
        <ele>275.56</ele>
        <time>2015-05-31T05:38:36Z</time>
      </trkpt>
      <trkpt lat="41.637960140" lon="2.540633530">
        <ele>276.52</ele>
        <time>2015-05-31T05:38:41Z</time>
      </trkpt>
      <trkpt lat="41.638061050" lon="2.540479130">
        <ele>278.44</ele>
        <time>2015-05-31T05:38:50Z</time>
      </trkpt>
      <trkpt lat="41.638116370" lon="2.540377460">
        <ele>280.36</ele>
        <time>2015-05-31T05:38:57Z</time>
      </trkpt>
      <trkpt lat="41.638186360" lon="2.540293060">
        <ele>281.80</ele>
        <time>2015-05-31T05:39:04Z</time>
      </trkpt>
      <trkpt lat="41.638238830" lon="2.540243520">
        <ele>282.28</ele>
        <time>2015-05-31T05:39:08Z</time>
      </trkpt>
      <trkpt lat="41.638336820" lon="2.540122150">
        <ele>284.21</ele>
        <time>2015-05-31T05:39:16Z</time>
      </trkpt>
      <trkpt lat="41.638377390" lon="2.540008660">
        <ele>285.65</ele>
        <time>2015-05-31T05:39:23Z</time>
      </trkpt>
      <trkpt lat="41.638383000" lon="2.539963650">
        <ele>286.13</ele>
        <time>2015-05-31T05:39:26Z</time>
      </trkpt>
      <trkpt lat="41.638433960" lon="2.539833480">
        <ele>287.57</ele>
        <time>2015-05-31T05:39:33Z</time>
      </trkpt>
      <trkpt lat="41.638551560" lon="2.539688640">
        <ele>288.53</ele>
        <time>2015-05-31T05:39:39Z</time>
      </trkpt>
      <trkpt lat="41.638652400" lon="2.539606240">
        <ele>289.49</ele>
        <time>2015-05-31T05:39:47Z</time>
      </trkpt>
      <trkpt lat="41.638712500" lon="2.539542620">
        <ele>290.46</ele>
        <time>2015-05-31T05:39:53Z</time>
      </trkpt>
      <trkpt lat="41.638824810" lon="2.539457460">
        <ele>292.38</ele>
        <time>2015-05-31T05:40:01Z</time>
      </trkpt>
      <trkpt lat="41.638838640" lon="2.539447660">
        <ele>292.38</ele>
        <time>2015-05-31T05:40:02Z</time>
      </trkpt>
      <trkpt lat="41.638941570" lon="2.539320750">
        <ele>295.74</ele>
        <time>2015-05-31T05:40:11Z</time>
      </trkpt>
      <trkpt lat="41.638991190" lon="2.539298040">
        <ele>296.70</ele>
        <time>2015-05-31T05:40:16Z</time>
      </trkpt>
      <trkpt lat="41.638987090" lon="2.539404830">
        <ele>297.67</ele>
        <time>2015-05-31T05:40:24Z</time>
      </trkpt>
      <trkpt lat="41.638948950" lon="2.539531890">
        <ele>299.11</ele>
        <time>2015-05-31T05:40:33Z</time>
      </trkpt>
      <trkpt lat="41.638948950" lon="2.539549660">
        <ele>299.11</ele>
        <time>2015-05-31T05:40:43Z</time>
      </trkpt>
      <trkpt lat="41.638946690" lon="2.539590070">
        <ele>299.11</ele>
        <time>2015-05-31T05:40:54Z</time>
      </trkpt>
      <trkpt lat="41.638884660" lon="2.539671120">
        <ele>301.03</ele>
        <time>2015-05-31T05:41:01Z</time>
      </trkpt>
      <trkpt lat="41.638828420" lon="2.539797430">
        <ele>302.47</ele>
        <time>2015-05-31T05:41:09Z</time>
      </trkpt>
      <trkpt lat="41.638795060" lon="2.539967590">
        <ele>303.91</ele>
        <time>2015-05-31T05:41:18Z</time>
      </trkpt>
      <trkpt lat="41.638738060" lon="2.540126670">
        <ele>305.36</ele>
        <time>2015-05-31T05:41:27Z</time>
      </trkpt>
      <trkpt lat="41.638715180" lon="2.540260950">
        <ele>307.28</ele>
        <time>2015-05-31T05:41:34Z</time>
      </trkpt>
      <trkpt lat="41.638685420" lon="2.540420960">
        <ele>309.20</ele>
        <time>2015-05-31T05:41:42Z</time>
      </trkpt>
      <trkpt lat="41.638685090" lon="2.540437980">
        <ele>309.20</ele>
        <time>2015-05-31T05:41:43Z</time>
      </trkpt>
      <trkpt lat="41.638689360" lon="2.540576450">
        <ele>310.64</ele>
        <time>2015-05-31T05:41:50Z</time>
      </trkpt>
      <trkpt lat="41.638729760" lon="2.540718690">
        <ele>311.60</ele>
        <time>2015-05-31T05:41:58Z</time>
      </trkpt>
      <trkpt lat="41.638732530" lon="2.540738130">
        <ele>311.60</ele>
        <time>2015-05-31T05:41:59Z</time>
      </trkpt>
      <trkpt lat="41.638734540" lon="2.540839810">
        <ele>312.09</ele>
        <time>2015-05-31T05:42:04Z</time>
      </trkpt>
      <trkpt lat="41.638683580" lon="2.541000070">
        <ele>312.57</ele>
        <time>2015-05-31T05:42:12Z</time>
      </trkpt>
      <trkpt lat="41.638629850" lon="2.541176510">
        <ele>314.01</ele>
        <time>2015-05-31T05:42:21Z</time>
      </trkpt>
      <trkpt lat="41.638612670" lon="2.541326290">
        <ele>315.45</ele>
        <time>2015-05-31T05:42:29Z</time>
      </trkpt>
      <trkpt lat="41.638605460" lon="2.541458480">
        <ele>317.37</ele>
        <time>2015-05-31T05:42:37Z</time>
      </trkpt>
      <trkpt lat="41.638571090" lon="2.541683360">
        <ele>318.81</ele>
        <time>2015-05-31T05:42:47Z</time>
      </trkpt>
      <trkpt lat="41.638429100" lon="2.541887380">
        <ele>316.89</ele>
        <time>2015-05-31T05:42:53Z</time>
      </trkpt>
      <trkpt lat="41.638361380" lon="2.542035740">
        <ele>315.93</ele>
        <time>2015-05-31T05:42:56Z</time>
      </trkpt>
      <trkpt lat="41.638301530" lon="2.542401940">
        <ele>314.97</ele>
        <time>2015-05-31T05:43:03Z</time>
      </trkpt>
      <trkpt lat="41.638240010" lon="2.542560190">
        <ele>314.97</ele>
        <time>2015-05-31T05:43:08Z</time>
      </trkpt>
      <trkpt lat="41.638227690" lon="2.542590370">
        <ele>314.97</ele>
        <time>2015-05-31T05:43:09Z</time>
      </trkpt>
      <trkpt lat="41.638133310" lon="2.542761940">
        <ele>315.45</ele>
        <time>2015-05-31T05:43:16Z</time>
      </trkpt>
      <trkpt lat="41.638015290" lon="2.542855740">
        <ele>317.37</ele>
        <time>2015-05-31T05:43:23Z</time>
      </trkpt>
      <trkpt lat="41.638007240" lon="2.542862700">
        <ele>317.37</ele>
        <time>2015-05-31T05:43:24Z</time>
      </trkpt>
      <trkpt lat="41.638055690" lon="2.542948530">
        <ele>318.33</ele>
        <time>2015-05-31T05:43:29Z</time>
      </trkpt>
      <trkpt lat="41.638198430" lon="2.542860100">
        <ele>319.30</ele>
        <time>2015-05-31T05:43:37Z</time>
      </trkpt>
      <trkpt lat="41.638320390" lon="2.542766550">
        <ele>320.26</ele>
        <time>2015-05-31T05:43:45Z</time>
      </trkpt>
      <trkpt lat="41.638423570" lon="2.542626660">
        <ele>321.70</ele>
        <time>2015-05-31T05:43:54Z</time>
      </trkpt>
      <trkpt lat="41.638490120" lon="2.542451060">
        <ele>324.10</ele>
        <time>2015-05-31T05:44:02Z</time>
      </trkpt>
      <trkpt lat="41.638539740" lon="2.542260290">
        <ele>325.54</ele>
        <time>2015-05-31T05:44:10Z</time>
      </trkpt>
      <trkpt lat="41.638605790" lon="2.542077310">
        <ele>326.99</ele>
        <time>2015-05-31T05:44:17Z</time>
      </trkpt>
      <trkpt lat="41.638696150" lon="2.541807330">
        <ele>326.99</ele>
        <time>2015-05-31T05:44:26Z</time>
      </trkpt>
      <trkpt lat="41.638789440" lon="2.541649000">
        <ele>327.47</ele>
        <time>2015-05-31T05:44:33Z</time>
      </trkpt>
      <trkpt lat="41.638883490" lon="2.541554530">
        <ele>329.39</ele>
        <time>2015-05-31T05:44:40Z</time>
      </trkpt>
      <trkpt lat="41.639004770" lon="2.541349010">
        <ele>329.87</ele>
        <time>2015-05-31T05:44:48Z</time>
      </trkpt>
      <trkpt lat="41.639123960" lon="2.541111130">
        <ele>329.87</ele>
        <time>2015-05-31T05:44:56Z</time>
      </trkpt>
      <trkpt lat="41.639239550" lon="2.540998390">
        <ele>331.31</ele>
        <time>2015-05-31T05:45:03Z</time>
      </trkpt>
      <trkpt lat="41.639352370" lon="2.540906020">
        <ele>333.23</ele>
        <time>2015-05-31T05:45:11Z</time>
      </trkpt>
      <trkpt lat="41.639456720" lon="2.540751880">
        <ele>335.64</ele>
        <time>2015-05-31T05:45:20Z</time>
      </trkpt>
      <trkpt lat="41.639544820" lon="2.540577450">
        <ele>336.12</ele>
        <time>2015-05-31T05:45:27Z</time>
      </trkpt>
      <trkpt lat="41.639651100" lon="2.540371260">
        <ele>337.56</ele>
        <time>2015-05-31T05:45:36Z</time>
      </trkpt>
      <trkpt lat="41.639769540" lon="2.540251230">
        <ele>339.00</ele>
        <time>2015-05-31T05:45:45Z</time>
      </trkpt>
      <trkpt lat="41.639782700" lon="2.540233710">
        <ele>339.00</ele>
        <time>2015-05-31T05:45:46Z</time>
      </trkpt>
      <trkpt lat="41.639950920" lon="2.540025340">
        <ele>340.92</ele>
        <time>2015-05-31T05:45:58Z</time>
      </trkpt>
      <trkpt lat="41.640067600" lon="2.539866750">
        <ele>342.37</ele>
        <time>2015-05-31T05:46:06Z</time>
      </trkpt>
      <trkpt lat="41.640198270" lon="2.539713030">
        <ele>343.81</ele>
        <time>2015-05-31T05:46:15Z</time>
      </trkpt>
      <trkpt lat="41.640305810" lon="2.539585290">
        <ele>345.73</ele>
        <time>2015-05-31T05:46:24Z</time>
      </trkpt>
      <trkpt lat="41.640425590" lon="2.539439610">
        <ele>347.65</ele>
        <time>2015-05-31T05:46:34Z</time>
      </trkpt>
      <trkpt lat="41.640503120" lon="2.539351520">
        <ele>349.58</ele>
        <time>2015-05-31T05:46:41Z</time>
      </trkpt>
      <trkpt lat="41.640531030" lon="2.539291000">
        <ele>350.54</ele>
        <time>2015-05-31T05:46:45Z</time>
      </trkpt>
      <trkpt lat="41.640628350" lon="2.539178930">
        <ele>352.46</ele>
        <time>2015-05-31T05:46:54Z</time>
      </trkpt>
      <trkpt lat="41.640724820" lon="2.539018590">
        <ele>354.86</ele>
        <time>2015-05-31T05:47:05Z</time>
      </trkpt>
      <trkpt lat="41.640832190" lon="2.538887830">
        <ele>356.79</ele>
        <time>2015-05-31T05:47:15Z</time>
      </trkpt>
      <trkpt lat="41.640891710" lon="2.538847850">
        <ele>358.23</ele>
        <time>2015-05-31T05:47:20Z</time>
      </trkpt>
      <trkpt lat="41.640991950" lon="2.538729160">
        <ele>359.19</ele>
        <time>2015-05-31T05:47:29Z</time>
      </trkpt>
      <trkpt lat="41.641049620" lon="2.538600410">
        <ele>360.63</ele>
        <time>2015-05-31T05:47:36Z</time>
      </trkpt>
      <trkpt lat="41.641131260" lon="2.538432690">
        <ele>362.07</ele>
        <time>2015-05-31T05:47:46Z</time>
      </trkpt>
      <trkpt lat="41.641138300" lon="2.538415430">
        <ele>362.07</ele>
        <time>2015-05-31T05:47:47Z</time>
      </trkpt>
      <trkpt lat="41.641149950" lon="2.538278880">
        <ele>363.04</ele>
        <time>2015-05-31T05:47:55Z</time>
      </trkpt>
      <trkpt lat="41.641169400" lon="2.538192050">
        <ele>364.00</ele>
        <time>2015-05-31T05:48:00Z</time>
      </trkpt>
      <trkpt lat="41.641188680" lon="2.537998090">
        <ele>364.48</ele>
        <time>2015-05-31T05:48:09Z</time>
      </trkpt>
      <trkpt lat="41.641218600" lon="2.537745880">
        <ele>364.96</ele>
        <time>2015-05-31T05:48:19Z</time>
      </trkpt>
      <trkpt lat="41.641257910" lon="2.537512690">
        <ele>365.44</ele>
        <time>2015-05-31T05:48:27Z</time>
      </trkpt>
      <trkpt lat="41.641211220" lon="2.537147410">
        <ele>365.44</ele>
        <time>2015-05-31T05:48:35Z</time>
      </trkpt>
      <trkpt lat="41.641141150" lon="2.536858570">
        <ele>366.40</ele>
        <time>2015-05-31T05:48:42Z</time>
      </trkpt>
      <trkpt lat="41.641088850" lon="2.536586910">
        <ele>366.88</ele>
        <time>2015-05-31T05:48:49Z</time>
      </trkpt>
      <trkpt lat="41.641052810" lon="2.536241330">
        <ele>368.32</ele>
        <time>2015-05-31T05:48:58Z</time>
      </trkpt>
      <trkpt lat="41.641036630" lon="2.536000680">
        <ele>369.76</ele>
        <time>2015-05-31T05:49:07Z</time>
      </trkpt>
      <trkpt lat="41.641028500" lon="2.535793150">
        <ele>371.21</ele>
        <time>2015-05-31T05:49:15Z</time>
      </trkpt>
      <trkpt lat="41.641017770" lon="2.535619390">
        <ele>373.61</ele>
        <time>2015-05-31T05:49:22Z</time>
      </trkpt>
      <trkpt lat="41.641012740" lon="2.535549150">
        <ele>374.57</ele>
        <time>2015-05-31T05:49:25Z</time>
      </trkpt>
      <trkpt lat="41.641058170" lon="2.535525010">
        <ele>375.53</ele>
        <time>2015-05-31T05:49:30Z</time>
      </trkpt>
      <trkpt lat="41.641125900" lon="2.535697760">
        <ele>376.97</ele>
        <time>2015-05-31T05:49:38Z</time>
      </trkpt>
      <trkpt lat="41.641198230" lon="2.535910330">
        <ele>377.45</ele>
        <time>2015-05-31T05:49:46Z</time>
      </trkpt>
      <trkpt lat="41.641274420" lon="2.536151390">
        <ele>379.38</ele>
        <time>2015-05-31T05:49:56Z</time>
      </trkpt>
      <trkpt lat="41.641331670" lon="2.536396480">
        <ele>380.82</ele>
        <time>2015-05-31T05:50:06Z</time>
      </trkpt>
      <trkpt lat="41.641414900" lon="2.536655640">
        <ele>382.74</ele>
        <time>2015-05-31T05:50:16Z</time>
      </trkpt>
      <trkpt lat="41.641543480" lon="2.536829990">
        <ele>383.70</ele>
        <time>2015-05-31T05:50:25Z</time>
      </trkpt>
      <trkpt lat="41.641603920" lon="2.536993270">
        <ele>384.66</ele>
        <time>2015-05-31T05:50:32Z</time>
      </trkpt>
      <trkpt lat="41.641621850" lon="2.537055380">
        <ele>384.66</ele>
        <time>2015-05-31T05:50:34Z</time>
      </trkpt>
      <trkpt lat="41.641563770" lon="2.537339100">
        <ele>384.66</ele>
        <time>2015-05-31T05:50:41Z</time>
      </trkpt>
      <trkpt lat="41.641580200" lon="2.537587210">
        <ele>384.66</ele>
        <time>2015-05-31T05:50:47Z</time>
      </trkpt>
      <trkpt lat="41.641607690" lon="2.537921730">
        <ele>386.11</ele>
        <time>2015-05-31T05:50:56Z</time>
      </trkpt>
      <trkpt lat="41.641721600" lon="2.538205370">
        <ele>386.59</ele>
        <time>2015-05-31T05:51:04Z</time>
      </trkpt>
      <trkpt lat="41.641773570" lon="2.538292380">
        <ele>386.59</ele>
        <time>2015-05-31T05:51:06Z</time>
      </trkpt>
      <trkpt lat="41.641922010" lon="2.538443920">
        <ele>386.11</ele>
        <time>2015-05-31T05:51:10Z</time>
      </trkpt>
      <trkpt lat="41.642263740" lon="2.538550460">
        <ele>386.11</ele>
        <time>2015-05-31T05:51:18Z</time>
      </trkpt>
      <trkpt lat="41.642466410" lon="2.538588090">
        <ele>387.07</ele>
        <time>2015-05-31T05:51:24Z</time>
      </trkpt>
      <trkpt lat="41.642609410" lon="2.538724470">
        <ele>388.03</ele>
        <time>2015-05-31T05:51:29Z</time>
      </trkpt>
      <trkpt lat="41.642687110" lon="2.538792950">
        <ele>388.03</ele>
        <time>2015-05-31T05:51:31Z</time>
      </trkpt>
      <trkpt lat="41.642878640" lon="2.538944490">
        <ele>386.59</ele>
        <time>2015-05-31T05:51:35Z</time>
      </trkpt>
      <trkpt lat="41.643148780" lon="2.539072230">
        <ele>384.18</ele>
        <time>2015-05-31T05:51:40Z</time>
      </trkpt>
      <trkpt lat="41.643373670" lon="2.539336680">
        <ele>380.82</ele>
        <time>2015-05-31T05:51:45Z</time>
      </trkpt>
      <trkpt lat="41.643472160" lon="2.539441620">
        <ele>379.86</ele>
        <time>2015-05-31T05:51:47Z</time>
      </trkpt>
      <trkpt lat="41.643757810" lon="2.539591570">
        <ele>376.49</ele>
        <time>2015-05-31T05:51:51Z</time>
      </trkpt>
      <trkpt lat="41.643818500" lon="2.539628290">
        <ele>375.05</ele>
        <time>2015-05-31T05:51:52Z</time>
      </trkpt>
      <trkpt lat="41.643980860" lon="2.539800700">
        <ele>373.13</ele>
        <time>2015-05-31T05:51:55Z</time>
      </trkpt>
      <trkpt lat="41.644208840" lon="2.540120560">
        <ele>368.80</ele>
        <time>2015-05-31T05:52:00Z</time>
      </trkpt>
      <trkpt lat="41.644290900" lon="2.540303530">
        <ele>365.44</ele>
        <time>2015-05-31T05:52:04Z</time>
      </trkpt>
      <trkpt lat="41.644287380" lon="2.540391380">
        <ele>364.96</ele>
        <time>2015-05-31T05:52:06Z</time>
      </trkpt>
      <trkpt lat="41.644407660" lon="2.540478300">
        <ele>363.04</ele>
        <time>2015-05-31T05:52:10Z</time>
      </trkpt>
      <trkpt lat="41.644500620" lon="2.540395650">
        <ele>362.07</ele>
        <time>2015-05-31T05:52:12Z</time>
      </trkpt>
      <trkpt lat="41.644562230" lon="2.540183340">
        <ele>360.15</ele>
        <time>2015-05-31T05:52:15Z</time>
      </trkpt>
      <trkpt lat="41.644659040" lon="2.539863730">
        <ele>356.31</ele>
        <time>2015-05-31T05:52:19Z</time>
      </trkpt>
      <trkpt lat="41.644787030" lon="2.539880830">
        <ele>354.86</ele>
        <time>2015-05-31T05:52:22Z</time>
      </trkpt>
      <trkpt lat="41.645018700" lon="2.540011420">
        <ele>353.42</ele>
        <time>2015-05-31T05:52:26Z</time>
      </trkpt>
      <trkpt lat="41.645224980" lon="2.540110830">
        <ele>351.50</ele>
        <time>2015-05-31T05:52:29Z</time>
      </trkpt>
      <trkpt lat="41.645361270" lon="2.540151230">
        <ele>350.54</ele>
        <time>2015-05-31T05:52:31Z</time>
      </trkpt>
      <trkpt lat="41.645489520" lon="2.540164560">
        <ele>348.62</ele>
        <time>2015-05-31T05:52:33Z</time>
      </trkpt>
      <trkpt lat="41.645745920" lon="2.540273530">
        <ele>348.13</ele>
        <time>2015-05-31T05:52:37Z</time>
      </trkpt>
      <trkpt lat="41.645904670" lon="2.540361200">
        <ele>349.58</ele>
        <time>2015-05-31T05:52:42Z</time>
      </trkpt>
      <trkpt lat="41.646011460" lon="2.540548280">
        <ele>351.98</ele>
        <time>2015-05-31T05:52:50Z</time>
      </trkpt>
      <trkpt lat="41.646152780" lon="2.540663370">
        <ele>353.90</ele>
        <time>2015-05-31T05:52:59Z</time>
      </trkpt>
      <trkpt lat="41.646286470" lon="2.540724810">
        <ele>355.83</ele>
        <time>2015-05-31T05:53:07Z</time>
      </trkpt>
      <trkpt lat="41.646425020" lon="2.540776690">
        <ele>358.71</ele>
        <time>2015-05-31T05:53:16Z</time>
      </trkpt>
      <trkpt lat="41.646535830" lon="2.540826140">
        <ele>361.11</ele>
        <time>2015-05-31T05:53:24Z</time>
      </trkpt>
      <trkpt lat="41.646694410" lon="2.540848360">
        <ele>364.00</ele>
        <time>2015-05-31T05:53:34Z</time>
      </trkpt>
      <trkpt lat="41.646864230" lon="2.540789770">
        <ele>365.44</ele>
        <time>2015-05-31T05:53:44Z</time>
      </trkpt>
      <trkpt lat="41.647003200" lon="2.540794800">
        <ele>365.92</ele>
        <time>2015-05-31T05:53:51Z</time>
      </trkpt>
      <trkpt lat="41.647160620" lon="2.540778450">
        <ele>366.88</ele>
        <time>2015-05-31T05:53:58Z</time>
      </trkpt>
      <trkpt lat="41.647306710" lon="2.540789180">
        <ele>367.36</ele>
        <time>2015-05-31T05:54:05Z</time>
      </trkpt>
      <trkpt lat="41.647461610" lon="2.540840230">
        <ele>370.24</ele>
        <time>2015-05-31T05:54:14Z</time>
      </trkpt>
      <trkpt lat="41.647587760" lon="2.540934350">
        <ele>372.65</ele>
        <time>2015-05-31T05:54:23Z</time>
      </trkpt>
      <trkpt lat="41.647710800" lon="2.541065620">
        <ele>374.57</ele>
        <time>2015-05-31T05:54:33Z</time>
      </trkpt>
      <trkpt lat="41.647834770" lon="2.541172650">
        <ele>376.49</ele>
        <time>2015-05-31T05:54:42Z</time>
      </trkpt>
      <trkpt lat="41.647958820" lon="2.541259570">
        <ele>377.94</ele>
        <time>2015-05-31T05:54:51Z</time>
      </trkpt>
      <trkpt lat="41.648120930" lon="2.541293270">
        <ele>379.38</ele>
        <time>2015-05-31T05:55:01Z</time>
      </trkpt>
      <trkpt lat="41.648329140" lon="2.541372900">
        <ele>380.82</ele>
        <time>2015-05-31T05:55:11Z</time>
      </trkpt>
      <trkpt lat="41.648535160" lon="2.541416230">
        <ele>382.26</ele>
        <time>2015-05-31T05:55:21Z</time>
      </trkpt>
      <trkpt lat="41.648721410" lon="2.541446070">
        <ele>383.22</ele>
        <time>2015-05-31T05:55:29Z</time>
      </trkpt>
      <trkpt lat="41.648909250" lon="2.541554280">
        <ele>384.66</ele>
        <time>2015-05-31T05:55:38Z</time>
      </trkpt>
      <trkpt lat="41.649034890" lon="2.541774140">
        <ele>385.63</ele>
        <time>2015-05-31T05:55:47Z</time>
      </trkpt>
      <trkpt lat="41.649051490" lon="2.542073710">
        <ele>386.59</ele>
        <time>2015-05-31T05:55:56Z</time>
      </trkpt>
      <trkpt lat="41.649040930" lon="2.542302780">
        <ele>387.55</ele>
        <time>2015-05-31T05:56:03Z</time>
      </trkpt>
      <trkpt lat="41.649097920" lon="2.542574020">
        <ele>388.51</ele>
        <time>2015-05-31T05:56:11Z</time>
      </trkpt>
      <trkpt lat="41.649202110" lon="2.542872170">
        <ele>389.47</ele>
        <time>2015-05-31T05:56:19Z</time>
      </trkpt>
      <trkpt lat="41.649303700" lon="2.543179950">
        <ele>390.43</ele>
        <time>2015-05-31T05:56:27Z</time>
      </trkpt>
      <trkpt lat="41.649346360" lon="2.543423530">
        <ele>391.87</ele>
        <time>2015-05-31T05:56:34Z</time>
      </trkpt>
      <trkpt lat="41.649413840" lon="2.543747910">
        <ele>393.32</ele>
        <time>2015-05-31T05:56:43Z</time>
      </trkpt>
      <trkpt lat="41.649425320" lon="2.544012780">
        <ele>394.76</ele>
        <time>2015-05-31T05:56:50Z</time>
      </trkpt>
      <trkpt lat="41.649481900" lon="2.544312350">
        <ele>396.20</ele>
        <time>2015-05-31T05:56:58Z</time>
      </trkpt>
      <trkpt lat="41.649586760" lon="2.544473110">
        <ele>396.68</ele>
        <time>2015-05-31T05:57:03Z</time>
      </trkpt>
      <trkpt lat="41.649740400" lon="2.544699590">
        <ele>398.60</ele>
        <time>2015-05-31T05:57:11Z</time>
      </trkpt>
      <trkpt lat="41.649898560" lon="2.544737310">
        <ele>399.08</ele>
        <time>2015-05-31T05:57:17Z</time>
      </trkpt>
      <trkpt lat="41.650101830" lon="2.544645690">
        <ele>401.49</ele>
        <time>2015-05-31T05:57:26Z</time>
      </trkpt>
      <trkpt lat="41.650290590" lon="2.544645020">
        <ele>402.45</ele>
        <time>2015-05-31T05:57:34Z</time>
      </trkpt>
      <trkpt lat="41.650512370" lon="2.544696150">
        <ele>403.89</ele>
        <time>2015-05-31T05:57:43Z</time>
      </trkpt>
      <trkpt lat="41.650678330" lon="2.544793220">
        <ele>405.33</ele>
        <time>2015-05-31T05:57:51Z</time>
      </trkpt>
      <trkpt lat="41.650803060" lon="2.544922210">
        <ele>407.26</ele>
        <time>2015-05-31T05:58:00Z</time>
      </trkpt>
      <trkpt lat="41.650941110" lon="2.545042740">
        <ele>408.70</ele>
        <time>2015-05-31T05:58:09Z</time>
      </trkpt>
      <trkpt lat="41.651140590" lon="2.545017770">
        <ele>410.14</ele>
        <time>2015-05-31T05:58:19Z</time>
      </trkpt>
      <trkpt lat="41.651294490" lon="2.544929340">
        <ele>411.58</ele>
        <time>2015-05-31T05:58:28Z</time>
      </trkpt>
      <trkpt lat="41.651455080" lon="2.544948700">
        <ele>413.50</ele>
        <time>2015-05-31T05:58:37Z</time>
      </trkpt>
      <trkpt lat="41.651596070" lon="2.544974260">
        <ele>415.43</ele>
        <time>2015-05-31T05:58:45Z</time>
      </trkpt>
      <trkpt lat="41.651714590" lon="2.544896560">
        <ele>416.87</ele>
        <time>2015-05-31T05:58:52Z</time>
      </trkpt>
      <trkpt lat="41.651831100" lon="2.544765220">
        <ele>418.31</ele>
        <time>2015-05-31T05:59:01Z</time>
      </trkpt>
      <trkpt lat="41.651933350" lon="2.544680390">
        <ele>420.23</ele>
        <time>2015-05-31T05:59:09Z</time>
      </trkpt>
      <trkpt lat="41.652035610" lon="2.544608730">
        <ele>422.64</ele>
        <time>2015-05-31T05:59:17Z</time>
      </trkpt>
      <trkpt lat="41.652208030" lon="2.544504120">
        <ele>425.04</ele>
        <time>2015-05-31T05:59:29Z</time>
      </trkpt>
      <trkpt lat="41.652376340" lon="2.544471600">
        <ele>425.52</ele>
        <time>2015-05-31T05:59:39Z</time>
      </trkpt>
      <trkpt lat="41.652521010" lon="2.544442350">
        <ele>426.48</ele>
        <time>2015-05-31T05:59:47Z</time>
      </trkpt>
      <trkpt lat="41.652673730" lon="2.544439920">
        <ele>427.44</ele>
        <time>2015-05-31T05:59:56Z</time>
      </trkpt>
      <trkpt lat="41.652848490" lon="2.544436730">
        <ele>428.89</ele>
        <time>2015-05-31T06:00:06Z</time>
      </trkpt>
      <trkpt lat="41.652997860" lon="2.544414440">
        <ele>430.81</ele>
        <time>2015-05-31T06:00:16Z</time>
      </trkpt>
      <trkpt lat="41.653132390" lon="2.544374710">
        <ele>432.25</ele>
        <time>2015-05-31T06:00:25Z</time>
      </trkpt>
      <trkpt lat="41.653246800" lon="2.544337320">
        <ele>433.69</ele>
        <time>2015-05-31T06:00:33Z</time>
      </trkpt>
      <trkpt lat="41.653350650" lon="2.544335310">
        <ele>436.10</ele>
        <time>2015-05-31T06:00:41Z</time>
      </trkpt>
      <trkpt lat="41.653439000" lon="2.544405220">
        <ele>437.06</ele>
        <time>2015-05-31T06:00:48Z</time>
      </trkpt>
      <trkpt lat="41.653530610" lon="2.544490540">
        <ele>438.50</ele>
        <time>2015-05-31T06:00:56Z</time>
      </trkpt>
      <trkpt lat="41.653640660" lon="2.544588190">
        <ele>440.42</ele>
        <time>2015-05-31T06:01:05Z</time>
      </trkpt>
      <trkpt lat="41.653771510" lon="2.544677040">
        <ele>442.34</ele>
        <time>2015-05-31T06:01:15Z</time>
      </trkpt>
      <trkpt lat="41.653882060" lon="2.544711990">
        <ele>444.75</ele>
        <time>2015-05-31T06:01:24Z</time>
      </trkpt>
      <trkpt lat="41.653978120" lon="2.544759860">
        <ele>447.15</ele>
        <time>2015-05-31T06:01:33Z</time>
      </trkpt>
      <trkpt lat="41.654093290" lon="2.544825070">
        <ele>450.03</ele>
        <time>2015-05-31T06:01:44Z</time>
      </trkpt>
      <trkpt lat="41.654178700" lon="2.544879470">
        <ele>452.44</ele>
        <time>2015-05-31T06:01:52Z</time>
      </trkpt>
      <trkpt lat="41.654253550" lon="2.544933190">
        <ele>454.36</ele>
        <time>2015-05-31T06:01:59Z</time>
      </trkpt>
      <trkpt lat="41.654381290" lon="2.544995810">
        <ele>456.76</ele>
        <time>2015-05-31T06:02:09Z</time>
      </trkpt>
      <trkpt lat="41.654509870" lon="2.545056070">
        <ele>458.69</ele>
        <time>2015-05-31T06:02:20Z</time>
      </trkpt>
      <trkpt lat="41.654615230" lon="2.545113400">
        <ele>461.57</ele>
        <time>2015-05-31T06:02:30Z</time>
      </trkpt>
      <trkpt lat="41.654703740" lon="2.545148690">
        <ele>463.49</ele>
        <time>2015-05-31T06:02:38Z</time>
      </trkpt>
      <trkpt lat="41.654786640" lon="2.545159090">
        <ele>465.42</ele>
        <time>2015-05-31T06:02:46Z</time>
      </trkpt>
      <trkpt lat="41.654885710" lon="2.545172920">
        <ele>467.34</ele>
        <time>2015-05-31T06:02:54Z</time>
      </trkpt>
      <trkpt lat="41.654991490" lon="2.545165710">
        <ele>468.78</ele>
        <time>2015-05-31T06:03:02Z</time>
      </trkpt>
      <trkpt lat="41.655111690" lon="2.545110890">
        <ele>470.22</ele>
        <time>2015-05-31T06:03:11Z</time>
      </trkpt>
      <trkpt lat="41.655220320" lon="2.545050790">
        <ele>471.18</ele>
        <time>2015-05-31T06:03:20Z</time>
      </trkpt>
      <trkpt lat="41.655364490" lon="2.545076690">
        <ele>473.11</ele>
        <time>2015-05-31T06:03:29Z</time>
      </trkpt>
      <trkpt lat="41.655453590" lon="2.545149530">
        <ele>473.59</ele>
        <time>2015-05-31T06:03:36Z</time>
      </trkpt>
      <trkpt lat="41.655509580" lon="2.545279530">
        <ele>474.55</ele>
        <time>2015-05-31T06:03:45Z</time>
      </trkpt>
      <trkpt lat="41.655561880" lon="2.545382460">
        <ele>475.99</ele>
        <time>2015-05-31T06:03:53Z</time>
      </trkpt>
      <trkpt lat="41.655662130" lon="2.545482460">
        <ele>477.91</ele>
        <time>2015-05-31T06:04:03Z</time>
      </trkpt>
      <trkpt lat="41.655737480" lon="2.545551950">
        <ele>479.84</ele>
        <time>2015-05-31T06:04:11Z</time>
      </trkpt>
      <trkpt lat="41.655846190" lon="2.545639620">
        <ele>481.76</ele>
        <time>2015-05-31T06:04:20Z</time>
      </trkpt>
      <trkpt lat="41.655966980" lon="2.545690080">
        <ele>482.72</ele>
        <time>2015-05-31T06:04:28Z</time>
      </trkpt>
      <trkpt lat="41.656117770" lon="2.545678090">
        <ele>483.20</ele>
        <time>2015-05-31T06:04:36Z</time>
      </trkpt>
      <trkpt lat="41.656323540" lon="2.545670300">
        <ele>483.68</ele>
        <time>2015-05-31T06:04:43Z</time>
      </trkpt>
      <trkpt lat="41.656627220" lon="2.545704660">
        <ele>483.68</ele>
        <time>2015-05-31T06:04:52Z</time>
      </trkpt>
      <trkpt lat="41.656875740" lon="2.545742880">
        <ele>484.16</ele>
        <time>2015-05-31T06:04:59Z</time>
      </trkpt>
      <trkpt lat="41.657116470" lon="2.545709780">
        <ele>485.12</ele>
        <time>2015-05-31T06:05:06Z</time>
      </trkpt>
      <trkpt lat="41.657394920" lon="2.545622020">
        <ele>485.12</ele>
        <time>2015-05-31T06:05:12Z</time>
      </trkpt>
      <trkpt lat="41.657559960" lon="2.545518670">
        <ele>483.68</ele>
        <time>2015-05-31T06:05:15Z</time>
      </trkpt>
      <trkpt lat="41.657843350" lon="2.545314320">
        <ele>482.72</ele>
        <time>2015-05-31T06:05:20Z</time>
      </trkpt>
      <trkpt lat="41.657967240" lon="2.545377850">
        <ele>482.72</ele>
        <time>2015-05-31T06:05:23Z</time>
      </trkpt>
      <trkpt lat="41.657993050" lon="2.545399980">
        <ele>482.72</ele>
        <time>2015-05-31T06:05:24Z</time>
      </trkpt>
      <trkpt lat="41.658037060" lon="2.545436950">
        <ele>484.16</ele>
        <time>2015-05-31T06:05:26Z</time>
      </trkpt>
      <trkpt lat="41.658160770" lon="2.545573650">
        <ele>485.12</ele>
        <time>2015-05-31T06:05:32Z</time>
      </trkpt>
      <trkpt lat="41.658258260" lon="2.545631820">
        <ele>485.12</ele>
        <time>2015-05-31T06:05:35Z</time>
      </trkpt>
      <trkpt lat="41.658594540" lon="2.545775070">
        <ele>482.72</ele>
        <time>2015-05-31T06:05:41Z</time>
      </trkpt>
      <trkpt lat="41.658758320" lon="2.545721010">
        <ele>480.80</ele>
        <time>2015-05-31T06:05:44Z</time>
      </trkpt>
      <trkpt lat="41.658832750" lon="2.545622520">
        <ele>480.80</ele>
        <time>2015-05-31T06:05:46Z</time>
      </trkpt>
      <trkpt lat="41.659058980" lon="2.545312220">
        <ele>480.80</ele>
        <time>2015-05-31T06:05:53Z</time>
      </trkpt>
      <trkpt lat="41.659256040" lon="2.545220610">
        <ele>482.24</ele>
        <time>2015-05-31T06:05:59Z</time>
      </trkpt>
      <trkpt lat="41.659283780" lon="2.545208290">
        <ele>482.24</ele>
        <time>2015-05-31T06:06:00Z</time>
      </trkpt>
      <trkpt lat="41.659526600" lon="2.545095220">
        <ele>484.16</ele>
        <time>2015-05-31T06:06:09Z</time>
      </trkpt>
      <trkpt lat="41.659724330" lon="2.544984410">
        <ele>484.64</ele>
        <time>2015-05-31T06:06:16Z</time>
      </trkpt>
      <trkpt lat="41.659946450" lon="2.544984830">
        <ele>483.68</ele>
        <time>2015-05-31T06:06:20Z</time>
      </trkpt>
      <trkpt lat="41.660078890" lon="2.544965550">
        <ele>483.20</ele>
        <time>2015-05-31T06:06:22Z</time>
      </trkpt>
      <trkpt lat="41.660434870" lon="2.544706710">
        <ele>480.80</ele>
        <time>2015-05-31T06:06:27Z</time>
      </trkpt>
      <trkpt lat="41.660800910" lon="2.544566740">
        <ele>478.87</ele>
        <time>2015-05-31T06:06:32Z</time>
      </trkpt>
      <trkpt lat="41.661023360" lon="2.544657260">
        <ele>478.39</ele>
        <time>2015-05-31T06:06:36Z</time>
      </trkpt>
      <trkpt lat="41.661143980" lon="2.544548380">
        <ele>477.91</ele>
        <time>2015-05-31T06:06:39Z</time>
      </trkpt>
      <trkpt lat="41.661168120" lon="2.544496330">
        <ele>477.91</ele>
        <time>2015-05-31T06:06:40Z</time>
      </trkpt>
      <trkpt lat="41.661269450" lon="2.544221400">
        <ele>480.32</ele>
        <time>2015-05-31T06:06:47Z</time>
      </trkpt>
      <trkpt lat="41.661231150" lon="2.544036660">
        <ele>482.24</ele>
        <time>2015-05-31T06:06:53Z</time>
      </trkpt>
      <trkpt lat="41.661139870" lon="2.543827790">
        <ele>484.16</ele>
        <time>2015-05-31T06:07:00Z</time>
      </trkpt>
      <trkpt lat="41.660981120" lon="2.543568280">
        <ele>484.16</ele>
        <time>2015-05-31T06:07:09Z</time>
      </trkpt>
      <trkpt lat="41.660912720" lon="2.543487310">
        <ele>484.16</ele>
        <time>2015-05-31T06:07:12Z</time>
      </trkpt>
      <trkpt lat="41.660902330" lon="2.543301660">
        <ele>482.72</ele>
        <time>2015-05-31T06:07:15Z</time>
      </trkpt>
      <trkpt lat="41.661057730" lon="2.543096470">
        <ele>480.32</ele>
        <time>2015-05-31T06:07:18Z</time>
      </trkpt>
      <trkpt lat="41.661215640" lon="2.542990270">
        <ele>478.39</ele>
        <time>2015-05-31T06:07:20Z</time>
      </trkpt>
      <trkpt lat="41.661472380" lon="2.542703610">
        <ele>472.63</ele>
        <time>2015-05-31T06:07:25Z</time>
      </trkpt>
      <trkpt lat="41.661566260" lon="2.542549380">
        <ele>470.70</ele>
        <time>2015-05-31T06:07:29Z</time>
      </trkpt>
      <trkpt lat="41.661635910" lon="2.542641830">
        <ele>471.18</ele>
        <time>2015-05-31T06:07:33Z</time>
      </trkpt>
      <trkpt lat="41.661654940" lon="2.542696900">
        <ele>472.63</ele>
        <time>2015-05-31T06:07:36Z</time>
      </trkpt>
      <trkpt lat="41.661686790" lon="2.542780300">
        <ele>473.59</ele>
        <time>2015-05-31T06:07:43Z</time>
      </trkpt>
      <trkpt lat="41.661688800" lon="2.542796650">
        <ele>473.59</ele>
        <time>2015-05-31T06:07:55Z</time>
      </trkpt>
      <trkpt lat="41.661698360" lon="2.542824390">
        <ele>474.07</ele>
        <time>2015-05-31T06:08:13Z</time>
      </trkpt>
      <trkpt lat="41.661714370" lon="2.542835120">
        <ele>474.07</ele>
        <time>2015-05-31T06:08:14Z</time>
      </trkpt>
      <trkpt lat="41.661853670" lon="2.542983140">
        <ele>472.63</ele>
        <time>2015-05-31T06:08:20Z</time>
      </trkpt>
      <trkpt lat="41.661913100" lon="2.543035530">
        <ele>472.14</ele>
        <time>2015-05-31T06:08:22Z</time>
      </trkpt>
      <trkpt lat="41.661974710" lon="2.543118260">
        <ele>471.66</ele>
        <time>2015-05-31T06:08:24Z</time>
      </trkpt>
      <trkpt lat="41.662144860" lon="2.543239380">
        <ele>471.18</ele>
        <time>2015-05-31T06:08:28Z</time>
      </trkpt>
      <trkpt lat="41.662290200" lon="2.543357900">
        <ele>471.18</ele>
        <time>2015-05-31T06:08:33Z</time>
      </trkpt>
      <trkpt lat="41.662306800" lon="2.543416490">
        <ele>471.18</ele>
        <time>2015-05-31T06:08:34Z</time>
      </trkpt>
      <trkpt lat="41.662380140" lon="2.543630650">
        <ele>468.78</ele>
        <time>2015-05-31T06:08:38Z</time>
      </trkpt>
      <trkpt lat="41.662521460" lon="2.543714460">
        <ele>466.86</ele>
        <time>2015-05-31T06:08:41Z</time>
      </trkpt>
      <trkpt lat="41.662704690" lon="2.543977660">
        <ele>464.45</ele>
        <time>2015-05-31T06:08:46Z</time>
      </trkpt>
      <trkpt lat="41.662744080" lon="2.544111430">
        <ele>462.05</ele>
        <time>2015-05-31T06:08:48Z</time>
      </trkpt>
      <trkpt lat="41.662870650" lon="2.544299520">
        <ele>459.17</ele>
        <time>2015-05-31T06:08:52Z</time>
      </trkpt>
      <trkpt lat="41.662969220" lon="2.544203210">
        <ele>458.21</ele>
        <time>2015-05-31T06:08:55Z</time>
      </trkpt>
      <trkpt lat="41.663010710" lon="2.544099860">
        <ele>456.28</ele>
        <time>2015-05-31T06:08:57Z</time>
      </trkpt>
      <trkpt lat="41.663106010" lon="2.543986040">
        <ele>454.36</ele>
        <time>2015-05-31T06:09:00Z</time>
      </trkpt>
      <trkpt lat="41.663248000" lon="2.544032640">
        <ele>452.44</ele>
        <time>2015-05-31T06:09:04Z</time>
      </trkpt>
      <trkpt lat="41.663270550" lon="2.544067170">
        <ele>451.96</ele>
        <time>2015-05-31T06:09:05Z</time>
      </trkpt>
      <trkpt lat="41.663306590" lon="2.544137420">
        <ele>450.52</ele>
        <time>2015-05-31T06:09:07Z</time>
      </trkpt>
      <trkpt lat="41.663362670" lon="2.544179490">
        <ele>449.55</ele>
        <time>2015-05-31T06:09:09Z</time>
      </trkpt>
      <trkpt lat="41.663481190" lon="2.544123670">
        <ele>449.07</ele>
        <time>2015-05-31T06:09:12Z</time>
      </trkpt>
      <trkpt lat="41.663539690" lon="2.544059460">
        <ele>449.07</ele>
        <time>2015-05-31T06:09:14Z</time>
      </trkpt>
      <trkpt lat="41.663657040" lon="2.543983610">
        <ele>449.07</ele>
        <time>2015-05-31T06:09:17Z</time>
      </trkpt>
      <trkpt lat="41.663849490" lon="2.543864000">
        <ele>449.07</ele>
        <time>2015-05-31T06:09:23Z</time>
      </trkpt>
      <trkpt lat="41.664010080" lon="2.543794090">
        <ele>450.52</ele>
        <time>2015-05-31T06:09:28Z</time>
      </trkpt>
      <trkpt lat="41.664150900" lon="2.543563000">
        <ele>450.52</ele>
        <time>2015-05-31T06:09:34Z</time>
      </trkpt>
      <trkpt lat="41.664358940" lon="2.543203340">
        <ele>450.52</ele>
        <time>2015-05-31T06:09:42Z</time>
      </trkpt>
      <trkpt lat="41.664546020" lon="2.543183890">
        <ele>451.96</ele>
        <time>2015-05-31T06:09:48Z</time>
      </trkpt>
      <trkpt lat="41.664646270" lon="2.543218000">
        <ele>452.44</ele>
        <time>2015-05-31T06:09:51Z</time>
      </trkpt>
      <trkpt lat="41.664705360" lon="2.543295870">
        <ele>452.44</ele>
        <time>2015-05-31T06:09:53Z</time>
      </trkpt>
      <trkpt lat="41.664887170" lon="2.543422940">
        <ele>450.52</ele>
        <time>2015-05-31T06:09:57Z</time>
      </trkpt>
      <trkpt lat="41.665089840" lon="2.543432410">
        <ele>449.07</ele>
        <time>2015-05-31T06:10:01Z</time>
      </trkpt>
      <trkpt lat="41.665168880" lon="2.543611120">
        <ele>447.15</ele>
        <time>2015-05-31T06:10:05Z</time>
      </trkpt>
      <trkpt lat="41.665265950" lon="2.543806750">
        <ele>446.19</ele>
        <time>2015-05-31T06:10:08Z</time>
      </trkpt>
      <trkpt lat="41.665512540" lon="2.543979840">
        <ele>445.23</ele>
        <time>2015-05-31T06:10:13Z</time>
      </trkpt>
      <trkpt lat="41.665546910" lon="2.544019980">
        <ele>445.23</ele>
        <time>2015-05-31T06:10:14Z</time>
      </trkpt>
      <trkpt lat="41.665707170" lon="2.544199530">
        <ele>445.71</ele>
        <time>2015-05-31T06:10:20Z</time>
      </trkpt>
      <trkpt lat="41.665899870" lon="2.544315360">
        <ele>445.71</ele>
        <time>2015-05-31T06:10:25Z</time>
      </trkpt>
      <trkpt lat="41.666023500" lon="2.544342020">
        <ele>445.71</ele>
        <time>2015-05-31T06:10:28Z</time>
      </trkpt>
      <trkpt lat="41.666138750" lon="2.544513930">
        <ele>444.75</ele>
        <time>2015-05-31T06:10:32Z</time>
      </trkpt>
      <trkpt lat="41.666204470" lon="2.544652150">
        <ele>444.27</ele>
        <time>2015-05-31T06:10:34Z</time>
      </trkpt>
      <trkpt lat="41.666373870" lon="2.544777040">
        <ele>443.79</ele>
        <time>2015-05-31T06:10:38Z</time>
      </trkpt>
      <trkpt lat="41.666651640" lon="2.544900170">
        <ele>444.75</ele>
        <time>2015-05-31T06:10:46Z</time>
      </trkpt>
      <trkpt lat="41.666884910" lon="2.544983150">
        <ele>446.19</ele>
        <time>2015-05-31T06:10:54Z</time>
      </trkpt>
      <trkpt lat="41.667042490" lon="2.545020950">
        <ele>446.67</ele>
        <time>2015-05-31T06:10:59Z</time>
      </trkpt>
      <trkpt lat="41.667120360" lon="2.545266120">
        <ele>446.67</ele>
        <time>2015-05-31T06:11:04Z</time>
      </trkpt>
      <trkpt lat="41.667213310" lon="2.545334350">
        <ele>445.71</ele>
        <time>2015-05-31T06:11:07Z</time>
      </trkpt>
      <trkpt lat="41.667470390" lon="2.545343240">
        <ele>446.67</ele>
        <time>2015-05-31T06:11:15Z</time>
      </trkpt>
      <trkpt lat="41.667501480" lon="2.545353130">
        <ele>446.67</ele>
        <time>2015-05-31T06:11:16Z</time>
      </trkpt>
      <trkpt lat="41.667757550" lon="2.545412890">
        <ele>449.07</ele>
        <time>2015-05-31T06:11:25Z</time>
      </trkpt>
      <trkpt lat="41.667941780" lon="2.545511880">
        <ele>450.52</ele>
        <time>2015-05-31T06:11:31Z</time>
      </trkpt>
      <trkpt lat="41.668097100" lon="2.545607940">
        <ele>451.48</ele>
        <time>2015-05-31T06:11:38Z</time>
      </trkpt>
      <trkpt lat="41.668227270" lon="2.545554210">
        <ele>452.92</ele>
        <time>2015-05-31T06:11:44Z</time>
      </trkpt>
      <trkpt lat="41.668373540" lon="2.545479690">
        <ele>454.84</ele>
        <time>2015-05-31T06:11:51Z</time>
      </trkpt>
      <trkpt lat="41.668557600" lon="2.545415490">
        <ele>456.76</ele>
        <time>2015-05-31T06:11:59Z</time>
      </trkpt>
      <trkpt lat="41.668625830" lon="2.545397720">
        <ele>457.24</ele>
        <time>2015-05-31T06:12:02Z</time>
      </trkpt>
      <trkpt lat="41.668766730" lon="2.545494610">
        <ele>457.72</ele>
        <time>2015-05-31T06:12:09Z</time>
      </trkpt>
      <trkpt lat="41.668922220" lon="2.545749670">
        <ele>456.28</ele>
        <time>2015-05-31T06:12:15Z</time>
      </trkpt>
      <trkpt lat="41.669069740" lon="2.545939190">
        <ele>456.28</ele>
        <time>2015-05-31T06:12:21Z</time>
      </trkpt>
      <trkpt lat="41.669264700" lon="2.546087210">
        <ele>457.72</ele>
        <time>2015-05-31T06:12:28Z</time>
      </trkpt>
      <trkpt lat="41.669604330" lon="2.546082180">
        <ele>455.32</ele>
        <time>2015-05-31T06:12:34Z</time>
      </trkpt>
      <trkpt lat="41.669718160" lon="2.546051510">
        <ele>454.36</ele>
        <time>2015-05-31T06:12:36Z</time>
      </trkpt>
      <trkpt lat="41.669844640" lon="2.546045970">
        <ele>453.40</ele>
        <time>2015-05-31T06:12:38Z</time>
      </trkpt>
      <trkpt lat="41.670039770" lon="2.546028710">
        <ele>452.90</ele>
        <time>2015-05-31T06:12:41Z</time>
      </trkpt>
      <trkpt lat="41.670343620" lon="2.545953940">
        <ele>451.50</ele>
        <time>2015-05-31T06:12:46Z</time>
      </trkpt>
      <trkpt lat="41.670390050" lon="2.545976990">
        <ele>451.50</ele>
        <time>2015-05-31T06:12:47Z</time>
      </trkpt>
      <trkpt lat="41.670642430" lon="2.546008090">
        <ele>450.50</ele>
        <time>2015-05-31T06:12:52Z</time>
      </trkpt>
      <trkpt lat="41.670748300" lon="2.545966850">
        <ele>450.00</ele>
        <time>2015-05-31T06:12:54Z</time>
      </trkpt>
      <trkpt lat="41.670958510" lon="2.546021250">
        <ele>448.10</ele>
        <time>2015-05-31T06:12:59Z</time>
      </trkpt>
      <trkpt lat="41.671140650" lon="2.546132890">
        <ele>446.70</ele>
        <time>2015-05-31T06:13:04Z</time>
      </trkpt>
      <trkpt lat="41.671277780" lon="2.546175810">
        <ele>444.80</ele>
        <time>2015-05-31T06:13:07Z</time>
      </trkpt>
      <trkpt lat="41.671488590" lon="2.546289050">
        <ele>441.40</ele>
        <time>2015-05-31T06:13:13Z</time>
      </trkpt>
      <trkpt lat="41.671559160" lon="2.546280250">
        <ele>440.40</ele>
        <time>2015-05-31T06:13:15Z</time>
      </trkpt>
      <trkpt lat="41.671643320" lon="2.546283600">
        <ele>439.90</ele>
        <time>2015-05-31T06:13:17Z</time>
      </trkpt>
      <trkpt lat="41.671752870" lon="2.546237750">
        <ele>438.00</ele>
        <time>2015-05-31T06:13:20Z</time>
      </trkpt>
      <trkpt lat="41.671902990" lon="2.546007080">
        <ele>437.10</ele>
        <time>2015-05-31T06:13:26Z</time>
      </trkpt>
      <trkpt lat="41.671914220" lon="2.545962910">
        <ele>436.10</ele>
        <time>2015-05-31T06:13:27Z</time>
      </trkpt>
      <trkpt lat="41.671949420" lon="2.545846070">
        <ele>435.60</ele>
        <time>2015-05-31T06:13:30Z</time>
      </trkpt>
      <trkpt lat="41.672080260" lon="2.545733500">
        <ele>433.70</ele>
        <time>2015-05-31T06:13:36Z</time>
      </trkpt>
      <trkpt lat="41.672224180" lon="2.545608190">
        <ele>433.20</ele>
        <time>2015-05-31T06:13:42Z</time>
      </trkpt>
      <trkpt lat="41.672279170" lon="2.545635090">
        <ele>432.70</ele>
        <time>2015-05-31T06:13:46Z</time>
      </trkpt>
      <trkpt lat="41.672266590" lon="2.545655040">
        <ele>432.70</ele>
        <time>2015-05-31T06:13:47Z</time>
      </trkpt>
      <trkpt lat="41.672214630" lon="2.545715060">
        <ele>431.30</ele>
        <time>2015-05-31T06:13:49Z</time>
      </trkpt>
      <trkpt lat="41.672157630" lon="2.545803820">
        <ele>430.30</ele>
        <time>2015-05-31T06:13:51Z</time>
      </trkpt>
      <trkpt lat="41.672087560" lon="2.545979930">
        <ele>429.90</ele>
        <time>2015-05-31T06:13:54Z</time>
      </trkpt>
      <trkpt lat="41.672060900" lon="2.546108000">
        <ele>429.40</ele>
        <time>2015-05-31T06:13:56Z</time>
      </trkpt>
      <trkpt lat="41.671981860" lon="2.546481000">
        <ele>427.90</ele>
        <time>2015-05-31T06:14:03Z</time>
      </trkpt>
      <trkpt lat="41.671965100" lon="2.546524920">
        <ele>427.00</ele>
        <time>2015-05-31T06:14:04Z</time>
      </trkpt>
      <trkpt lat="41.671913130" lon="2.546616610">
        <ele>426.00</ele>
        <time>2015-05-31T06:14:06Z</time>
      </trkpt>
      <trkpt lat="41.671821350" lon="2.546837390">
        <ele>424.10</ele>
        <time>2015-05-31T06:14:10Z</time>
      </trkpt>
      <trkpt lat="41.671739370" lon="2.546932280">
        <ele>423.10</ele>
        <time>2015-05-31T06:14:13Z</time>
      </trkpt>
      <trkpt lat="41.671529570" lon="2.546884420">
        <ele>421.20</ele>
        <time>2015-05-31T06:14:18Z</time>
      </trkpt>
      <trkpt lat="41.671466210" lon="2.546847280">
        <ele>421.20</ele>
        <time>2015-05-31T06:14:20Z</time>
      </trkpt>
      <trkpt lat="41.671243750" lon="2.546743350">
        <ele>421.20</ele>
        <time>2015-05-31T06:14:28Z</time>
      </trkpt>
      <trkpt lat="41.671114920" lon="2.546837390">
        <ele>420.70</ele>
        <time>2015-05-31T06:14:33Z</time>
      </trkpt>
      <trkpt lat="41.670995310" lon="2.547005450">
        <ele>417.40</ele>
        <time>2015-05-31T06:14:38Z</time>
      </trkpt>
      <trkpt lat="41.670980140" lon="2.547049540">
        <ele>417.40</ele>
        <time>2015-05-31T06:14:39Z</time>
      </trkpt>
      <trkpt lat="41.670966140" lon="2.547097820">
        <ele>416.90</ele>
        <time>2015-05-31T06:14:40Z</time>
      </trkpt>
      <trkpt lat="41.670851900" lon="2.547284150">
        <ele>416.90</ele>
        <time>2015-05-31T06:14:45Z</time>
      </trkpt>
      <trkpt lat="41.670737230" lon="2.547484310">
        <ele>417.80</ele>
        <time>2015-05-31T06:14:52Z</time>
      </trkpt>
      <trkpt lat="41.670680400" lon="2.547666110">
        <ele>414.50</ele>
        <time>2015-05-31T06:14:58Z</time>
      </trkpt>
      <trkpt lat="41.670498350" lon="2.547808100">
        <ele>412.10</ele>
        <time>2015-05-31T06:15:03Z</time>
      </trkpt>
      <trkpt lat="41.670448060" lon="2.547821260">
        <ele>412.10</ele>
        <time>2015-05-31T06:15:05Z</time>
      </trkpt>
      <trkpt lat="41.670307910" lon="2.547864850">
        <ele>408.70</ele>
        <time>2015-05-31T06:15:10Z</time>
      </trkpt>
      <trkpt lat="41.670249320" lon="2.547879850">
        <ele>408.20</ele>
        <time>2015-05-31T06:15:12Z</time>
      </trkpt>
      <trkpt lat="41.669952940" lon="2.547791760">
        <ele>405.81</ele>
        <time>2015-05-31T06:15:19Z</time>
      </trkpt>
      <trkpt lat="41.669881100" lon="2.547755130">
        <ele>407.26</ele>
        <time>2015-05-31T06:15:24Z</time>
      </trkpt>
      <trkpt lat="41.669821340" lon="2.547693270">
        <ele>409.66</ele>
        <time>2015-05-31T06:15:32Z</time>
      </trkpt>
      <trkpt lat="41.669722520" lon="2.547623950">
        <ele>412.54</ele>
        <time>2015-05-31T06:15:41Z</time>
      </trkpt>
      <trkpt lat="41.669624200" lon="2.547543990">
        <ele>415.43</ele>
        <time>2015-05-31T06:15:49Z</time>
      </trkpt>
      <trkpt lat="41.669569210" lon="2.547480290">
        <ele>417.83</ele>
        <time>2015-05-31T06:15:56Z</time>
      </trkpt>
      <trkpt lat="41.669535020" lon="2.547464780">
        <ele>417.83</ele>
        <time>2015-05-31T06:16:03Z</time>
      </trkpt>
      <trkpt lat="41.669509790" lon="2.547455730">
        <ele>418.31</ele>
        <time>2015-05-31T06:16:09Z</time>
      </trkpt>
      <trkpt lat="41.669486740" lon="2.547469810">
        <ele>418.31</ele>
        <time>2015-05-31T06:16:13Z</time>
      </trkpt>
      <trkpt lat="41.669424040" lon="2.547534270">
        <ele>418.79</ele>
        <time>2015-05-31T06:16:19Z</time>
      </trkpt>
      <trkpt lat="41.669413650" lon="2.547578100">
        <ele>419.27</ele>
        <time>2015-05-31T06:16:22Z</time>
      </trkpt>
      <trkpt lat="41.669453540" lon="2.547774410">
        <ele>419.75</ele>
        <time>2015-05-31T06:16:30Z</time>
      </trkpt>
      <trkpt lat="41.669570390" lon="2.547989320">
        <ele>419.75</ele>
        <time>2015-05-31T06:16:39Z</time>
      </trkpt>
      <trkpt lat="41.669606770" lon="2.548086630">
        <ele>419.75</ele>
        <time>2015-05-31T06:16:43Z</time>
      </trkpt>
      <trkpt lat="41.669581870" lon="2.548301540">
        <ele>419.75</ele>
        <time>2015-05-31T06:16:50Z</time>
      </trkpt>
      <trkpt lat="41.669525710" lon="2.548530870">
        <ele>420.23</ele>
        <time>2015-05-31T06:16:57Z</time>
      </trkpt>
      <trkpt lat="41.669388000" lon="2.548675290">
        <ele>420.23</ele>
        <time>2015-05-31T06:17:03Z</time>
      </trkpt>
      <trkpt lat="41.669143330" lon="2.548852490">
        <ele>417.83</ele>
        <time>2015-05-31T06:17:10Z</time>
      </trkpt>
      <trkpt lat="41.669088260" lon="2.548891040">
        <ele>417.83</ele>
        <time>2015-05-31T06:17:11Z</time>
      </trkpt>
      <trkpt lat="41.668873770" lon="2.549014930">
        <ele>416.87</ele>
        <time>2015-05-31T06:17:15Z</time>
      </trkpt>
      <trkpt lat="41.668699090" lon="2.549173600">
        <ele>416.87</ele>
        <time>2015-05-31T06:17:20Z</time>
      </trkpt>
      <trkpt lat="41.668661540" lon="2.549213080">
        <ele>418.31</ele>
        <time>2015-05-31T06:17:23Z</time>
      </trkpt>
      <trkpt lat="41.668566820" lon="2.549270660">
        <ele>419.75</ele>
        <time>2015-05-31T06:17:29Z</time>
      </trkpt>
      <trkpt lat="41.668400270" lon="2.549301090">
        <ele>422.16</ele>
        <time>2015-05-31T06:17:38Z</time>
      </trkpt>
      <trkpt lat="41.668305220" lon="2.549302680">
        <ele>423.60</ele>
        <time>2015-05-31T06:17:44Z</time>
      </trkpt>
      <trkpt lat="41.668190480" lon="2.549331600">
        <ele>424.56</ele>
        <time>2015-05-31T06:17:51Z</time>
      </trkpt>
      <trkpt lat="41.668045130" lon="2.549331510">
        <ele>424.08</ele>
        <time>2015-05-31T06:17:57Z</time>
      </trkpt>
      <trkpt lat="41.668016550" lon="2.549323300">
        <ele>422.64</ele>
        <time>2015-05-31T06:17:58Z</time>
      </trkpt>
      <trkpt lat="41.667927950" lon="2.549167400">
        <ele>419.27</ele>
        <time>2015-05-31T06:18:04Z</time>
      </trkpt>
      <trkpt lat="41.667830720" lon="2.549107880">
        <ele>417.35</ele>
        <time>2015-05-31T06:18:08Z</time>
      </trkpt>
      <trkpt lat="41.667743220" lon="2.549202100">
        <ele>413.98</ele>
        <time>2015-05-31T06:18:12Z</time>
      </trkpt>
      <trkpt lat="41.667639530" lon="2.549408880">
        <ele>409.18</ele>
        <time>2015-05-31T06:18:18Z</time>
      </trkpt>
      <trkpt lat="41.667512460" lon="2.549530500">
        <ele>405.81</ele>
        <time>2015-05-31T06:18:23Z</time>
      </trkpt>
      <trkpt lat="41.667437440" lon="2.549566540">
        <ele>403.89</ele>
        <time>2015-05-31T06:18:25Z</time>
      </trkpt>
      <trkpt lat="41.667233350" lon="2.549698050">
        <ele>402.93</ele>
        <time>2015-05-31T06:18:31Z</time>
      </trkpt>
      <trkpt lat="41.667009720" lon="2.549795370">
        <ele>399.57</ele>
        <time>2015-05-31T06:18:38Z</time>
      </trkpt>
      <trkpt lat="41.667036200" lon="2.549898550">
        <ele>399.08</ele>
        <time>2015-05-31T06:18:43Z</time>
      </trkpt>
      <trkpt lat="41.667133100" lon="2.549869710">
        <ele>398.12</ele>
        <time>2015-05-31T06:18:47Z</time>
      </trkpt>
      <trkpt lat="41.667329650" lon="2.549909450">
        <ele>395.24</ele>
        <time>2015-05-31T06:18:52Z</time>
      </trkpt>
      <trkpt lat="41.667519920" lon="2.550051180">
        <ele>392.36</ele>
        <time>2015-05-31T06:18:57Z</time>
      </trkpt>
      <trkpt lat="41.667598460" lon="2.550058310">
        <ele>390.43</ele>
        <time>2015-05-31T06:18:59Z</time>
      </trkpt>
      <trkpt lat="41.667768530" lon="2.550053030">
        <ele>386.11</ele>
        <time>2015-05-31T06:19:04Z</time>
      </trkpt>
      <trkpt lat="41.667785040" lon="2.550071220">
        <ele>385.63</ele>
        <time>2015-05-31T06:19:05Z</time>
      </trkpt>
      <trkpt lat="41.667811780" lon="2.550139190">
        <ele>383.70</ele>
        <time>2015-05-31T06:19:09Z</time>
      </trkpt>
      <trkpt lat="41.667796190" lon="2.550295430">
        <ele>383.22</ele>
        <time>2015-05-31T06:19:15Z</time>
      </trkpt>
      <trkpt lat="41.667884620" lon="2.550371120">
        <ele>382.26</ele>
        <time>2015-05-31T06:19:20Z</time>
      </trkpt>
      <trkpt lat="41.668014120" lon="2.550421500">
        <ele>381.78</ele>
        <time>2015-05-31T06:19:24Z</time>
      </trkpt>
      <trkpt lat="41.668057710" lon="2.550470110">
        <ele>381.78</ele>
        <time>2015-05-31T06:19:26Z</time>
      </trkpt>
      <trkpt lat="41.668136330" lon="2.550564490">
        <ele>381.78</ele>
        <time>2015-05-31T06:19:31Z</time>
      </trkpt>
      <trkpt lat="41.668210680" lon="2.550644540">
        <ele>380.82</ele>
        <time>2015-05-31T06:19:34Z</time>
      </trkpt>
      <trkpt lat="41.668458030" lon="2.550754340">
        <ele>377.45</ele>
        <time>2015-05-31T06:19:39Z</time>
      </trkpt>
      <trkpt lat="41.668591300" lon="2.550708070">
        <ele>375.05</ele>
        <time>2015-05-31T06:19:42Z</time>
      </trkpt>
      <trkpt lat="41.668797580" lon="2.550564660">
        <ele>370.73</ele>
        <time>2015-05-31T06:19:47Z</time>
      </trkpt>
      <trkpt lat="41.668924560" lon="2.550511010">
        <ele>367.84</ele>
        <time>2015-05-31T06:19:50Z</time>
      </trkpt>
      <trkpt lat="41.669088340" lon="2.550434320">
        <ele>366.40</ele>
        <time>2015-05-31T06:19:54Z</time>
      </trkpt>
      <trkpt lat="41.669204600" lon="2.550394420">
        <ele>364.48</ele>
        <time>2015-05-31T06:19:57Z</time>
      </trkpt>
      <trkpt lat="41.669372070" lon="2.550439350">
        <ele>363.04</ele>
        <time>2015-05-31T06:20:02Z</time>
      </trkpt>
      <trkpt lat="41.669579780" lon="2.550441280">
        <ele>362.07</ele>
        <time>2015-05-31T06:20:08Z</time>
      </trkpt>
      <trkpt lat="41.669816820" lon="2.550465420">
        <ele>362.07</ele>
        <time>2015-05-31T06:20:14Z</time>
      </trkpt>
      <trkpt lat="41.670013870" lon="2.550659630">
        <ele>361.60</ele>
        <time>2015-05-31T06:20:19Z</time>
      </trkpt>
      <trkpt lat="41.670362980" lon="2.550868750">
        <ele>359.70</ele>
        <time>2015-05-31T06:20:26Z</time>
      </trkpt>
      <trkpt lat="41.670424670" lon="2.550903200">
        <ele>359.70</ele>
        <time>2015-05-31T06:20:27Z</time>
      </trkpt>
      <trkpt lat="41.670554590" lon="2.551175950">
        <ele>356.80</ele>
        <time>2015-05-31T06:20:32Z</time>
      </trkpt>
      <trkpt lat="41.670544360" lon="2.551248540">
        <ele>356.80</ele>
        <time>2015-05-31T06:20:33Z</time>
      </trkpt>
      <trkpt lat="41.670496920" lon="2.551416010">
        <ele>355.30</ele>
        <time>2015-05-31T06:20:37Z</time>
      </trkpt>
      <trkpt lat="41.670440680" lon="2.551638300">
        <ele>352.00</ele>
        <time>2015-05-31T06:20:42Z</time>
      </trkpt>
      <trkpt lat="41.670455010" lon="2.551774500">
        <ele>350.50</ele>
        <time>2015-05-31T06:20:45Z</time>
      </trkpt>
      <trkpt lat="41.670542350" lon="2.551789340">
        <ele>349.60</ele>
        <time>2015-05-31T06:20:49Z</time>
      </trkpt>
      <trkpt lat="41.670598930" lon="2.551752960">
        <ele>349.60</ele>
        <time>2015-05-31T06:20:51Z</time>
      </trkpt>
      <trkpt lat="41.670684760" lon="2.551725220">
        <ele>351.00</ele>
        <time>2015-05-31T06:20:55Z</time>
      </trkpt>
      <trkpt lat="41.670861870" lon="2.551616500">
        <ele>351.00</ele>
        <time>2015-05-31T06:21:01Z</time>
      </trkpt>
      <trkpt lat="41.671069490" lon="2.551326740">
        <ele>348.10</ele>
        <time>2015-05-31T06:21:07Z</time>
      </trkpt>
      <trkpt lat="41.671166470" lon="2.551118200">
        <ele>346.70</ele>
        <time>2015-05-31T06:21:11Z</time>
      </trkpt>
      <trkpt lat="41.671200500" lon="2.550997840">
        <ele>345.30</ele>
        <time>2015-05-31T06:21:13Z</time>
      </trkpt>
      <trkpt lat="41.671258670" lon="2.550688790">
        <ele>344.30</ele>
        <time>2015-05-31T06:21:18Z</time>
      </trkpt>
      <trkpt lat="41.671382050" lon="2.550466930">
        <ele>342.90</ele>
        <time>2015-05-31T06:21:22Z</time>
      </trkpt>
      <trkpt lat="41.671474760" lon="2.550433150">
        <ele>342.40</ele>
        <time>2015-05-31T06:21:24Z</time>
      </trkpt>
      <trkpt lat="41.671708610" lon="2.550395340">
        <ele>342.40</ele>
        <time>2015-05-31T06:21:31Z</time>
      </trkpt>
      <trkpt lat="41.671762760" lon="2.550377240">
        <ele>343.30</ele>
        <time>2015-05-31T06:21:33Z</time>
      </trkpt>
      <trkpt lat="41.671850180" lon="2.550297950">
        <ele>343.30</ele>
        <time>2015-05-31T06:21:36Z</time>
      </trkpt>
      <trkpt lat="41.672062830" lon="2.550150260">
        <ele>343.80</ele>
        <time>2015-05-31T06:21:42Z</time>
      </trkpt>
      <trkpt lat="41.672108010" lon="2.550128630">
        <ele>342.40</ele>
        <time>2015-05-31T06:21:43Z</time>
      </trkpt>
      <trkpt lat="41.672248910" lon="2.550062830">
        <ele>341.90</ele>
        <time>2015-05-31T06:21:46Z</time>
      </trkpt>
      <trkpt lat="41.672443290" lon="2.549988650">
        <ele>341.40</ele>
        <time>2015-05-31T06:21:50Z</time>
      </trkpt>
      <trkpt lat="41.672646210" lon="2.549907770">
        <ele>340.00</ele>
        <time>2015-05-31T06:21:54Z</time>
      </trkpt>
      <trkpt lat="41.672776630" lon="2.549832080">
        <ele>339.00</ele>
        <time>2015-05-31T06:21:57Z</time>
      </trkpt>
      <trkpt lat="41.672942850" lon="2.549647340">
        <ele>338.00</ele>
        <time>2015-05-31T06:22:01Z</time>
      </trkpt>
      <trkpt lat="41.673044770" lon="2.549508960">
        <ele>337.60</ele>
        <time>2015-05-31T06:22:05Z</time>
      </trkpt>
      <trkpt lat="41.673239730" lon="2.549438970">
        <ele>338.00</ele>
        <time>2015-05-31T06:22:13Z</time>
      </trkpt>
      <trkpt lat="41.673348870" lon="2.549332100">
        <ele>339.50</ele>
        <time>2015-05-31T06:22:20Z</time>
      </trkpt>
      <trkpt lat="41.673449360" lon="2.549237640">
        <ele>341.40</ele>
        <time>2015-05-31T06:22:28Z</time>
      </trkpt>
      <trkpt lat="41.673510640" lon="2.549204860">
        <ele>342.40</ele>
        <time>2015-05-31T06:22:32Z</time>
      </trkpt>
      <trkpt lat="41.673661180" lon="2.549148540">
        <ele>343.80</ele>
        <time>2015-05-31T06:22:40Z</time>
      </trkpt>
      <trkpt lat="41.673822860" lon="2.549053820">
        <ele>344.80</ele>
        <time>2015-05-31T06:22:48Z</time>
      </trkpt>
      <trkpt lat="41.674014890" lon="2.548945440">
        <ele>345.70</ele>
        <time>2015-05-31T06:22:57Z</time>
      </trkpt>
      <trkpt lat="41.674175070" lon="2.548783670">
        <ele>347.70</ele>
        <time>2015-05-31T06:23:08Z</time>
      </trkpt>
      <trkpt lat="41.674274060" lon="2.548627850">
        <ele>350.10</ele>
        <time>2015-05-31T06:23:17Z</time>
      </trkpt>
      <trkpt lat="41.674328040" lon="2.548491810">
        <ele>350.50</ele>
        <time>2015-05-31T06:23:23Z</time>
      </trkpt>
      <trkpt lat="41.674353600" lon="2.548408080">
        <ele>351.00</ele>
        <time>2015-05-31T06:23:27Z</time>
      </trkpt>
      <trkpt lat="41.674496100" lon="2.548152260">
        <ele>353.90</ele>
        <time>2015-05-31T06:23:39Z</time>
      </trkpt>
      <trkpt lat="41.674611600" lon="2.548001050">
        <ele>354.90</ele>
        <time>2015-05-31T06:23:47Z</time>
      </trkpt>
      <trkpt lat="41.674663400" lon="2.547827130">
        <ele>355.30</ele>
        <time>2015-05-31T06:23:54Z</time>
      </trkpt>
      <trkpt lat="41.674742270" lon="2.547639790">
        <ele>357.80</ele>
        <time>2015-05-31T06:24:03Z</time>
      </trkpt>
      <trkpt lat="41.674836490" lon="2.547482630">
        <ele>358.70</ele>
        <time>2015-05-31T06:24:11Z</time>
      </trkpt>
      <trkpt lat="41.674950060" lon="2.547387580">
        <ele>360.60</ele>
        <time>2015-05-31T06:24:18Z</time>
      </trkpt>
      <trkpt lat="41.675110830" lon="2.547391770">
        <ele>361.10</ele>
        <time>2015-05-31T06:24:25Z</time>
      </trkpt>
      <trkpt lat="41.675336300" lon="2.547516160">
        <ele>362.60</ele>
        <time>2015-05-31T06:24:34Z</time>
      </trkpt>
      <trkpt lat="41.675564710" lon="2.547649770">
        <ele>363.00</ele>
        <time>2015-05-31T06:24:42Z</time>
      </trkpt>
      <trkpt lat="41.675634690" lon="2.547692770">
        <ele>363.00</ele>
        <time>2015-05-31T06:24:44Z</time>
      </trkpt>
      <trkpt lat="41.675726640" lon="2.547739540">
        <ele>361.60</ele>
        <time>2015-05-31T06:24:46Z</time>
      </trkpt>
      <trkpt lat="41.675861090" lon="2.547664440">
        <ele>361.60</ele>
        <time>2015-05-31T06:24:50Z</time>
      </trkpt>
      <trkpt lat="41.675883640" lon="2.547442900">
        <ele>362.10</ele>
        <time>2015-05-31T06:24:55Z</time>
      </trkpt>
      <trkpt lat="41.675911550" lon="2.547310640">
        <ele>362.10</ele>
        <time>2015-05-31T06:24:58Z</time>
      </trkpt>
      <trkpt lat="41.676113640" lon="2.547078370">
        <ele>360.60</ele>
        <time>2015-05-31T06:25:04Z</time>
      </trkpt>
      <trkpt lat="41.676246830" lon="2.547110390">
        <ele>359.70</ele>
        <time>2015-05-31T06:25:08Z</time>
      </trkpt>
      <trkpt lat="41.676431810" lon="2.547271160">
        <ele>359.70</ele>
        <time>2015-05-31T06:25:14Z</time>
      </trkpt>
      <trkpt lat="41.676601710" lon="2.547351290">
        <ele>361.10</ele>
        <time>2015-05-31T06:25:20Z</time>
      </trkpt>
      <trkpt lat="41.676633150" lon="2.547352550">
        <ele>361.10</ele>
        <time>2015-05-31T06:25:21Z</time>
      </trkpt>
      <trkpt lat="41.676750660" lon="2.547188340">
        <ele>361.60</ele>
        <time>2015-05-31T06:25:27Z</time>
      </trkpt>
      <trkpt lat="41.676870100" lon="2.546988180">
        <ele>362.60</ele>
        <time>2015-05-31T06:25:34Z</time>
      </trkpt>
      <trkpt lat="41.677058950" lon="2.546773020">
        <ele>363.00</ele>
        <time>2015-05-31T06:25:41Z</time>
      </trkpt>
      <trkpt lat="41.677249640" lon="2.546710160">
        <ele>364.00</ele>
        <time>2015-05-31T06:25:48Z</time>
      </trkpt>
      <trkpt lat="41.677511740" lon="2.546631950">
        <ele>364.50</ele>
        <time>2015-05-31T06:25:56Z</time>
      </trkpt>
      <trkpt lat="41.677569240" lon="2.546529020">
        <ele>364.50</ele>
        <time>2015-05-31T06:25:59Z</time>
      </trkpt>
      <trkpt lat="41.677473940" lon="2.546328440">
        <ele>364.50</ele>
        <time>2015-05-31T06:26:04Z</time>
      </trkpt>
      <trkpt lat="41.677347290" lon="2.546089310">
        <ele>364.50</ele>
        <time>2015-05-31T06:26:11Z</time>
      </trkpt>
      <trkpt lat="41.677404870" lon="2.545734000">
        <ele>364.50</ele>
        <time>2015-05-31T06:26:17Z</time>
      </trkpt>
      <trkpt lat="41.677441920" lon="2.545522270">
        <ele>363.00</ele>
        <time>2015-05-31T06:26:20Z</time>
      </trkpt>
      <trkpt lat="41.677403530" lon="2.545261760">
        <ele>363.00</ele>
        <time>2015-05-31T06:26:25Z</time>
      </trkpt>
      <trkpt lat="41.677394890" lon="2.544981890">
        <ele>363.00</ele>
        <time>2015-05-31T06:26:31Z</time>
      </trkpt>
      <trkpt lat="41.677419450" lon="2.544963950">
        <ele>363.00</ele>
        <time>2015-05-31T06:26:32Z</time>
      </trkpt>
      <trkpt lat="41.677675190" lon="2.544803690">
        <ele>364.00</ele>
        <time>2015-05-31T06:26:42Z</time>
      </trkpt>
      <trkpt lat="41.677870480" lon="2.544691960">
        <ele>365.40</ele>
        <time>2015-05-31T06:26:50Z</time>
      </trkpt>
      <trkpt lat="41.678035440" lon="2.544612670">
        <ele>366.40</ele>
        <time>2015-05-31T06:26:58Z</time>
      </trkpt>
      <trkpt lat="41.678218250" lon="2.544525660">
        <ele>367.80</ele>
        <time>2015-05-31T06:27:06Z</time>
      </trkpt>
      <trkpt lat="41.678290580" lon="2.544428600">
        <ele>368.80</ele>
        <time>2015-05-31T06:27:10Z</time>
      </trkpt>
      <trkpt lat="41.678257560" lon="2.544301370">
        <ele>368.80</ele>
        <time>2015-05-31T06:27:14Z</time>
      </trkpt>
      <trkpt lat="41.678115490" lon="2.544096260">
        <ele>369.30</ele>
        <time>2015-05-31T06:27:22Z</time>
      </trkpt>
      <trkpt lat="41.677972660" lon="2.544030970">
        <ele>369.30</ele>
        <time>2015-05-31T06:27:28Z</time>
      </trkpt>
      <trkpt lat="41.677897310" lon="2.543864920">
        <ele>369.80</ele>
        <time>2015-05-31T06:27:33Z</time>
      </trkpt>
      <trkpt lat="41.677792450" lon="2.543613970">
        <ele>370.20</ele>
        <time>2015-05-31T06:27:40Z</time>
      </trkpt>
      <trkpt lat="41.677695130" lon="2.543435680">
        <ele>370.70</ele>
        <time>2015-05-31T06:27:46Z</time>
      </trkpt>
      <trkpt lat="41.677620120" lon="2.543252620">
        <ele>372.20</ele>
        <time>2015-05-31T06:27:52Z</time>
      </trkpt>
      <trkpt lat="41.677657160" lon="2.542899660">
        <ele>373.10</ele>
        <time>2015-05-31T06:28:02Z</time>
      </trkpt>
      <trkpt lat="41.677754310" lon="2.542649120">
        <ele>375.10</ele>
        <time>2015-05-31T06:28:10Z</time>
      </trkpt>
      <trkpt lat="41.677869230" lon="2.542470510">
        <ele>376.00</ele>
        <time>2015-05-31T06:28:17Z</time>
      </trkpt>
      <trkpt lat="41.677996800" lon="2.542241760">
        <ele>377.90</ele>
        <time>2015-05-31T06:28:26Z</time>
      </trkpt>
      <trkpt lat="41.678128900" lon="2.542005390">
        <ele>378.40</ele>
        <time>2015-05-31T06:28:34Z</time>
      </trkpt>
      <trkpt lat="41.678054720" lon="2.541844210">
        <ele>378.90</ele>
        <time>2015-05-31T06:28:40Z</time>
      </trkpt>
      <trkpt lat="41.677901410" lon="2.541683950">
        <ele>380.30</ele>
        <time>2015-05-31T06:28:49Z</time>
      </trkpt>
      <trkpt lat="41.677821030" lon="2.541475660">
        <ele>382.30</ele>
        <time>2015-05-31T06:28:57Z</time>
      </trkpt>
      <trkpt lat="41.677772580" lon="2.541298050">
        <ele>382.70</ele>
        <time>2015-05-31T06:29:03Z</time>
      </trkpt>
      <trkpt lat="41.677758500" lon="2.541189000">
        <ele>383.70</ele>
        <time>2015-05-31T06:29:07Z</time>
      </trkpt>
      <trkpt lat="41.677786080" lon="2.541166280">
        <ele>383.70</ele>
        <time>2015-05-31T06:29:10Z</time>
      </trkpt>
      <trkpt lat="41.677807280" lon="2.541177510">
        <ele>384.20</ele>
        <time>2015-05-31T06:29:13Z</time>
      </trkpt>
      <trkpt lat="41.677858500" lon="2.541293770">
        <ele>385.20</ele>
        <time>2015-05-31T06:29:20Z</time>
      </trkpt>
      <trkpt lat="41.677940720" lon="2.541392430">
        <ele>386.10</ele>
        <time>2015-05-31T06:29:28Z</time>
      </trkpt>
      <trkpt lat="41.677970810" lon="2.541418580">
        <ele>386.10</ele>
        <time>2015-05-31T06:29:30Z</time>
      </trkpt>
      <trkpt lat="41.678109120" lon="2.541569870">
        <ele>387.60</ele>
        <time>2015-05-31T06:29:40Z</time>
      </trkpt>
      <trkpt lat="41.678156390" lon="2.541621000">
        <ele>388.00</ele>
        <time>2015-05-31T06:29:44Z</time>
      </trkpt>
      <trkpt lat="41.678234930" lon="2.541664080">
        <ele>389.00</ele>
        <time>2015-05-31T06:29:50Z</time>
      </trkpt>
      <trkpt lat="41.678262000" lon="2.541701970">
        <ele>389.00</ele>
        <time>2015-05-31T06:29:53Z</time>
      </trkpt>
      <trkpt lat="41.678379350" lon="2.541784610">
        <ele>390.40</ele>
        <time>2015-05-31T06:30:00Z</time>
      </trkpt>
      <trkpt lat="41.678416900" lon="2.541805650">
        <ele>390.90</ele>
        <time>2015-05-31T06:30:02Z</time>
      </trkpt>
      <trkpt lat="41.678449170" lon="2.541816380">
        <ele>391.90</ele>
        <time>2015-05-31T06:30:04Z</time>
      </trkpt>
      <trkpt lat="41.678554110" lon="2.541918810">
        <ele>392.40</ele>
        <time>2015-05-31T06:30:11Z</time>
      </trkpt>
      <trkpt lat="41.678630050" lon="2.542014530">
        <ele>393.80</ele>
        <time>2015-05-31T06:30:16Z</time>
      </trkpt>
      <trkpt lat="41.678608850" lon="2.542173450">
        <ele>395.20</ele>
        <time>2015-05-31T06:30:23Z</time>
      </trkpt>
      <trkpt lat="41.678495860" lon="2.542242180">
        <ele>396.70</ele>
        <time>2015-05-31T06:30:30Z</time>
      </trkpt>
      <trkpt lat="41.678479600" lon="2.542251400">
        <ele>397.20</ele>
        <time>2015-05-31T06:30:31Z</time>
      </trkpt>
      <trkpt lat="41.678354370" lon="2.542405800">
        <ele>398.10</ele>
        <time>2015-05-31T06:30:39Z</time>
      </trkpt>
      <trkpt lat="41.678299220" lon="2.542583240">
        <ele>399.10</ele>
        <time>2015-05-31T06:30:46Z</time>
      </trkpt>
      <trkpt lat="41.678272900" lon="2.542846770">
        <ele>401.50</ele>
        <time>2015-05-31T06:30:56Z</time>
      </trkpt>
      <trkpt lat="41.678311370" lon="2.543063610">
        <ele>402.90</ele>
        <time>2015-05-31T06:31:04Z</time>
      </trkpt>
      <trkpt lat="41.678385800" lon="2.543246750">
        <ele>403.90</ele>
        <time>2015-05-31T06:31:11Z</time>
      </trkpt>
      <trkpt lat="41.678491160" lon="2.543455630">
        <ele>405.80</ele>
        <time>2015-05-31T06:31:20Z</time>
      </trkpt>
      <trkpt lat="41.678587050" lon="2.543625280">
        <ele>407.30</ele>
        <time>2015-05-31T06:31:28Z</time>
      </trkpt>
      <trkpt lat="41.678700210" lon="2.543797190">
        <ele>409.20</ele>
        <time>2015-05-31T06:31:36Z</time>
      </trkpt>
      <trkpt lat="41.678788720" lon="2.543875650">
        <ele>410.10</ele>
        <time>2015-05-31T06:31:43Z</time>
      </trkpt>
      <trkpt lat="41.678911350" lon="2.543930800">
        <ele>411.10</ele>
        <time>2015-05-31T06:31:52Z</time>
      </trkpt>
      <trkpt lat="41.679045790" lon="2.544034650">
        <ele>412.50</ele>
        <time>2015-05-31T06:32:00Z</time>
      </trkpt>
      <trkpt lat="41.679128770" lon="2.544088210">
        <ele>413.50</ele>
        <time>2015-05-31T06:32:06Z</time>
      </trkpt>
      <trkpt lat="41.679257600" lon="2.544148900">
        <ele>414.00</ele>
        <time>2015-05-31T06:32:13Z</time>
      </trkpt>
      <trkpt lat="41.679329270" lon="2.544164240">
        <ele>415.00</ele>
        <time>2015-05-31T06:32:17Z</time>
      </trkpt>
      <trkpt lat="41.679423230" lon="2.544276970">
        <ele>415.40</ele>
        <time>2015-05-31T06:32:23Z</time>
      </trkpt>
      <trkpt lat="41.679485680" lon="2.544222410">
        <ele>415.90</ele>
        <time>2015-05-31T06:32:28Z</time>
      </trkpt>
      <trkpt lat="41.679460870" lon="2.544161970">
        <ele>416.40</ele>
        <time>2015-05-31T06:32:31Z</time>
      </trkpt>
      <trkpt lat="41.679324490" lon="2.544066760">
        <ele>417.80</ele>
        <time>2015-05-31T06:32:40Z</time>
      </trkpt>
      <trkpt lat="41.679202280" lon="2.543992580">
        <ele>418.30</ele>
        <time>2015-05-31T06:32:47Z</time>
      </trkpt>
      <trkpt lat="41.679095000" lon="2.543866180">
        <ele>418.80</ele>
        <time>2015-05-31T06:32:54Z</time>
      </trkpt>
      <trkpt lat="41.678972540" lon="2.543718070">
        <ele>419.80</ele>
        <time>2015-05-31T06:33:02Z</time>
      </trkpt>
      <trkpt lat="41.678931460" lon="2.543521180">
        <ele>420.70</ele>
        <time>2015-05-31T06:33:10Z</time>
      </trkpt>
      <trkpt lat="41.678926350" lon="2.543319260">
        <ele>420.70</ele>
        <time>2015-05-31T06:33:16Z</time>
      </trkpt>
      <trkpt lat="41.678964070" lon="2.543097640">
        <ele>420.70</ele>
        <time>2015-05-31T06:33:23Z</time>
      </trkpt>
      <trkpt lat="41.679035990" lon="2.542819610">
        <ele>421.20</ele>
        <time>2015-05-31T06:33:32Z</time>
      </trkpt>
      <trkpt lat="41.679075470" lon="2.542680310">
        <ele>421.70</ele>
        <time>2015-05-31T06:33:38Z</time>
      </trkpt>
      <trkpt lat="41.679128360" lon="2.542536470">
        <ele>423.10</ele>
        <time>2015-05-31T06:33:44Z</time>
      </trkpt>
      <trkpt lat="41.679142440" lon="2.542494060">
        <ele>423.10</ele>
        <time>2015-05-31T06:33:46Z</time>
      </trkpt>
      <trkpt lat="41.679202790" lon="2.542345450">
        <ele>425.00</ele>
        <time>2015-05-31T06:33:54Z</time>
      </trkpt>
      <trkpt lat="41.679235390" lon="2.542161630">
        <ele>426.50</ele>
        <time>2015-05-31T06:34:03Z</time>
      </trkpt>
      <trkpt lat="41.679234720" lon="2.542132720">
        <ele>427.00</ele>
        <time>2015-05-31T06:34:05Z</time>
      </trkpt>
      <trkpt lat="41.679256350" lon="2.542002960">
        <ele>428.90</ele>
        <time>2015-05-31T06:34:13Z</time>
      </trkpt>
      <trkpt lat="41.679300940" lon="2.542062980">
        <ele>429.90</ele>
        <time>2015-05-31T06:34:19Z</time>
      </trkpt>
      <trkpt lat="41.679316700" lon="2.542098270">
        <ele>430.30</ele>
        <time>2015-05-31T06:34:21Z</time>
      </trkpt>
      <trkpt lat="41.679339330" lon="2.542295490">
        <ele>431.30</ele>
        <time>2015-05-31T06:34:31Z</time>
      </trkpt>
      <trkpt lat="41.679338240" lon="2.542318540">
        <ele>431.80</ele>
        <time>2015-05-31T06:34:32Z</time>
      </trkpt>
      <trkpt lat="41.679308820" lon="2.542508480">
        <ele>433.20</ele>
        <time>2015-05-31T06:34:41Z</time>
      </trkpt>
      <trkpt lat="41.679301950" lon="2.542607800">
        <ele>434.20</ele>
        <time>2015-05-31T06:34:46Z</time>
      </trkpt>
      <trkpt lat="41.679317120" lon="2.542785330">
        <ele>435.60</ele>
        <time>2015-05-31T06:34:55Z</time>
      </trkpt>
      <trkpt lat="41.679343180" lon="2.542937960">
        <ele>436.60</ele>
        <time>2015-05-31T06:35:03Z</time>
      </trkpt>
      <trkpt lat="41.679364220" lon="2.543047850">
        <ele>437.50</ele>
        <time>2015-05-31T06:35:09Z</time>
      </trkpt>
      <trkpt lat="41.679407390" lon="2.543202080">
        <ele>439.00</ele>
        <time>2015-05-31T06:35:18Z</time>
      </trkpt>
      <trkpt lat="41.679453410" lon="2.543352790">
        <ele>440.40</ele>
        <time>2015-05-31T06:35:26Z</time>
      </trkpt>
      <trkpt lat="41.679510910" lon="2.543487230">
        <ele>441.90</ele>
        <time>2015-05-31T06:35:34Z</time>
      </trkpt>
      <trkpt lat="41.679591370" lon="2.543598630">
        <ele>442.30</ele>
        <time>2015-05-31T06:35:41Z</time>
      </trkpt>
      <trkpt lat="41.679759850" lon="2.543661740">
        <ele>443.30</ele>
        <time>2015-05-31T06:35:51Z</time>
      </trkpt>
      <trkpt lat="41.679944080" lon="2.543758550">
        <ele>444.30</ele>
        <time>2015-05-31T06:36:01Z</time>
      </trkpt>
      <trkpt lat="41.680054390" lon="2.543898030">
        <ele>444.80</ele>
        <time>2015-05-31T06:36:09Z</time>
      </trkpt>
      <trkpt lat="41.680086990" lon="2.544042280">
        <ele>445.20</ele>
        <time>2015-05-31T06:36:15Z</time>
      </trkpt>
      <trkpt lat="41.680076770" lon="2.544154930">
        <ele>445.70</ele>
        <time>2015-05-31T06:36:20Z</time>
      </trkpt>
      <trkpt lat="41.680110970" lon="2.544359280">
        <ele>446.20</ele>
        <time>2015-05-31T06:36:28Z</time>
      </trkpt>
      <trkpt lat="41.680123540" lon="2.544585340">
        <ele>447.20</ele>
        <time>2015-05-31T06:36:37Z</time>
      </trkpt>
      <trkpt lat="41.680134180" lon="2.544804610">
        <ele>448.60</ele>
        <time>2015-05-31T06:36:47Z</time>
      </trkpt>
      <trkpt lat="41.680111890" lon="2.544989520">
        <ele>450.00</ele>
        <time>2015-05-31T06:36:56Z</time>
      </trkpt>
      <trkpt lat="41.680083310" lon="2.545049110">
        <ele>451.00</ele>
        <time>2015-05-31T06:37:00Z</time>
      </trkpt>
      <trkpt lat="41.680020860" lon="2.545191860">
        <ele>452.40</ele>
        <time>2015-05-31T06:37:08Z</time>
      </trkpt>
      <trkpt lat="41.679944750" lon="2.545395460">
        <ele>453.90</ele>
        <time>2015-05-31T06:37:18Z</time>
      </trkpt>
      <trkpt lat="41.679855740" lon="2.545532670">
        <ele>454.80</ele>
        <time>2015-05-31T06:37:26Z</time>
      </trkpt>
      <trkpt lat="41.679843250" lon="2.545574160">
        <ele>455.30</ele>
        <time>2015-05-31T06:37:28Z</time>
      </trkpt>
      <trkpt lat="41.679776030" lon="2.545668790">
        <ele>456.30</ele>
        <time>2015-05-31T06:37:34Z</time>
      </trkpt>
      <trkpt lat="41.679639320" lon="2.545751940">
        <ele>457.20</ele>
        <time>2015-05-31T06:37:43Z</time>
      </trkpt>
      <trkpt lat="41.679499000" lon="2.545865260">
        <ele>458.70</ele>
        <time>2015-05-31T06:37:52Z</time>
      </trkpt>
      <trkpt lat="41.679445190" lon="2.545923930">
        <ele>459.20</ele>
        <time>2015-05-31T06:37:56Z</time>
      </trkpt>
      <trkpt lat="41.679378140" lon="2.546056700">
        <ele>460.10</ele>
        <time>2015-05-31T06:38:03Z</time>
      </trkpt>
      <trkpt lat="41.679429430" lon="2.546255350">
        <ele>460.60</ele>
        <time>2015-05-31T06:38:12Z</time>
      </trkpt>
      <trkpt lat="41.679537980" lon="2.546375890">
        <ele>462.50</ele>
        <time>2015-05-31T06:38:21Z</time>
      </trkpt>
      <trkpt lat="41.679641500" lon="2.546447800">
        <ele>463.50</ele>
        <time>2015-05-31T06:38:29Z</time>
      </trkpt>
      <trkpt lat="41.679681230" lon="2.546473200">
        <ele>464.00</ele>
        <time>2015-05-31T06:38:32Z</time>
      </trkpt>
      <trkpt lat="41.679777790" lon="2.546583000">
        <ele>464.90</ele>
        <time>2015-05-31T06:38:40Z</time>
      </trkpt>
      <trkpt lat="41.679851210" lon="2.546713260">
        <ele>465.90</ele>
        <time>2015-05-31T06:38:48Z</time>
      </trkpt>
      <trkpt lat="41.679901080" lon="2.546824740">
        <ele>466.90</ele>
        <time>2015-05-31T06:38:54Z</time>
      </trkpt>
      <trkpt lat="41.679933020" lon="2.547004530">
        <ele>467.80</ele>
        <time>2015-05-31T06:39:03Z</time>
      </trkpt>
      <trkpt lat="41.679998980" lon="2.547127990">
        <ele>469.30</ele>
        <time>2015-05-31T06:39:11Z</time>
      </trkpt>
      <trkpt lat="41.680011140" lon="2.547168230">
        <ele>469.70</ele>
        <time>2015-05-31T06:39:14Z</time>
      </trkpt>
      <trkpt lat="41.680029410" lon="2.547340390">
        <ele>472.10</ele>
        <time>2015-05-31T06:39:25Z</time>
      </trkpt>
      <trkpt lat="41.680042570" lon="2.547502500">
        <ele>473.60</ele>
        <time>2015-05-31T06:39:34Z</time>
      </trkpt>
      <trkpt lat="41.680065370" lon="2.547647250">
        <ele>475.50</ele>
        <time>2015-05-31T06:39:43Z</time>
      </trkpt>
      <trkpt lat="41.680074340" lon="2.547704670">
        <ele>476.50</ele>
        <time>2015-05-31T06:39:47Z</time>
      </trkpt>
      <trkpt lat="41.680083980" lon="2.547767790">
        <ele>477.40</ele>
        <time>2015-05-31T06:39:51Z</time>
      </trkpt>
      <trkpt lat="41.680087330" lon="2.547919920">
        <ele>478.90</ele>
        <time>2015-05-31T06:40:00Z</time>
      </trkpt>
      <trkpt lat="41.680064110" lon="2.548085630">
        <ele>480.30</ele>
        <time>2015-05-31T06:40:09Z</time>
      </trkpt>
      <trkpt lat="41.680027150" lon="2.548203980">
        <ele>480.80</ele>
        <time>2015-05-31T06:40:16Z</time>
      </trkpt>
      <trkpt lat="41.680027900" lon="2.548238180">
        <ele>481.30</ele>
        <time>2015-05-31T06:40:18Z</time>
      </trkpt>
      <trkpt lat="41.680047100" lon="2.548282350">
        <ele>482.20</ele>
        <time>2015-05-31T06:40:21Z</time>
      </trkpt>
      <trkpt lat="41.680114990" lon="2.548309000">
        <ele>483.20</ele>
        <time>2015-05-31T06:40:26Z</time>
      </trkpt>
      <trkpt lat="41.680153630" lon="2.548225020">
        <ele>483.70</ele>
        <time>2015-05-31T06:40:32Z</time>
      </trkpt>
      <trkpt lat="41.680191850" lon="2.548172130">
        <ele>484.60</ele>
        <time>2015-05-31T06:40:37Z</time>
      </trkpt>
      <trkpt lat="41.680269380" lon="2.548027040">
        <ele>485.60</ele>
        <time>2015-05-31T06:40:46Z</time>
      </trkpt>
      <trkpt lat="41.680322270" lon="2.547837690">
        <ele>486.60</ele>
        <time>2015-05-31T06:40:55Z</time>
      </trkpt>
      <trkpt lat="41.680393020" lon="2.547867950">
        <ele>487.50</ele>
        <time>2015-05-31T06:41:02Z</time>
      </trkpt>
      <trkpt lat="41.680378430" lon="2.548032070">
        <ele>488.50</ele>
        <time>2015-05-31T06:41:11Z</time>
      </trkpt>
      <trkpt lat="41.680390670" lon="2.548236250">
        <ele>489.50</ele>
        <time>2015-05-31T06:41:20Z</time>
      </trkpt>
      <trkpt lat="41.680396870" lon="2.548281340">
        <ele>489.50</ele>
        <time>2015-05-31T06:41:22Z</time>
      </trkpt>
      <trkpt lat="41.680350770" lon="2.548429540">
        <ele>490.90</ele>
        <time>2015-05-31T06:41:30Z</time>
      </trkpt>
      <trkpt lat="41.680335010" lon="2.548507820">
        <ele>491.40</ele>
        <time>2015-05-31T06:41:34Z</time>
      </trkpt>
      <trkpt lat="41.680278440" lon="2.548678900">
        <ele>492.30</ele>
        <time>2015-05-31T06:41:43Z</time>
      </trkpt>
      <trkpt lat="41.680190510" lon="2.548876040">
        <ele>493.30</ele>
        <time>2015-05-31T06:41:52Z</time>
      </trkpt>
      <trkpt lat="41.680099990" lon="2.549026080">
        <ele>494.30</ele>
        <time>2015-05-31T06:42:00Z</time>
      </trkpt>
      <trkpt lat="41.680010970" lon="2.549209050">
        <ele>495.20</ele>
        <time>2015-05-31T06:42:09Z</time>
      </trkpt>
      <trkpt lat="41.679939050" lon="2.549349280">
        <ele>496.20</ele>
        <time>2015-05-31T06:42:17Z</time>
      </trkpt>
      <trkpt lat="41.679811480" lon="2.549495300">
        <ele>496.20</ele>
        <time>2015-05-31T06:42:25Z</time>
      </trkpt>
      <trkpt lat="41.679656670" lon="2.549586320">
        <ele>496.70</ele>
        <time>2015-05-31T06:42:33Z</time>
      </trkpt>
      <trkpt lat="41.679509400" lon="2.549696130">
        <ele>497.60</ele>
        <time>2015-05-31T06:42:41Z</time>
      </trkpt>
      <trkpt lat="41.679339500" lon="2.549820010">
        <ele>498.10</ele>
        <time>2015-05-31T06:42:50Z</time>
      </trkpt>
      <trkpt lat="41.679217370" lon="2.549904580">
        <ele>499.10</ele>
        <time>2015-05-31T06:42:57Z</time>
      </trkpt>
      <trkpt lat="41.679082260" lon="2.549992680">
        <ele>499.50</ele>
        <time>2015-05-31T06:43:04Z</time>
      </trkpt>
      <trkpt lat="41.678924170" lon="2.550120590">
        <ele>500.00</ele>
        <time>2015-05-31T06:43:12Z</time>
      </trkpt>
      <trkpt lat="41.678860130" lon="2.550209680">
        <ele>500.50</ele>
        <time>2015-05-31T06:43:16Z</time>
      </trkpt>
      <trkpt lat="41.678751670" lon="2.550371710">
        <ele>500.50</ele>
        <time>2015-05-31T06:43:23Z</time>
      </trkpt>
      <trkpt lat="41.678545980" lon="2.550526600">
        <ele>501.00</ele>
        <time>2015-05-31T06:43:33Z</time>
      </trkpt>
      <trkpt lat="41.678452190" lon="2.550581420">
        <ele>502.00</ele>
        <time>2015-05-31T06:43:38Z</time>
      </trkpt>
      <trkpt lat="41.678390500" lon="2.550616210">
        <ele>502.90</ele>
        <time>2015-05-31T06:43:42Z</time>
      </trkpt>
      <trkpt lat="41.678296200" lon="2.550665490">
        <ele>503.90</ele>
        <time>2015-05-31T06:43:49Z</time>
      </trkpt>
      <trkpt lat="41.678202570" lon="2.550786860">
        <ele>504.80</ele>
        <time>2015-05-31T06:43:57Z</time>
      </trkpt>
      <trkpt lat="41.678181790" lon="2.550810330">
        <ele>505.80</ele>
        <time>2015-05-31T06:43:58Z</time>
      </trkpt>
      <trkpt lat="41.678078020" lon="2.551002360">
        <ele>505.80</ele>
        <time>2015-05-31T06:44:06Z</time>
      </trkpt>
      <trkpt lat="41.677956980" lon="2.551184500">
        <ele>505.80</ele>
        <time>2015-05-31T06:44:13Z</time>
      </trkpt>
      <trkpt lat="41.677805190" lon="2.551317520">
        <ele>506.30</ele>
        <time>2015-05-31T06:44:22Z</time>
      </trkpt>
      <trkpt lat="41.677650290" lon="2.551383650">
        <ele>506.80</ele>
        <time>2015-05-31T06:44:30Z</time>
      </trkpt>
      <trkpt lat="41.677442420" lon="2.551451130">
        <ele>507.20</ele>
        <time>2015-05-31T06:44:39Z</time>
      </trkpt>
      <trkpt lat="41.677215440" lon="2.551587920">
        <ele>507.20</ele>
        <time>2015-05-31T06:44:47Z</time>
      </trkpt>
      <trkpt lat="41.677011170" lon="2.551663440">
        <ele>507.20</ele>
        <time>2015-05-31T06:44:53Z</time>
      </trkpt>
      <trkpt lat="41.676691150" lon="2.551748100">
        <ele>506.30</ele>
        <time>2015-05-31T06:45:01Z</time>
      </trkpt>
      <trkpt lat="41.676409430" lon="2.551734860">
        <ele>506.30</ele>
        <time>2015-05-31T06:45:08Z</time>
      </trkpt>
      <trkpt lat="41.676202400" lon="2.551772830">
        <ele>505.30</ele>
        <time>2015-05-31T06:45:13Z</time>
      </trkpt>
      <trkpt lat="41.676116240" lon="2.551976670">
        <ele>505.30</ele>
        <time>2015-05-31T06:45:18Z</time>
      </trkpt>
      <trkpt lat="41.676168620" lon="2.552197200">
        <ele>505.30</ele>
        <time>2015-05-31T06:45:26Z</time>
      </trkpt>
      <trkpt lat="41.676246490" lon="2.552410190">
        <ele>505.30</ele>
        <time>2015-05-31T06:45:32Z</time>
      </trkpt>
      <trkpt lat="41.676295360" lon="2.552792150">
        <ele>504.80</ele>
        <time>2015-05-31T06:45:40Z</time>
      </trkpt>
      <trkpt lat="41.676230060" lon="2.553132960">
        <ele>504.40</ele>
        <time>2015-05-31T06:45:47Z</time>
      </trkpt>
      <trkpt lat="41.676173150" lon="2.553408050">
        <ele>503.90</ele>
        <time>2015-05-31T06:45:53Z</time>
      </trkpt>
      <trkpt lat="41.676092430" lon="2.553523970">
        <ele>503.40</ele>
        <time>2015-05-31T06:45:56Z</time>
      </trkpt>
      <trkpt lat="41.675876680" lon="2.553656830">
        <ele>503.40</ele>
        <time>2015-05-31T06:46:02Z</time>
      </trkpt>
      <trkpt lat="41.675757660" lon="2.553801830">
        <ele>503.40</ele>
        <time>2015-05-31T06:46:07Z</time>
      </trkpt>
      <trkpt lat="41.675734520" lon="2.553866790">
        <ele>503.40</ele>
        <time>2015-05-31T06:46:09Z</time>
      </trkpt>
      <trkpt lat="41.675704180" lon="2.554034180">
        <ele>504.80</ele>
        <time>2015-05-31T06:46:15Z</time>
      </trkpt>
      <trkpt lat="41.675702340" lon="2.554155050">
        <ele>506.30</ele>
        <time>2015-05-31T06:46:21Z</time>
      </trkpt>
      <trkpt lat="41.675702090" lon="2.554272480">
        <ele>509.20</ele>
        <time>2015-05-31T06:46:29Z</time>
      </trkpt>
      <trkpt lat="41.675690690" lon="2.554368200">
        <ele>510.60</ele>
        <time>2015-05-31T06:46:35Z</time>
      </trkpt>
      <trkpt lat="41.675689430" lon="2.554526780">
        <ele>513.50</ele>
        <time>2015-05-31T06:46:44Z</time>
      </trkpt>
      <trkpt lat="41.675702760" lon="2.554545060">
        <ele>513.50</ele>
        <time>2015-05-31T06:46:46Z</time>
      </trkpt>
      <trkpt lat="41.675787330" lon="2.554510610">
        <ele>514.90</ele>
        <time>2015-05-31T06:46:54Z</time>
      </trkpt>
      <trkpt lat="41.675797390" lon="2.554505750">
        <ele>514.90</ele>
        <time>2015-05-31T06:46:55Z</time>
      </trkpt>
      <trkpt lat="41.675847760" lon="2.554450510">
        <ele>515.90</ele>
        <time>2015-05-31T06:47:00Z</time>
      </trkpt>
      <trkpt lat="41.675893610" lon="2.554373810">
        <ele>516.40</ele>
        <time>2015-05-31T06:47:05Z</time>
      </trkpt>
      <trkpt lat="41.675986650" lon="2.554151860">
        <ele>516.90</ele>
        <time>2015-05-31T06:47:14Z</time>
      </trkpt>
      <trkpt lat="41.676082790" lon="2.554012390">
        <ele>516.90</ele>
        <time>2015-05-31T06:47:21Z</time>
      </trkpt>
      <trkpt lat="41.676123110" lon="2.553976090">
        <ele>517.30</ele>
        <time>2015-05-31T06:47:24Z</time>
      </trkpt>
      <trkpt lat="41.676209020" lon="2.553897720">
        <ele>518.30</ele>
        <time>2015-05-31T06:47:30Z</time>
      </trkpt>
      <trkpt lat="41.676341960" lon="2.553796640">
        <ele>519.70</ele>
        <time>2015-05-31T06:47:38Z</time>
      </trkpt>
      <trkpt lat="41.676429130" lon="2.553618270">
        <ele>520.20</ele>
        <time>2015-05-31T06:47:44Z</time>
      </trkpt>
      <trkpt lat="41.676511360" lon="2.553411570">
        <ele>522.10</ele>
        <time>2015-05-31T06:47:52Z</time>
      </trkpt>
      <trkpt lat="41.676587630" lon="2.553254410">
        <ele>523.10</ele>
        <time>2015-05-31T06:47:59Z</time>
      </trkpt>
      <trkpt lat="41.676626110" lon="2.553188450">
        <ele>524.10</ele>
        <time>2015-05-31T06:48:03Z</time>
      </trkpt>
      <trkpt lat="41.676682940" lon="2.553071430">
        <ele>525.00</ele>
        <time>2015-05-31T06:48:09Z</time>
      </trkpt>
      <trkpt lat="41.676781170" lon="2.552965570">
        <ele>527.40</ele>
        <time>2015-05-31T06:48:18Z</time>
      </trkpt>
      <trkpt lat="41.676916040" lon="2.552863900">
        <ele>529.80</ele>
        <time>2015-05-31T06:48:28Z</time>
      </trkpt>
      <trkpt lat="41.677022320" lon="2.552725930">
        <ele>530.30</ele>
        <time>2015-05-31T06:48:33Z</time>
      </trkpt>
      <trkpt lat="41.677091800" lon="2.552624600">
        <ele>528.40</ele>
        <time>2015-05-31T06:48:35Z</time>
      </trkpt>
      <trkpt lat="41.677238070" lon="2.552469780">
        <ele>526.90</ele>
        <time>2015-05-31T06:48:38Z</time>
      </trkpt>
      <trkpt lat="41.677405620" lon="2.552203240">
        <ele>526.90</ele>
        <time>2015-05-31T06:48:43Z</time>
      </trkpt>
      <trkpt lat="41.677459440" lon="2.552127720">
        <ele>527.90</ele>
        <time>2015-05-31T06:48:46Z</time>
      </trkpt>
      <trkpt lat="41.677596140" lon="2.552036860">
        <ele>528.90</ele>
        <time>2015-05-31T06:48:52Z</time>
      </trkpt>
      <trkpt lat="41.677638640" lon="2.552014390">
        <ele>528.90</ele>
        <time>2015-05-31T06:48:53Z</time>
      </trkpt>
      <trkpt lat="41.677750200" lon="2.551942560">
        <ele>526.50</ele>
        <time>2015-05-31T06:48:55Z</time>
      </trkpt>
      <trkpt lat="41.678067960" lon="2.551758240">
        <ele>523.10</ele>
        <time>2015-05-31T06:49:00Z</time>
      </trkpt>
      <trkpt lat="41.678207100" lon="2.551659590">
        <ele>522.10</ele>
        <time>2015-05-31T06:49:02Z</time>
      </trkpt>
      <trkpt lat="41.678453950" lon="2.551433690">
        <ele>523.10</ele>
        <time>2015-05-31T06:49:07Z</time>
      </trkpt>
      <trkpt lat="41.678530390" lon="2.551400000">
        <ele>524.10</ele>
        <time>2015-05-31T06:49:10Z</time>
      </trkpt>
      <trkpt lat="41.678709930" lon="2.551407040">
        <ele>524.50</ele>
        <time>2015-05-31T06:49:15Z</time>
      </trkpt>
      <trkpt lat="41.678892320" lon="2.551323720">
        <ele>522.10</ele>
        <time>2015-05-31T06:49:19Z</time>
      </trkpt>
      <trkpt lat="41.679078570" lon="2.551217860">
        <ele>520.70</ele>
        <time>2015-05-31T06:49:22Z</time>
      </trkpt>
      <trkpt lat="41.679264650" lon="2.551095740">
        <ele>520.70</ele>
        <time>2015-05-31T06:49:26Z</time>
      </trkpt>
      <trkpt lat="41.679331870" lon="2.550992890">
        <ele>523.10</ele>
        <time>2015-05-31T06:49:31Z</time>
      </trkpt>
      <trkpt lat="41.679453150" lon="2.550782090">
        <ele>524.50</ele>
        <time>2015-05-31T06:49:38Z</time>
      </trkpt>
      <trkpt lat="41.679539070" lon="2.550612520">
        <ele>524.50</ele>
        <time>2015-05-31T06:49:42Z</time>
      </trkpt>
      <trkpt lat="41.679640740" lon="2.550389810">
        <ele>522.10</ele>
        <time>2015-05-31T06:49:46Z</time>
      </trkpt>
      <trkpt lat="41.679806790" lon="2.550165680">
        <ele>518.30</ele>
        <time>2015-05-31T06:49:50Z</time>
      </trkpt>
      <trkpt lat="41.679843160" lon="2.550108180">
        <ele>517.30</ele>
        <time>2015-05-31T06:49:51Z</time>
      </trkpt>
      <trkpt lat="41.679912730" lon="2.549978090">
        <ele>515.90</ele>
        <time>2015-05-31T06:49:53Z</time>
      </trkpt>
      <trkpt lat="41.680049860" lon="2.549802910">
        <ele>513.00</ele>
        <time>2015-05-31T06:49:56Z</time>
      </trkpt>
      <trkpt lat="41.680251030" lon="2.549510720">
        <ele>510.10</ele>
        <time>2015-05-31T06:50:00Z</time>
      </trkpt>
      <trkpt lat="41.680414730" lon="2.549342410">
        <ele>509.60</ele>
        <time>2015-05-31T06:50:04Z</time>
      </trkpt>
      <trkpt lat="41.680570970" lon="2.549124900">
        <ele>509.60</ele>
        <time>2015-05-31T06:50:09Z</time>
      </trkpt>
      <trkpt lat="41.680633910" lon="2.548896240">
        <ele>508.20</ele>
        <time>2015-05-31T06:50:13Z</time>
      </trkpt>
      <trkpt lat="41.680636340" lon="2.548763300">
        <ele>505.80</ele>
        <time>2015-05-31T06:50:15Z</time>
      </trkpt>
      <trkpt lat="41.680661150" lon="2.548518550">
        <ele>502.40</ele>
        <time>2015-05-31T06:50:18Z</time>
      </trkpt>
      <trkpt lat="41.680672550" lon="2.548351670">
        <ele>501.50</ele>
        <time>2015-05-31T06:50:20Z</time>
      </trkpt>
      <trkpt lat="41.680677000" lon="2.547897700">
        <ele>498.10</ele>
        <time>2015-05-31T06:50:25Z</time>
      </trkpt>
      <trkpt lat="41.680695100" lon="2.547421530">
        <ele>496.70</ele>
        <time>2015-05-31T06:50:31Z</time>
      </trkpt>
      <trkpt lat="41.680705160" lon="2.547192790">
        <ele>498.10</ele>
        <time>2015-05-31T06:50:36Z</time>
      </trkpt>
      <trkpt lat="41.680699380" lon="2.546915350">
        <ele>500.50</ele>
        <time>2015-05-31T06:50:44Z</time>
      </trkpt>
      <trkpt lat="41.680691750" lon="2.546634970">
        <ele>501.00</ele>
        <time>2015-05-31T06:50:50Z</time>
      </trkpt>
      <trkpt lat="41.680754530" lon="2.546454840">
        <ele>500.00</ele>
        <time>2015-05-31T06:50:54Z</time>
      </trkpt>
      <trkpt lat="41.680871540" lon="2.546480070">
        <ele>496.70</ele>
        <time>2015-05-31T06:50:58Z</time>
      </trkpt>
      <trkpt lat="41.680886630" lon="2.546672610">
        <ele>493.80</ele>
        <time>2015-05-31T06:51:01Z</time>
      </trkpt>
      <trkpt lat="41.680936750" lon="2.546965720">
        <ele>491.40</ele>
        <time>2015-05-31T06:51:05Z</time>
      </trkpt>
      <trkpt lat="41.681000370" lon="2.547294790">
        <ele>488.00</ele>
        <time>2015-05-31T06:51:09Z</time>
      </trkpt>
      <trkpt lat="41.681022920" lon="2.547521110">
        <ele>484.60</ele>
        <time>2015-05-31T06:51:13Z</time>
      </trkpt>
      <trkpt lat="41.681003640" lon="2.547669130">
        <ele>481.80</ele>
        <time>2015-05-31T06:51:16Z</time>
      </trkpt>
      <trkpt lat="41.681019650" lon="2.547785140">
        <ele>480.30</ele>
        <time>2015-05-31T06:51:18Z</time>
      </trkpt>
      <trkpt lat="41.681055940" lon="2.547939450">
        <ele>479.40</ele>
        <time>2015-05-31T06:51:20Z</time>
      </trkpt>
      <trkpt lat="41.681160970" lon="2.548198360">
        <ele>476.00</ele>
        <time>2015-05-31T06:51:24Z</time>
      </trkpt>
      <trkpt lat="41.681327680" lon="2.548394580">
        <ele>474.10</ele>
        <time>2015-05-31T06:51:28Z</time>
      </trkpt>
      <trkpt lat="41.681431450" lon="2.548547800">
        <ele>470.70</ele>
        <time>2015-05-31T06:51:31Z</time>
      </trkpt>
      <trkpt lat="41.681556680" lon="2.548694660">
        <ele>466.90</ele>
        <time>2015-05-31T06:51:35Z</time>
      </trkpt>
      <trkpt lat="41.681687180" lon="2.548741010">
        <ele>463.50</ele>
        <time>2015-05-31T06:51:38Z</time>
      </trkpt>
      <trkpt lat="41.681790360" lon="2.548803370">
        <ele>460.60</ele>
        <time>2015-05-31T06:51:41Z</time>
      </trkpt>
      <trkpt lat="41.681828170" lon="2.548822310">
        <ele>459.70</ele>
        <time>2015-05-31T06:51:42Z</time>
      </trkpt>
      <trkpt lat="41.681920540" lon="2.548869500">
        <ele>456.30</ele>
        <time>2015-05-31T06:51:45Z</time>
      </trkpt>
      <trkpt lat="41.682031760" lon="2.548981320">
        <ele>452.00</ele>
        <time>2015-05-31T06:51:48Z</time>
      </trkpt>
      <trkpt lat="41.682097230" lon="2.549079300">
        <ele>449.60</ele>
        <time>2015-05-31T06:51:51Z</time>
      </trkpt>
      <trkpt lat="41.682145760" lon="2.549160100">
        <ele>447.20</ele>
        <time>2015-05-31T06:51:53Z</time>
      </trkpt>
      <trkpt lat="41.682236200" lon="2.549371160">
        <ele>443.30</ele>
        <time>2015-05-31T06:51:57Z</time>
      </trkpt>
      <trkpt lat="41.682292440" lon="2.549527480">
        <ele>442.30</ele>
        <time>2015-05-31T06:51:59Z</time>
      </trkpt>
      <trkpt lat="41.682368460" lon="2.549828730">
        <ele>439.00</ele>
        <time>2015-05-31T06:52:03Z</time>
      </trkpt>
      <trkpt lat="41.682385560" lon="2.549901230">
        <ele>437.50</ele>
        <time>2015-05-31T06:52:04Z</time>
      </trkpt>
      <trkpt lat="41.682364270" lon="2.550148500">
        <ele>435.10</ele>
        <time>2015-05-31T06:52:08Z</time>
      </trkpt>
      <trkpt lat="41.682313140" lon="2.550350500">
        <ele>433.20</ele>
        <time>2015-05-31T06:52:11Z</time>
      </trkpt>
      <trkpt lat="41.682188250" lon="2.550493830">
        <ele>430.30</ele>
        <time>2015-05-31T06:52:16Z</time>
      </trkpt>
      <trkpt lat="41.682183890" lon="2.550570020">
        <ele>428.90</ele>
        <time>2015-05-31T06:52:20Z</time>
      </trkpt>
      <trkpt lat="41.682199650" lon="2.550591730">
        <ele>428.90</ele>
        <time>2015-05-31T06:52:21Z</time>
      </trkpt>
      <trkpt lat="41.682284900" lon="2.550662810">
        <ele>427.90</ele>
        <time>2015-05-31T06:52:26Z</time>
      </trkpt>
      <trkpt lat="41.682384390" lon="2.550627360">
        <ele>427.40</ele>
        <time>2015-05-31T06:52:30Z</time>
      </trkpt>
      <trkpt lat="41.682454880" lon="2.550358210">
        <ele>425.00</ele>
        <time>2015-05-31T06:52:35Z</time>
      </trkpt>
      <trkpt lat="41.682470640" lon="2.550315210">
        <ele>424.60</ele>
        <time>2015-05-31T06:52:36Z</time>
      </trkpt>
      <trkpt lat="41.682645320" lon="2.549907520">
        <ele>420.20</ele>
        <time>2015-05-31T06:52:43Z</time>
      </trkpt>
      <trkpt lat="41.682642470" lon="2.549732840">
        <ele>419.30</ele>
        <time>2015-05-31T06:52:45Z</time>
      </trkpt>
      <trkpt lat="41.682758810" lon="2.549403600">
        <ele>416.90</ele>
        <time>2015-05-31T06:52:51Z</time>
      </trkpt>
      <trkpt lat="41.682918650" lon="2.549398150">
        <ele>415.00</ele>
        <time>2015-05-31T06:52:54Z</time>
      </trkpt>
      <trkpt lat="41.683028790" lon="2.549415250">
        <ele>414.00</ele>
        <time>2015-05-31T06:52:56Z</time>
      </trkpt>
      <trkpt lat="41.683168010" lon="2.549407200">
        <ele>411.60</ele>
        <time>2015-05-31T06:52:59Z</time>
      </trkpt>
      <trkpt lat="41.683366830" lon="2.549514240">
        <ele>406.80</ele>
        <time>2015-05-31T06:53:04Z</time>
      </trkpt>
      <trkpt lat="41.683446460" lon="2.549678190">
        <ele>402.90</ele>
        <time>2015-05-31T06:53:08Z</time>
      </trkpt>
      <trkpt lat="41.683558280" lon="2.549669470">
        <ele>401.50</ele>
        <time>2015-05-31T06:53:11Z</time>
      </trkpt>
      <trkpt lat="41.683606810" lon="2.549469560">
        <ele>401.00</ele>
        <time>2015-05-31T06:53:15Z</time>
      </trkpt>
      <trkpt lat="41.683699760" lon="2.549177450">
        <ele>395.70</ele>
        <time>2015-05-31T06:53:21Z</time>
      </trkpt>
      <trkpt lat="41.683783330" lon="2.549156500">
        <ele>394.80</ele>
        <time>2015-05-31T06:53:23Z</time>
      </trkpt>
      <trkpt lat="41.683933450" lon="2.549139320">
        <ele>391.90</ele>
        <time>2015-05-31T06:53:27Z</time>
      </trkpt>
      <trkpt lat="41.684107040" lon="2.549063790">
        <ele>390.00</ele>
        <time>2015-05-31T06:53:35Z</time>
      </trkpt>
      <trkpt lat="41.684318930" lon="2.549013000">
        <ele>389.00</ele>
        <time>2015-05-31T06:53:42Z</time>
      </trkpt>
      <trkpt lat="41.684352130" lon="2.549000090">
        <ele>389.00</ele>
        <time>2015-05-31T06:53:47Z</time>
      </trkpt>
      <trkpt lat="41.684382800" lon="2.548999840">
        <ele>389.00</ele>
        <time>2015-05-31T06:53:57Z</time>
      </trkpt>
      <trkpt lat="41.684421700" lon="2.548971090">
        <ele>389.00</ele>
        <time>2015-05-31T06:54:09Z</time>
      </trkpt>
      <trkpt lat="41.684455640" lon="2.548935640">
        <ele>389.00</ele>
        <time>2015-05-31T06:54:19Z</time>
      </trkpt>
      <trkpt lat="41.684460250" lon="2.548932700">
        <ele>389.00</ele>
        <time>2015-05-31T06:54:26Z</time>
      </trkpt>
      <trkpt lat="41.684470390" lon="2.548944860">
        <ele>389.00</ele>
        <time>2015-05-31T06:54:31Z</time>
      </trkpt>
      <trkpt lat="41.684547590" lon="2.548923230">
        <ele>389.00</ele>
        <time>2015-05-31T06:54:39Z</time>
      </trkpt>
      <trkpt lat="41.684606940" lon="2.548914010">
        <ele>390.40</ele>
        <time>2015-05-31T06:54:44Z</time>
      </trkpt>
      <trkpt lat="41.684640710" lon="2.548972010">
        <ele>390.40</ele>
        <time>2015-05-31T06:54:52Z</time>
      </trkpt>
      <trkpt lat="41.684629990" lon="2.548963970">
        <ele>390.00</ele>
        <time>2015-05-31T06:55:04Z</time>
      </trkpt>
      <trkpt lat="41.684634010" lon="2.548964550">
        <ele>390.00</ele>
        <time>2015-05-31T06:55:22Z</time>
      </trkpt>
      <trkpt lat="41.684654880" lon="2.548953320">
        <ele>390.00</ele>
        <time>2015-05-31T06:55:36Z</time>
      </trkpt>
      <trkpt lat="41.684661500" lon="2.548956760">
        <ele>390.00</ele>
        <time>2015-05-31T06:55:52Z</time>
      </trkpt>
      <trkpt lat="41.684656810" lon="2.548981900">
        <ele>390.00</ele>
        <time>2015-05-31T06:56:08Z</time>
      </trkpt>
      <trkpt lat="41.684645910" lon="2.548984500">
        <ele>390.00</ele>
        <time>2015-05-31T06:56:25Z</time>
      </trkpt>
      <trkpt lat="41.684640710" lon="2.548952570">
        <ele>390.00</ele>
        <time>2015-05-31T06:56:34Z</time>
      </trkpt>
      <trkpt lat="41.684648510" lon="2.548935470">
        <ele>390.00</ele>
        <time>2015-05-31T06:56:39Z</time>
      </trkpt>
      <trkpt lat="41.684710700" lon="2.548827510">
        <ele>390.40</ele>
        <time>2015-05-31T06:56:47Z</time>
      </trkpt>
      <trkpt lat="41.684789330" lon="2.548729190">
        <ele>390.90</ele>
        <time>2015-05-31T06:56:54Z</time>
      </trkpt>
      <trkpt lat="41.684829310" lon="2.548684180">
        <ele>391.90</ele>
        <time>2015-05-31T06:56:58Z</time>
      </trkpt>
      <trkpt lat="41.684907590" lon="2.548608150">
        <ele>393.30</ele>
        <time>2015-05-31T06:57:04Z</time>
      </trkpt>
      <trkpt lat="41.685048830" lon="2.548471610">
        <ele>395.70</ele>
        <time>2015-05-31T06:57:15Z</time>
      </trkpt>
      <trkpt lat="41.685161730" lon="2.548336750">
        <ele>396.70</ele>
        <time>2015-05-31T06:57:23Z</time>
      </trkpt>
      <trkpt lat="41.685292580" lon="2.548252590">
        <ele>398.10</ele>
        <time>2015-05-31T06:57:30Z</time>
      </trkpt>
      <trkpt lat="41.685470100" lon="2.548258040">
        <ele>399.10</ele>
        <time>2015-05-31T06:57:39Z</time>
      </trkpt>
      <trkpt lat="41.685590380" lon="2.548317720">
        <ele>400.10</ele>
        <time>2015-05-31T06:57:46Z</time>
      </trkpt>
      <trkpt lat="41.685724580" lon="2.548437500">
        <ele>402.50</ele>
        <time>2015-05-31T06:57:55Z</time>
      </trkpt>
      <trkpt lat="41.685862800" lon="2.548490140">
        <ele>403.40</ele>
        <time>2015-05-31T06:58:02Z</time>
      </trkpt>
      <trkpt lat="41.686037220" lon="2.548506730">
        <ele>403.40</ele>
        <time>2015-05-31T06:58:08Z</time>
      </trkpt>
      <trkpt lat="41.686182980" lon="2.548514860">
        <ele>402.00</ele>
        <time>2015-05-31T06:58:11Z</time>
      </trkpt>
      <trkpt lat="41.686367140" lon="2.548453930">
        <ele>400.50</ele>
        <time>2015-05-31T06:58:15Z</time>
      </trkpt>
      <trkpt lat="41.686486240" lon="2.548238930">
        <ele>399.60</ele>
        <time>2015-05-31T06:58:19Z</time>
      </trkpt>
      <trkpt lat="41.686674250" lon="2.548108090">
        <ele>399.10</ele>
        <time>2015-05-31T06:58:23Z</time>
      </trkpt>
      <trkpt lat="41.686790090" lon="2.547892590">
        <ele>398.60</ele>
        <time>2015-05-31T06:58:27Z</time>
      </trkpt>
      <trkpt lat="41.686820010" lon="2.547745490">
        <ele>397.60</ele>
        <time>2015-05-31T06:58:29Z</time>
      </trkpt>
      <trkpt lat="41.686868790" lon="2.547361350">
        <ele>397.60</ele>
        <time>2015-05-31T06:58:34Z</time>
      </trkpt>
      <trkpt lat="41.686825210" lon="2.546908220">
        <ele>394.30</ele>
        <time>2015-05-31T06:58:40Z</time>
      </trkpt>
      <trkpt lat="41.686777350" lon="2.546673360">
        <ele>392.80</ele>
        <time>2015-05-31T06:58:43Z</time>
      </trkpt>
      <trkpt lat="41.686763930" lon="2.546327100">
        <ele>390.00</ele>
        <time>2015-05-31T06:58:47Z</time>
      </trkpt>
      <trkpt lat="41.686743400" lon="2.545975820">
        <ele>386.10</ele>
        <time>2015-05-31T06:58:53Z</time>
      </trkpt>
      <trkpt lat="41.686707360" lon="2.545934240">
        <ele>386.10</ele>
        <time>2015-05-31T06:58:54Z</time>
      </trkpt>
      <trkpt lat="41.686579360" lon="2.545572400">
        <ele>384.20</ele>
        <time>2015-05-31T06:59:00Z</time>
      </trkpt>
      <trkpt lat="41.686513150" lon="2.545352200">
        <ele>381.30</ele>
        <time>2015-05-31T06:59:04Z</time>
      </trkpt>
      <trkpt lat="41.686468470" lon="2.545308120">
        <ele>380.80</ele>
        <time>2015-05-31T06:59:05Z</time>
      </trkpt>
      <trkpt lat="41.686282730" lon="2.545009970">
        <ele>377.90</ele>
        <time>2015-05-31T06:59:10Z</time>
      </trkpt>
      <trkpt lat="41.686219110" lon="2.544840990">
        <ele>376.00</ele>
        <time>2015-05-31T06:59:14Z</time>
      </trkpt>
      <trkpt lat="41.686279880" lon="2.544815430">
        <ele>374.60</ele>
        <time>2015-05-31T06:59:18Z</time>
      </trkpt>
      <trkpt lat="41.686289940" lon="2.544819120">
        <ele>374.60</ele>
        <time>2015-05-31T06:59:22Z</time>
      </trkpt>
      <trkpt lat="41.686314330" lon="2.544920120">
        <ele>374.10</ele>
        <time>2015-05-31T06:59:26Z</time>
      </trkpt>
      <trkpt lat="41.686501410" lon="2.545099490">
        <ele>372.20</ele>
        <time>2015-05-31T06:59:31Z</time>
      </trkpt>
      <trkpt lat="41.686550280" lon="2.545106610">
        <ele>371.70</ele>
        <time>2015-05-31T06:59:32Z</time>
      </trkpt>
      <trkpt lat="41.686692860" lon="2.545132930">
        <ele>370.20</ele>
        <time>2015-05-31T06:59:35Z</time>
      </trkpt>
      <trkpt lat="41.686783300" lon="2.545299230">
        <ele>368.30</ele>
        <time>2015-05-31T06:59:38Z</time>
      </trkpt>
      <trkpt lat="41.686815820" lon="2.545449180">
        <ele>367.40</ele>
        <time>2015-05-31T06:59:40Z</time>
      </trkpt>
      <trkpt lat="41.686966110" lon="2.545611790">
        <ele>364.50</ele>
        <time>2015-05-31T06:59:44Z</time>
      </trkpt>
      <trkpt lat="41.687146820" lon="2.545663840">
        <ele>363.00</ele>
        <time>2015-05-31T06:59:48Z</time>
      </trkpt>
      <trkpt lat="41.687157130" lon="2.545806250">
        <ele>362.10</ele>
        <time>2015-05-31T06:59:51Z</time>
      </trkpt>
      <trkpt lat="41.687148240" lon="2.545867610">
        <ele>362.10</ele>
        <time>2015-05-31T06:59:52Z</time>
      </trkpt>
      <trkpt lat="41.687129470" lon="2.546008340">
        <ele>361.10</ele>
        <time>2015-05-31T06:59:54Z</time>
      </trkpt>
      <trkpt lat="41.687187390" lon="2.546234990">
        <ele>358.70</ele>
        <time>2015-05-31T06:59:59Z</time>
      </trkpt>
      <trkpt lat="41.687250500" lon="2.546223000">
        <ele>356.80</ele>
        <time>2015-05-31T07:00:01Z</time>
      </trkpt>
      <trkpt lat="41.687322760" lon="2.546182520">
        <ele>355.30</ele>
        <time>2015-05-31T07:00:03Z</time>
      </trkpt>
      <trkpt lat="41.687553010" lon="2.546058300">
        <ele>353.90</ele>
        <time>2015-05-31T07:00:07Z</time>
      </trkpt>
      <trkpt lat="41.687806140" lon="2.545935420">
        <ele>352.00</ele>
        <time>2015-05-31T07:00:11Z</time>
      </trkpt>
      <trkpt lat="41.688059360" lon="2.545873810">
        <ele>352.00</ele>
        <time>2015-05-31T07:00:16Z</time>
      </trkpt>
      <trkpt lat="41.688381390" lon="2.545809350">
        <ele>349.60</ele>
        <time>2015-05-31T07:00:22Z</time>
      </trkpt>
      <trkpt lat="41.688574930" lon="2.545599810">
        <ele>346.70</ele>
        <time>2015-05-31T07:00:26Z</time>
      </trkpt>
      <trkpt lat="41.688696720" lon="2.545471730">
        <ele>344.30</ele>
        <time>2015-05-31T07:00:29Z</time>
      </trkpt>
      <trkpt lat="41.688821100" lon="2.545363100">
        <ele>342.90</ele>
        <time>2015-05-31T07:00:32Z</time>
      </trkpt>
      <trkpt lat="41.688964770" lon="2.545220940">
        <ele>339.50</ele>
        <time>2015-05-31T07:00:37Z</time>
      </trkpt>
      <trkpt lat="41.689072390" lon="2.544865300">
        <ele>336.60</ele>
        <time>2015-05-31T07:00:43Z</time>
      </trkpt>
      <trkpt lat="41.689126460" lon="2.544713340">
        <ele>334.20</ele>
        <time>2015-05-31T07:00:46Z</time>
      </trkpt>
      <trkpt lat="41.689242880" lon="2.544521050">
        <ele>332.30</ele>
        <time>2015-05-31T07:00:49Z</time>
      </trkpt>
      <trkpt lat="41.689400040" lon="2.544202040">
        <ele>328.00</ele>
        <time>2015-05-31T07:00:53Z</time>
      </trkpt>
      <trkpt lat="41.689438010" lon="2.544118390">
        <ele>328.00</ele>
        <time>2015-05-31T07:00:54Z</time>
      </trkpt>
      <trkpt lat="41.689469360" lon="2.544044800">
        <ele>327.00</ele>
        <time>2015-05-31T07:00:55Z</time>
      </trkpt>
      <trkpt lat="41.689530470" lon="2.543849160">
        <ele>324.60</ele>
        <time>2015-05-31T07:00:58Z</time>
      </trkpt>
      <trkpt lat="41.689647140" lon="2.543629300">
        <ele>319.30</ele>
        <time>2015-05-31T07:01:02Z</time>
      </trkpt>
      <trkpt lat="41.689723500" lon="2.543517150">
        <ele>316.40</ele>
        <time>2015-05-31T07:01:04Z</time>
      </trkpt>
      <trkpt lat="41.689840510" lon="2.543312970">
        <ele>311.60</ele>
        <time>2015-05-31T07:01:08Z</time>
      </trkpt>
      <trkpt lat="41.689914780" lon="2.543186400">
        <ele>308.70</ele>
        <time>2015-05-31T07:01:11Z</time>
      </trkpt>
      <trkpt lat="41.689992810" lon="2.543007530">
        <ele>303.90</ele>
        <time>2015-05-31T07:01:15Z</time>
      </trkpt>
      <trkpt lat="41.690066820" lon="2.542799660">
        <ele>299.10</ele>
        <time>2015-05-31T07:01:20Z</time>
      </trkpt>
      <trkpt lat="41.690138070" lon="2.542649540">
        <ele>295.70</ele>
        <time>2015-05-31T07:01:23Z</time>
      </trkpt>
      <trkpt lat="41.690176040" lon="2.542500930">
        <ele>292.40</ele>
        <time>2015-05-31T07:01:27Z</time>
      </trkpt>
      <trkpt lat="41.690209150" lon="2.542347710">
        <ele>289.00</ele>
        <time>2015-05-31T07:01:30Z</time>
      </trkpt>
      <trkpt lat="41.690221800" lon="2.542177890">
        <ele>284.70</ele>
        <time>2015-05-31T07:01:33Z</time>
      </trkpt>
      <trkpt lat="41.690299000" lon="2.541848900">
        <ele>282.30</ele>
        <time>2015-05-31T07:01:37Z</time>
      </trkpt>
      <trkpt lat="41.690375440" lon="2.541548500">
        <ele>280.80</ele>
        <time>2015-05-31T07:01:40Z</time>
      </trkpt>
      <trkpt lat="41.690442580" lon="2.541162930">
        <ele>279.40</ele>
        <time>2015-05-31T07:01:44Z</time>
      </trkpt>
      <trkpt lat="41.690600080" lon="2.540793960">
        <ele>278.40</ele>
        <time>2015-05-31T07:01:50Z</time>
      </trkpt>
      <trkpt lat="41.690634190" lon="2.540723720">
        <ele>278.00</ele>
        <time>2015-05-31T07:01:51Z</time>
      </trkpt>
      <trkpt lat="41.690729580" lon="2.540321130">
        <ele>277.00</ele>
        <time>2015-05-31T07:01:56Z</time>
      </trkpt>
      <trkpt lat="41.690846170" lon="2.539905980">
        <ele>274.10</ele>
        <time>2015-05-31T07:02:02Z</time>
      </trkpt>
      <trkpt lat="41.690871150" lon="2.539626610">
        <ele>270.80</ele>
        <time>2015-05-31T07:02:06Z</time>
      </trkpt>
      <trkpt lat="41.690942230" lon="2.539570700">
        <ele>268.80</ele>
        <time>2015-05-31T07:02:10Z</time>
      </trkpt>
      <trkpt lat="41.691117750" lon="2.539631220">
        <ele>264.50</ele>
        <time>2015-05-31T07:02:15Z</time>
      </trkpt>
      <trkpt lat="41.691261160" lon="2.539658290">
        <ele>261.10</ele>
        <time>2015-05-31T07:02:19Z</time>
      </trkpt>
      <trkpt lat="41.691391420" lon="2.539599120">
        <ele>257.30</ele>
        <time>2015-05-31T07:02:23Z</time>
      </trkpt>
      <trkpt lat="41.691422930" lon="2.539584030">
        <ele>256.80</ele>
        <time>2015-05-31T07:02:24Z</time>
      </trkpt>
      <trkpt lat="41.691560140" lon="2.539473560">
        <ele>252.50</ele>
        <time>2015-05-31T07:02:28Z</time>
      </trkpt>
      <trkpt lat="41.691578750" lon="2.539441290">
        <ele>251.50</ele>
        <time>2015-05-31T07:02:29Z</time>
      </trkpt>
      <trkpt lat="41.691677070" lon="2.539280100">
        <ele>246.70</ele>
        <time>2015-05-31T07:02:34Z</time>
      </trkpt>
      <trkpt lat="41.691705740" lon="2.539257970">
        <ele>246.20</ele>
        <time>2015-05-31T07:02:35Z</time>
      </trkpt>
      <trkpt lat="41.691845880" lon="2.539261580">
        <ele>241.90</ele>
        <time>2015-05-31T07:02:41Z</time>
      </trkpt>
      <trkpt lat="41.691970940" lon="2.539229060">
        <ele>238.10</ele>
        <time>2015-05-31T07:02:45Z</time>
      </trkpt>
      <trkpt lat="41.692096840" lon="2.539197460">
        <ele>234.20</ele>
        <time>2015-05-31T07:02:49Z</time>
      </trkpt>
      <trkpt lat="41.692171520" lon="2.539213630">
        <ele>232.80</ele>
        <time>2015-05-31T07:02:51Z</time>
      </trkpt>
      <trkpt lat="41.692350640" lon="2.539203740">
        <ele>229.90</ele>
        <time>2015-05-31T07:02:54Z</time>
      </trkpt>
      <trkpt lat="41.692554490" lon="2.539008030">
        <ele>225.10</ele>
        <time>2015-05-31T07:02:59Z</time>
      </trkpt>
      <trkpt lat="41.692580050" lon="2.538888750">
        <ele>224.10</ele>
        <time>2015-05-31T07:03:01Z</time>
      </trkpt>
      <trkpt lat="41.692625900" lon="2.538779870">
        <ele>222.20</ele>
        <time>2015-05-31T07:03:03Z</time>
      </trkpt>
      <trkpt lat="41.692844920" lon="2.538585490">
        <ele>219.30</ele>
        <time>2015-05-31T07:03:08Z</time>
      </trkpt>
      <trkpt lat="41.693084900" lon="2.538354150">
        <ele>216.40</ele>
        <time>2015-05-31T07:03:14Z</time>
      </trkpt>
      <trkpt lat="41.693134260" lon="2.538267150">
        <ele>214.50</ele>
        <time>2015-05-31T07:03:17Z</time>
      </trkpt>
      <trkpt lat="41.693154630" lon="2.538224400">
        <ele>213.60</ele>
        <time>2015-05-31T07:03:19Z</time>
      </trkpt>
      <trkpt lat="41.693107950" lon="2.538076210">
        <ele>211.60</ele>
        <time>2015-05-31T07:03:26Z</time>
      </trkpt>
      <trkpt lat="41.693053130" lon="2.538060870">
        <ele>211.20</ele>
        <time>2015-05-31T07:03:28Z</time>
      </trkpt>
      <trkpt lat="41.692842160" lon="2.538045530">
        <ele>207.80</ele>
        <time>2015-05-31T07:03:37Z</time>
      </trkpt>
      <trkpt lat="41.692835370" lon="2.538034300">
        <ele>207.30</ele>
        <time>2015-05-31T07:03:43Z</time>
      </trkpt>
      <trkpt lat="41.692814080" lon="2.538036140">
        <ele>207.30</ele>
        <time>2015-05-31T07:03:56Z</time>
      </trkpt>
      <trkpt lat="41.692616600" lon="2.538018630">
        <ele>204.90</ele>
        <time>2015-05-31T07:04:04Z</time>
      </trkpt>
      <trkpt lat="41.692401180" lon="2.537989460">
        <ele>203.00</ele>
        <time>2015-05-31T07:04:09Z</time>
      </trkpt>
      <trkpt lat="41.692108070" lon="2.537948300">
        <ele>201.50</ele>
        <time>2015-05-31T07:04:14Z</time>
      </trkpt>
      <trkpt lat="41.692026430" lon="2.537918380">
        <ele>200.10</ele>
        <time>2015-05-31T07:04:16Z</time>
      </trkpt>
      <trkpt lat="41.691991310" lon="2.537861630">
        <ele>199.10</ele>
        <time>2015-05-31T07:04:18Z</time>
      </trkpt>
      <trkpt lat="41.692004380" lon="2.537727610">
        <ele>199.10</ele>
        <time>2015-05-31T07:04:22Z</time>
      </trkpt>
      <trkpt lat="41.691955850" lon="2.537533730">
        <ele>199.10</ele>
        <time>2015-05-31T07:04:26Z</time>
      </trkpt>
      <trkpt lat="41.691862390" lon="2.537445390">
        <ele>199.60</ele>
        <time>2015-05-31T07:04:29Z</time>
      </trkpt>
      <trkpt lat="41.691673220" lon="2.537410690">
        <ele>199.10</ele>
        <time>2015-05-31T07:04:33Z</time>
      </trkpt>
      <trkpt lat="41.691486550" lon="2.537377750">
        <ele>196.70</ele>
        <time>2015-05-31T07:04:38Z</time>
      </trkpt>
      <trkpt lat="41.691474900" lon="2.537353940">
        <ele>197.20</ele>
        <time>2015-05-31T07:04:46Z</time>
      </trkpt>
      <trkpt lat="41.691388400" lon="2.537293590">
        <ele>196.30</ele>
        <time>2015-05-31T07:04:52Z</time>
      </trkpt>
      <trkpt lat="41.691285470" lon="2.537157390">
        <ele>193.80</ele>
        <time>2015-05-31T07:04:57Z</time>
      </trkpt>
      <trkpt lat="41.691216650" lon="2.536983710">
        <ele>190.00</ele>
        <time>2015-05-31T07:05:01Z</time>
      </trkpt>
      <trkpt lat="41.691209530" lon="2.536890090">
        <ele>189.00</ele>
        <time>2015-05-31T07:05:03Z</time>
      </trkpt>
      <trkpt lat="41.691215060" lon="2.536766870">
        <ele>187.10</ele>
        <time>2015-05-31T07:05:05Z</time>
      </trkpt>
      <trkpt lat="41.691237520" lon="2.536568140">
        <ele>183.80</ele>
        <time>2015-05-31T07:05:08Z</time>
      </trkpt>
      <trkpt lat="41.691270460" lon="2.536398740">
        <ele>181.40</ele>
        <time>2015-05-31T07:05:12Z</time>
      </trkpt>
      <trkpt lat="41.691280770" lon="2.536370320">
        <ele>180.90</ele>
        <time>2015-05-31T07:05:13Z</time>
      </trkpt>
      <trkpt lat="41.691471630" lon="2.536318860">
        <ele>178.50</ele>
        <time>2015-05-31T07:05:18Z</time>
      </trkpt>
      <trkpt lat="41.691700120" lon="2.536394550">
        <ele>174.60</ele>
        <time>2015-05-31T07:05:23Z</time>
      </trkpt>
      <trkpt lat="41.691781590" lon="2.536393040">
        <ele>174.10</ele>
        <time>2015-05-31T07:05:25Z</time>
      </trkpt>
      <trkpt lat="41.691886280" lon="2.536401000">
        <ele>171.70</ele>
        <time>2015-05-31T07:05:28Z</time>
      </trkpt>
      <trkpt lat="41.691934230" lon="2.536353480">
        <ele>171.30</ele>
        <time>2015-05-31T07:05:30Z</time>
      </trkpt>
      <trkpt lat="41.691917040" lon="2.536246020">
        <ele>169.80</ele>
        <time>2015-05-31T07:05:34Z</time>
      </trkpt>
      <trkpt lat="41.691896340" lon="2.536232190">
        <ele>169.80</ele>
        <time>2015-05-31T07:05:35Z</time>
      </trkpt>
      <trkpt lat="41.691833560" lon="2.536167730">
        <ele>169.80</ele>
        <time>2015-05-31T07:05:42Z</time>
      </trkpt>
      <trkpt lat="41.691780250" lon="2.536101270">
        <ele>169.80</ele>
        <time>2015-05-31T07:05:50Z</time>
      </trkpt>
      <trkpt lat="41.691686540" lon="2.535886770">
        <ele>169.80</ele>
        <time>2015-05-31T07:05:57Z</time>
      </trkpt>
      <trkpt lat="41.691527200" lon="2.535667920">
        <ele>169.80</ele>
        <time>2015-05-31T07:06:05Z</time>
      </trkpt>
      <trkpt lat="41.691467270" lon="2.535615790">
        <ele>170.80</ele>
        <time>2015-05-31T07:06:08Z</time>
      </trkpt>
      <trkpt lat="41.691283960" lon="2.535545710">
        <ele>172.20</ele>
        <time>2015-05-31T07:06:16Z</time>
      </trkpt>
      <trkpt lat="41.691099140" lon="2.535485200">
        <ele>172.70</ele>
        <time>2015-05-31T07:06:23Z</time>
      </trkpt>
      <trkpt lat="41.691041390" lon="2.535430550">
        <ele>171.70</ele>
        <time>2015-05-31T07:06:27Z</time>
      </trkpt>
      <trkpt lat="41.690931920" lon="2.535445130">
        <ele>172.70</ele>
        <time>2015-05-31T07:06:34Z</time>
      </trkpt>
      <trkpt lat="41.690797470" lon="2.535606730">
        <ele>173.70</ele>
        <time>2015-05-31T07:06:42Z</time>
      </trkpt>
      <trkpt lat="41.690701000" lon="2.535679570">
        <ele>175.10</ele>
        <time>2015-05-31T07:06:48Z</time>
      </trkpt>
      <trkpt lat="41.690671830" lon="2.535621070">
        <ele>175.60</ele>
        <time>2015-05-31T07:06:52Z</time>
      </trkpt>
      <trkpt lat="41.690679370" lon="2.535580250">
        <ele>176.10</ele>
        <time>2015-05-31T07:06:55Z</time>
      </trkpt>
      <trkpt lat="41.690712400" lon="2.535488630">
        <ele>177.50</ele>
        <time>2015-05-31T07:07:01Z</time>
      </trkpt>
      <trkpt lat="41.690727320" lon="2.535460800">
        <ele>177.50</ele>
        <time>2015-05-31T07:07:03Z</time>
      </trkpt>
      <trkpt lat="41.690787160" lon="2.535359630">
        <ele>178.50</ele>
        <time>2015-05-31T07:07:10Z</time>
      </trkpt>
      <trkpt lat="41.690876600" lon="2.535265930">
        <ele>181.80</ele>
        <time>2015-05-31T07:07:18Z</time>
      </trkpt>
      <trkpt lat="41.690941310" lon="2.535124610">
        <ele>183.30</ele>
        <time>2015-05-31T07:07:26Z</time>
      </trkpt>
      <trkpt lat="41.690939460" lon="2.534956970">
        <ele>184.20</ele>
        <time>2015-05-31T07:07:33Z</time>
      </trkpt>
      <trkpt lat="41.690918510" lon="2.534700650">
        <ele>184.20</ele>
        <time>2015-05-31T07:07:40Z</time>
      </trkpt>
      <trkpt lat="41.690955140" lon="2.534475010">
        <ele>184.20</ele>
        <time>2015-05-31T07:07:44Z</time>
      </trkpt>
      <trkpt lat="41.690986320" lon="2.534354230">
        <ele>182.80</ele>
        <time>2015-05-31T07:07:46Z</time>
      </trkpt>
      <trkpt lat="41.690999310" lon="2.534246520">
        <ele>182.30</ele>
        <time>2015-05-31T07:07:48Z</time>
      </trkpt>
      <trkpt lat="41.690962010" lon="2.534154900">
        <ele>182.30</ele>
        <time>2015-05-31T07:07:51Z</time>
      </trkpt>
      <trkpt lat="41.690911550" lon="2.534097570">
        <ele>183.80</ele>
        <time>2015-05-31T07:07:55Z</time>
      </trkpt>
      <trkpt lat="41.690774000" lon="2.534019120">
        <ele>185.70</ele>
        <time>2015-05-31T07:08:03Z</time>
      </trkpt>
      <trkpt lat="41.690749700" lon="2.533993550">
        <ele>186.20</ele>
        <time>2015-05-31T07:08:05Z</time>
      </trkpt>
      <trkpt lat="41.690658080" lon="2.533843600">
        <ele>188.10</ele>
        <time>2015-05-31T07:08:14Z</time>
      </trkpt>
      <trkpt lat="41.690601840" lon="2.533732790">
        <ele>190.00</ele>
        <time>2015-05-31T07:08:21Z</time>
      </trkpt>
      <trkpt lat="41.690502600" lon="2.533650980">
        <ele>191.40</ele>
        <time>2015-05-31T07:08:29Z</time>
      </trkpt>
      <trkpt lat="41.690462780" lon="2.533585020">
        <ele>191.90</ele>
        <time>2015-05-31T07:08:33Z</time>
      </trkpt>
      <trkpt lat="41.690485160" lon="2.533443110">
        <ele>193.80</ele>
        <time>2015-05-31T07:08:41Z</time>
      </trkpt>
      <trkpt lat="41.690535540" lon="2.533278660">
        <ele>195.80</ele>
        <time>2015-05-31T07:08:50Z</time>
      </trkpt>
      <trkpt lat="41.690528250" lon="2.533182180">
        <ele>196.70</ele>
        <time>2015-05-31T07:08:54Z</time>
      </trkpt>
      <trkpt lat="41.690478540" lon="2.533095680">
        <ele>198.20</ele>
        <time>2015-05-31T07:09:00Z</time>
      </trkpt>
      <trkpt lat="41.690388020" lon="2.533018320">
        <ele>198.70</ele>
        <time>2015-05-31T07:09:07Z</time>
      </trkpt>
      <trkpt lat="41.690365810" lon="2.532965340">
        <ele>199.60</ele>
        <time>2015-05-31T07:09:10Z</time>
      </trkpt>
      <trkpt lat="41.690394220" lon="2.532881780">
        <ele>200.60</ele>
        <time>2015-05-31T07:09:16Z</time>
      </trkpt>
      <trkpt lat="41.690525560" lon="2.532876660">
        <ele>202.50</ele>
        <time>2015-05-31T07:09:26Z</time>
      </trkpt>
      <trkpt lat="41.690619110" lon="2.532750350">
        <ele>203.90</ele>
        <time>2015-05-31T07:09:37Z</time>
      </trkpt>
      <trkpt lat="41.690653220" lon="2.532729140">
        <ele>203.90</ele>
        <time>2015-05-31T07:09:39Z</time>
      </trkpt>
      <trkpt lat="41.690760010" lon="2.532802650">
        <ele>203.90</ele>
        <time>2015-05-31T07:09:45Z</time>
      </trkpt>
      <trkpt lat="41.690766210" lon="2.532960650">
        <ele>205.40</ele>
        <time>2015-05-31T07:09:53Z</time>
      </trkpt>
      <trkpt lat="41.690763690" lon="2.533115630">
        <ele>206.80</ele>
        <time>2015-05-31T07:10:01Z</time>
      </trkpt>
      <trkpt lat="41.690763020" lon="2.533175390">
        <ele>208.30</ele>
        <time>2015-05-31T07:10:05Z</time>
      </trkpt>
      <trkpt lat="41.690790270" lon="2.533313700">
        <ele>210.20</ele>
        <time>2015-05-31T07:10:13Z</time>
      </trkpt>
      <trkpt lat="41.690938290" lon="2.533406990">
        <ele>211.60</ele>
        <time>2015-05-31T07:10:22Z</time>
      </trkpt>
      <trkpt lat="41.691043730" lon="2.533467170">
        <ele>212.60</ele>
        <time>2015-05-31T07:10:29Z</time>
      </trkpt>
      <trkpt lat="41.691161840" lon="2.533538670">
        <ele>214.00</ele>
        <time>2015-05-31T07:10:38Z</time>
      </trkpt>
      <trkpt lat="41.691278510" lon="2.533583340">
        <ele>215.00</ele>
        <time>2015-05-31T07:10:45Z</time>
      </trkpt>
      <trkpt lat="41.691379930" lon="2.533548810">
        <ele>215.50</ele>
        <time>2015-05-31T07:10:51Z</time>
      </trkpt>
      <trkpt lat="41.691513460" lon="2.533499440">
        <ele>216.40</ele>
        <time>2015-05-31T07:10:59Z</time>
      </trkpt>
      <trkpt lat="41.691644050" lon="2.533498430">
        <ele>217.40</ele>
        <time>2015-05-31T07:11:06Z</time>
      </trkpt>
      <trkpt lat="41.691798020" lon="2.533431800">
        <ele>219.80</ele>
        <time>2015-05-31T07:11:15Z</time>
      </trkpt>
      <trkpt lat="41.691900280" lon="2.533375640">
        <ele>220.30</ele>
        <time>2015-05-31T07:11:21Z</time>
      </trkpt>
      <trkpt lat="41.691927190" lon="2.533377150">
        <ele>220.30</ele>
        <time>2015-05-31T07:11:22Z</time>
      </trkpt>
      <trkpt lat="41.692001620" lon="2.533446970">
        <ele>220.30</ele>
        <time>2015-05-31T07:11:26Z</time>
      </trkpt>
      <trkpt lat="41.691962390" lon="2.533643440">
        <ele>222.70</ele>
        <time>2015-05-31T07:11:36Z</time>
      </trkpt>
      <trkpt lat="41.691958280" lon="2.533663810">
        <ele>222.20</ele>
        <time>2015-05-31T07:11:37Z</time>
      </trkpt>
      <trkpt lat="41.691959540" lon="2.533824570">
        <ele>223.20</ele>
        <time>2015-05-31T07:11:46Z</time>
      </trkpt>
      <trkpt lat="41.692022990" lon="2.533764390">
        <ele>224.60</ele>
        <time>2015-05-31T07:11:51Z</time>
      </trkpt>
      <trkpt lat="41.692071940" lon="2.533671520">
        <ele>226.10</ele>
        <time>2015-05-31T07:11:57Z</time>
      </trkpt>
      <trkpt lat="41.692099350" lon="2.533641010">
        <ele>227.00</ele>
        <time>2015-05-31T07:12:00Z</time>
      </trkpt>
      <trkpt lat="41.692176550" lon="2.533586780">
        <ele>228.50</ele>
        <time>2015-05-31T07:12:07Z</time>
      </trkpt>
      <trkpt lat="41.692285180" lon="2.533485690">
        <ele>231.30</ele>
        <time>2015-05-31T07:12:17Z</time>
      </trkpt>
      <trkpt lat="41.692314260" lon="2.533436660">
        <ele>232.30</ele>
        <time>2015-05-31T07:12:21Z</time>
      </trkpt>
      <trkpt lat="41.692317700" lon="2.533324170">
        <ele>233.70</ele>
        <time>2015-05-31T07:12:27Z</time>
      </trkpt>
      <trkpt lat="41.692330780" lon="2.533161480">
        <ele>235.70</ele>
        <time>2015-05-31T07:12:36Z</time>
      </trkpt>
      <trkpt lat="41.692346780" lon="2.533004070">
        <ele>237.60</ele>
        <time>2015-05-31T07:12:45Z</time>
      </trkpt>
      <trkpt lat="41.692332700" lon="2.532875410">
        <ele>238.50</ele>
        <time>2015-05-31T07:12:51Z</time>
      </trkpt>
      <trkpt lat="41.692274950" lon="2.532771810">
        <ele>239.00</ele>
        <time>2015-05-31T07:12:57Z</time>
      </trkpt>
      <trkpt lat="41.692163980" lon="2.532656810">
        <ele>241.40</ele>
        <time>2015-05-31T07:13:08Z</time>
      </trkpt>
      <trkpt lat="41.692071270" lon="2.532596290">
        <ele>242.40</ele>
        <time>2015-05-31T07:13:15Z</time>
      </trkpt>
      <trkpt lat="41.691970440" lon="2.532621690">
        <ele>243.80</ele>
        <time>2015-05-31T07:13:22Z</time>
      </trkpt>
      <trkpt lat="41.691851330" lon="2.532669630">
        <ele>244.30</ele>
        <time>2015-05-31T07:13:30Z</time>
      </trkpt>
      <trkpt lat="41.691718980" lon="2.532714390">
        <ele>245.30</ele>
        <time>2015-05-31T07:13:38Z</time>
      </trkpt>
      <trkpt lat="41.691660810" lon="2.532721430">
        <ele>245.80</ele>
        <time>2015-05-31T07:13:42Z</time>
      </trkpt>
      <trkpt lat="41.691630630" lon="2.532526380">
        <ele>244.80</ele>
        <time>2015-05-31T07:13:48Z</time>
      </trkpt>
      <trkpt lat="41.691676900" lon="2.532099240">
        <ele>242.90</ele>
        <time>2015-05-31T07:13:53Z</time>
      </trkpt>
      <trkpt lat="41.691688720" lon="2.531828000">
        <ele>242.40</ele>
        <time>2015-05-31T07:13:56Z</time>
      </trkpt>
      <trkpt lat="41.691763400" lon="2.531370440">
        <ele>241.40</ele>
        <time>2015-05-31T07:14:01Z</time>
      </trkpt>
      <trkpt lat="41.691695090" lon="2.530945310">
        <ele>240.00</ele>
        <time>2015-05-31T07:14:07Z</time>
      </trkpt>
      <trkpt lat="41.691700290" lon="2.530807260">
        <ele>239.50</ele>
        <time>2015-05-31T07:14:09Z</time>
      </trkpt>
      <trkpt lat="41.691618310" lon="2.530659820">
        <ele>238.50</ele>
        <time>2015-05-31T07:14:13Z</time>
      </trkpt>
      <trkpt lat="41.691572800" lon="2.530679010">
        <ele>238.50</ele>
        <time>2015-05-31T07:14:15Z</time>
      </trkpt>
      <trkpt lat="41.691542960" lon="2.530700970">
        <ele>238.50</ele>
        <time>2015-05-31T07:14:17Z</time>
      </trkpt>
      <trkpt lat="41.691529970" lon="2.530728130">
        <ele>240.00</ele>
        <time>2015-05-31T07:14:18Z</time>
      </trkpt>
      <trkpt lat="41.691394430" lon="2.530818490">
        <ele>241.90</ele>
        <time>2015-05-31T07:14:26Z</time>
      </trkpt>
      <trkpt lat="41.691243730" lon="2.530888480">
        <ele>243.80</ele>
        <time>2015-05-31T07:14:35Z</time>
      </trkpt>
      <trkpt lat="41.691139620" lon="2.530861320">
        <ele>244.80</ele>
        <time>2015-05-31T07:14:41Z</time>
      </trkpt>
      <trkpt lat="41.691124370" lon="2.530773310">
        <ele>245.80</ele>
        <time>2015-05-31T07:14:45Z</time>
      </trkpt>
      <trkpt lat="41.691186900" lon="2.530602990">
        <ele>248.20</ele>
        <time>2015-05-31T07:14:55Z</time>
      </trkpt>
      <trkpt lat="41.691229140" lon="2.530478680">
        <ele>249.10</ele>
        <time>2015-05-31T07:15:01Z</time>
      </trkpt>
      <trkpt lat="41.691243810" lon="2.530428060">
        <ele>249.10</ele>
        <time>2015-05-31T07:15:04Z</time>
      </trkpt>
      <trkpt lat="41.691204000" lon="2.530251700">
        <ele>251.00</ele>
        <time>2015-05-31T07:15:13Z</time>
      </trkpt>
      <trkpt lat="41.691103080" lon="2.530169310">
        <ele>252.00</ele>
        <time>2015-05-31T07:15:21Z</time>
      </trkpt>
      <trkpt lat="41.691020680" lon="2.530016340">
        <ele>253.40</ele>
        <time>2015-05-31T07:15:30Z</time>
      </trkpt>
      <trkpt lat="41.690949520" lon="2.529876610">
        <ele>255.40</ele>
        <time>2015-05-31T07:15:38Z</time>
      </trkpt>
      <trkpt lat="41.690936110" lon="2.529843090">
        <ele>256.30</ele>
        <time>2015-05-31T07:15:40Z</time>
      </trkpt>
      <trkpt lat="41.690862520" lon="2.529714090">
        <ele>257.80</ele>
        <time>2015-05-31T07:15:48Z</time>
      </trkpt>
      <trkpt lat="41.690809710" lon="2.529618030">
        <ele>259.20</ele>
        <time>2015-05-31T07:15:55Z</time>
      </trkpt>
      <trkpt lat="41.690697480" lon="2.529488450">
        <ele>259.70</ele>
        <time>2015-05-31T07:16:03Z</time>
      </trkpt>
      <trkpt lat="41.690678120" lon="2.529453410">
        <ele>260.20</ele>
        <time>2015-05-31T07:16:05Z</time>
      </trkpt>
      <trkpt lat="41.690618020" lon="2.529393980">
        <ele>260.70</ele>
        <time>2015-05-31T07:16:10Z</time>
      </trkpt>
      <trkpt lat="41.690537720" lon="2.529314190">
        <ele>262.60</ele>
        <time>2015-05-31T07:16:17Z</time>
      </trkpt>
      <trkpt lat="41.690526070" lon="2.529310500">
        <ele>262.60</ele>
        <time>2015-05-31T07:16:18Z</time>
      </trkpt>
      <trkpt lat="41.690371840" lon="2.529362630">
        <ele>263.10</ele>
        <time>2015-05-31T07:16:26Z</time>
      </trkpt>
      <trkpt lat="41.690216270" lon="2.529552740">
        <ele>263.10</ele>
        <time>2015-05-31T07:16:32Z</time>
      </trkpt>
      <trkpt lat="41.690028850" lon="2.529756670">
        <ele>263.10</ele>
        <time>2015-05-31T07:16:40Z</time>
      </trkpt>
      <trkpt lat="41.689991810" lon="2.529794050">
        <ele>263.10</ele>
        <time>2015-05-31T07:16:42Z</time>
      </trkpt>
      <trkpt lat="41.689887950" lon="2.529733200">
        <ele>263.10</ele>
        <time>2015-05-31T07:16:47Z</time>
      </trkpt>
      <trkpt lat="41.689862810" lon="2.529661450">
        <ele>261.60</ele>
        <time>2015-05-31T07:16:49Z</time>
      </trkpt>
      <trkpt lat="41.689851830" lon="2.529556090">
        <ele>261.10</ele>
        <time>2015-05-31T07:16:52Z</time>
      </trkpt>
      <trkpt lat="41.689822410" lon="2.529510830">
        <ele>260.20</ele>
        <time>2015-05-31T07:16:58Z</time>
      </trkpt>
      <trkpt lat="41.689823660" lon="2.529530610">
        <ele>260.20</ele>
        <time>2015-05-31T07:17:04Z</time>
      </trkpt>
      <trkpt lat="41.689867590" lon="2.529676370">
        <ele>260.20</ele>
        <time>2015-05-31T07:17:13Z</time>
      </trkpt>
      <trkpt lat="41.689878310" lon="2.529724060">
        <ele>261.60</ele>
        <time>2015-05-31T07:17:15Z</time>
      </trkpt>
      <trkpt lat="41.689878820" lon="2.529858090">
        <ele>262.10</ele>
        <time>2015-05-31T07:17:20Z</time>
      </trkpt>
      <trkpt lat="41.689785690" lon="2.529918770">
        <ele>262.60</ele>
        <time>2015-05-31T07:17:25Z</time>
      </trkpt>
      <trkpt lat="41.689713950" lon="2.529912320">
        <ele>265.00</ele>
        <time>2015-05-31T07:17:31Z</time>
      </trkpt>
      <trkpt lat="41.689606910" lon="2.529956410">
        <ele>265.90</ele>
        <time>2015-05-31T07:17:40Z</time>
      </trkpt>
      <trkpt lat="41.689502640" lon="2.529950540">
        <ele>267.40</ele>
        <time>2015-05-31T07:17:47Z</time>
      </trkpt>
      <trkpt lat="41.689465510" lon="2.529922290">
        <ele>267.90</ele>
        <time>2015-05-31T07:17:50Z</time>
      </trkpt>
      <trkpt lat="41.689386050" lon="2.529865800">
        <ele>269.30</ele>
        <time>2015-05-31T07:17:58Z</time>
      </trkpt>
      <trkpt lat="41.689292420" lon="2.529807880">
        <ele>271.20</ele>
        <time>2015-05-31T07:18:05Z</time>
      </trkpt>
      <trkpt lat="41.689201390" lon="2.529758180">
        <ele>273.20</ele>
        <time>2015-05-31T07:18:13Z</time>
      </trkpt>
      <trkpt lat="41.689146570" lon="2.529732950">
        <ele>274.60</ele>
        <time>2015-05-31T07:18:19Z</time>
      </trkpt>
      <trkpt lat="41.689112710" lon="2.529735630">
        <ele>275.10</ele>
        <time>2015-05-31T07:18:26Z</time>
      </trkpt>
      <trkpt lat="41.689075830" lon="2.529724400">
        <ele>275.60</ele>
        <time>2015-05-31T07:18:33Z</time>
      </trkpt>
      <trkpt lat="41.689054460" lon="2.529712330">
        <ele>275.60</ele>
        <time>2015-05-31T07:18:35Z</time>
      </trkpt>
      <trkpt lat="41.688970140" lon="2.529625240">
        <ele>277.00</ele>
        <time>2015-05-31T07:18:43Z</time>
      </trkpt>
      <trkpt lat="41.688892940" lon="2.529473780">
        <ele>277.50</ele>
        <time>2015-05-31T07:18:52Z</time>
      </trkpt>
      <trkpt lat="41.688864100" lon="2.529344780">
        <ele>278.40</ele>
        <time>2015-05-31T07:18:59Z</time>
      </trkpt>
      <trkpt lat="41.688775930" lon="2.529248220">
        <ele>280.40</ele>
        <time>2015-05-31T07:19:08Z</time>
      </trkpt>
      <trkpt lat="41.688663190" lon="2.529196840">
        <ele>281.30</ele>
        <time>2015-05-31T07:19:16Z</time>
      </trkpt>
      <trkpt lat="41.688596810" lon="2.529150660">
        <ele>282.30</ele>
        <time>2015-05-31T07:19:21Z</time>
      </trkpt>
      <trkpt lat="41.688534610" lon="2.529123330">
        <ele>282.80</ele>
        <time>2015-05-31T07:19:26Z</time>
      </trkpt>
      <trkpt lat="41.688423050" lon="2.529024930">
        <ele>283.30</ele>
        <time>2015-05-31T07:19:35Z</time>
      </trkpt>
      <trkpt lat="41.688318780" lon="2.528927360">
        <ele>283.30</ele>
        <time>2015-05-31T07:19:41Z</time>
      </trkpt>
      <trkpt lat="41.688206710" lon="2.528895180">
        <ele>281.80</ele>
        <time>2015-05-31T07:19:46Z</time>
      </trkpt>
      <trkpt lat="41.688173270" lon="2.528858550">
        <ele>280.80</ele>
        <time>2015-05-31T07:19:48Z</time>
      </trkpt>
      <trkpt lat="41.688040080" lon="2.528546570">
        <ele>278.00</ele>
        <time>2015-05-31T07:19:52Z</time>
      </trkpt>
      <trkpt lat="41.687968830" lon="2.528377840">
        <ele>276.00</ele>
        <time>2015-05-31T07:19:54Z</time>
      </trkpt>
      <trkpt lat="41.687896160" lon="2.528048440">
        <ele>273.20</ele>
        <time>2015-05-31T07:19:58Z</time>
      </trkpt>
      <trkpt lat="41.687751490" lon="2.527763200">
        <ele>269.80</ele>
        <time>2015-05-31T07:20:02Z</time>
      </trkpt>
      <trkpt lat="41.687598440" lon="2.527512500">
        <ele>266.90</ele>
        <time>2015-05-31T07:20:05Z</time>
      </trkpt>
      <trkpt lat="41.687557110" lon="2.527428010">
        <ele>266.90</ele>
        <time>2015-05-31T07:20:06Z</time>
      </trkpt>
      <trkpt lat="41.687505980" lon="2.527335140">
        <ele>265.50</ele>
        <time>2015-05-31T07:20:07Z</time>
      </trkpt>
      <trkpt lat="41.687304570" lon="2.527063810">
        <ele>261.10</ele>
        <time>2015-05-31T07:20:11Z</time>
      </trkpt>
      <trkpt lat="41.687175070" lon="2.526926270">
        <ele>259.20</ele>
        <time>2015-05-31T07:20:14Z</time>
      </trkpt>
      <trkpt lat="41.687021760" lon="2.526870860">
        <ele>258.70</ele>
        <time>2015-05-31T07:20:19Z</time>
      </trkpt>
      <trkpt lat="41.686894780" lon="2.526860640">
        <ele>260.70</ele>
        <time>2015-05-31T07:20:24Z</time>
      </trkpt>
      <trkpt lat="41.686788410" lon="2.527000030">
        <ele>261.10</ele>
        <time>2015-05-31T07:20:29Z</time>
      </trkpt>
      <trkpt lat="41.686649350" lon="2.527263970">
        <ele>261.10</ele>
        <time>2015-05-31T07:20:35Z</time>
      </trkpt>
      <trkpt lat="41.686441820" lon="2.527574520">
        <ele>261.10</ele>
        <time>2015-05-31T07:20:43Z</time>
      </trkpt>
      <trkpt lat="41.686415830" lon="2.527622050">
        <ele>261.10</ele>
        <time>2015-05-31T07:20:44Z</time>
      </trkpt>
      <trkpt lat="41.686275100" lon="2.527748530">
        <ele>261.10</ele>
        <time>2015-05-31T07:20:49Z</time>
      </trkpt>
      <trkpt lat="41.686236960" lon="2.527741160">
        <ele>261.10</ele>
        <time>2015-05-31T07:20:50Z</time>
      </trkpt>
      <trkpt lat="41.686028090" lon="2.527646520">
        <ele>262.10</ele>
        <time>2015-05-31T07:20:57Z</time>
      </trkpt>
      <trkpt lat="41.685794730" lon="2.527556500">
        <ele>263.10</ele>
        <time>2015-05-31T07:21:05Z</time>
      </trkpt>
      <trkpt lat="41.685679400" lon="2.527660440">
        <ele>264.50</ele>
        <time>2015-05-31T07:21:11Z</time>
      </trkpt>
      <trkpt lat="41.685613270" lon="2.527865120">
        <ele>266.40</ele>
        <time>2015-05-31T07:21:18Z</time>
      </trkpt>
      <trkpt lat="41.685597170" lon="2.528119930">
        <ele>268.40</ele>
        <time>2015-05-31T07:21:26Z</time>
      </trkpt>
      <trkpt lat="41.685598930" lon="2.528351270">
        <ele>270.30</ele>
        <time>2015-05-31T07:21:34Z</time>
      </trkpt>
      <trkpt lat="41.685594660" lon="2.528375830">
        <ele>270.30</ele>
        <time>2015-05-31T07:21:35Z</time>
      </trkpt>
      <trkpt lat="41.685487290" lon="2.528467870">
        <ele>271.70</ele>
        <time>2015-05-31T07:21:41Z</time>
      </trkpt>
      <trkpt lat="41.685308670" lon="2.528422440">
        <ele>272.70</ele>
        <time>2015-05-31T07:21:49Z</time>
      </trkpt>
      <trkpt lat="41.685134580" lon="2.528413220">
        <ele>274.10</ele>
        <time>2015-05-31T07:21:57Z</time>
      </trkpt>
      <trkpt lat="41.685023350" lon="2.528495440">
        <ele>276.00</ele>
        <time>2015-05-31T07:22:04Z</time>
      </trkpt>
      <trkpt lat="41.685008600" lon="2.528663420">
        <ele>277.50</ele>
        <time>2015-05-31T07:22:11Z</time>
      </trkpt>
      <trkpt lat="41.685011030" lon="2.528900790">
        <ele>278.40</ele>
        <time>2015-05-31T07:22:20Z</time>
      </trkpt>
      <trkpt lat="41.684950510" lon="2.529099860">
        <ele>279.40</ele>
        <time>2015-05-31T07:22:28Z</time>
      </trkpt>
      <trkpt lat="41.684857220" lon="2.529250570">
        <ele>280.80</ele>
        <time>2015-05-31T07:22:36Z</time>
      </trkpt>
      <trkpt lat="41.684751520" lon="2.529386770">
        <ele>281.80</ele>
        <time>2015-05-31T07:22:43Z</time>
      </trkpt>
      <trkpt lat="41.684620260" lon="2.529496410">
        <ele>282.80</ele>
        <time>2015-05-31T07:22:50Z</time>
      </trkpt>
      <trkpt lat="41.684522190" lon="2.529384600">
        <ele>283.70</ele>
        <time>2015-05-31T07:22:57Z</time>
      </trkpt>
      <trkpt lat="41.684378780" lon="2.529277220">
        <ele>284.20</ele>
        <time>2015-05-31T07:23:04Z</time>
      </trkpt>
      <trkpt lat="41.684353470" lon="2.529274880">
        <ele>284.20</ele>
        <time>2015-05-31T07:23:05Z</time>
      </trkpt>
      <trkpt lat="41.684228160" lon="2.529384430">
        <ele>284.20</ele>
        <time>2015-05-31T07:23:10Z</time>
      </trkpt>
      <trkpt lat="41.683989860" lon="2.529508900">
        <ele>284.20</ele>
        <time>2015-05-31T07:23:17Z</time>
      </trkpt>
      <trkpt lat="41.683924310" lon="2.529503200">
        <ele>284.20</ele>
        <time>2015-05-31T07:23:19Z</time>
      </trkpt>
      <trkpt lat="41.683684760" lon="2.529346290">
        <ele>285.70</ele>
        <time>2015-05-31T07:23:29Z</time>
      </trkpt>
      <trkpt lat="41.683524750" lon="2.529386940">
        <ele>287.60</ele>
        <time>2015-05-31T07:23:36Z</time>
      </trkpt>
      <trkpt lat="41.683423080" lon="2.529482910">
        <ele>288.10</ele>
        <time>2015-05-31T07:23:42Z</time>
      </trkpt>
      <trkpt lat="41.683245300" lon="2.529501350">
        <ele>288.50</ele>
        <time>2015-05-31T07:23:50Z</time>
      </trkpt>
      <trkpt lat="41.683129710" lon="2.529471850">
        <ele>290.00</ele>
        <time>2015-05-31T07:23:56Z</time>
      </trkpt>
      <trkpt lat="41.683061730" lon="2.529440590">
        <ele>290.00</ele>
        <time>2015-05-31T07:24:00Z</time>
      </trkpt>
      <trkpt lat="41.683045970" lon="2.529424160">
        <ele>290.00</ele>
        <time>2015-05-31T07:24:06Z</time>
      </trkpt>
      <trkpt lat="41.683045220" lon="2.529403620">
        <ele>290.00</ele>
        <time>2015-05-31T07:24:16Z</time>
      </trkpt>
      <trkpt lat="41.683040610" lon="2.529401440">
        <ele>290.00</ele>
        <time>2015-05-31T07:24:28Z</time>
      </trkpt>
      <trkpt lat="41.682987970" lon="2.529337910">
        <ele>290.00</ele>
        <time>2015-05-31T07:24:35Z</time>
      </trkpt>
      <trkpt lat="41.682808680" lon="2.529264060">
        <ele>287.10</ele>
        <time>2015-05-31T07:24:42Z</time>
      </trkpt>
      <trkpt lat="41.682813630" lon="2.529122240">
        <ele>285.20</ele>
        <time>2015-05-31T07:24:47Z</time>
      </trkpt>
      <trkpt lat="41.682935840" lon="2.529031300">
        <ele>283.30</ele>
        <time>2015-05-31T07:24:53Z</time>
      </trkpt>
      <trkpt lat="41.683009600" lon="2.528941860">
        <ele>282.30</ele>
        <time>2015-05-31T07:24:59Z</time>
      </trkpt>
      <trkpt lat="41.683088470" lon="2.528820330">
        <ele>280.40</ele>
        <time>2015-05-31T07:25:03Z</time>
      </trkpt>
      <trkpt lat="41.683301200" lon="2.528636340">
        <ele>275.60</ele>
        <time>2015-05-31T07:25:09Z</time>
      </trkpt>
      <trkpt lat="41.683489540" lon="2.528349430">
        <ele>272.70</ele>
        <time>2015-05-31T07:25:14Z</time>
      </trkpt>
      <trkpt lat="41.683609150" lon="2.528067040">
        <ele>269.30</ele>
        <time>2015-05-31T07:25:18Z</time>
      </trkpt>
      <trkpt lat="41.683632620" lon="2.527845590">
        <ele>268.80</ele>
        <time>2015-05-31T07:25:21Z</time>
      </trkpt>
      <trkpt lat="41.683757090" lon="2.527436980">
        <ele>267.40</ele>
        <time>2015-05-31T07:25:26Z</time>
      </trkpt>
      <trkpt lat="41.683819290" lon="2.527239580">
        <ele>264.00</ele>
        <time>2015-05-31T07:25:29Z</time>
      </trkpt>
      <trkpt lat="41.683826080" lon="2.527183170">
        <ele>263.50</ele>
        <time>2015-05-31T07:25:30Z</time>
      </trkpt>
      <trkpt lat="41.683723730" lon="2.527057780">
        <ele>261.60</ele>
        <time>2015-05-31T07:25:34Z</time>
      </trkpt>
      <trkpt lat="41.683615100" lon="2.527005730">
        <ele>260.20</ele>
        <time>2015-05-31T07:25:36Z</time>
      </trkpt>
      <trkpt lat="41.683458030" lon="2.526935570">
        <ele>258.30</ele>
        <time>2015-05-31T07:25:39Z</time>
      </trkpt>
      <trkpt lat="41.683358280" lon="2.527012260">
        <ele>257.80</ele>
        <time>2015-05-31T07:25:42Z</time>
      </trkpt>
      <trkpt lat="41.683243120" lon="2.527038170">
        <ele>256.80</ele>
        <time>2015-05-31T07:25:46Z</time>
      </trkpt>
      <trkpt lat="41.683186960" lon="2.526977140">
        <ele>256.80</ele>
        <time>2015-05-31T07:25:48Z</time>
      </trkpt>
      <trkpt lat="41.683047230" lon="2.526956530">
        <ele>256.30</ele>
        <time>2015-05-31T07:25:51Z</time>
      </trkpt>
      <trkpt lat="41.682684460" lon="2.526915870">
        <ele>255.90</ele>
        <time>2015-05-31T07:25:59Z</time>
      </trkpt>
      <trkpt lat="41.682625620" lon="2.526908080">
        <ele>255.40</ele>
        <time>2015-05-31T07:26:00Z</time>
      </trkpt>
      <trkpt lat="41.682399900" lon="2.526915540">
        <ele>254.90</ele>
        <time>2015-05-31T07:26:05Z</time>
      </trkpt>
      <trkpt lat="41.682317420" lon="2.526911930">
        <ele>255.90</ele>
        <time>2015-05-31T07:26:09Z</time>
      </trkpt>
      <trkpt lat="41.682175090" lon="2.526965830">
        <ele>259.70</ele>
        <time>2015-05-31T07:26:18Z</time>
      </trkpt>
      <trkpt lat="41.682088010" lon="2.527003970">
        <ele>261.10</ele>
        <time>2015-05-31T07:26:24Z</time>
      </trkpt>
      <trkpt lat="41.682033860" lon="2.527020480">
        <ele>261.60</ele>
        <time>2015-05-31T07:26:28Z</time>
      </trkpt>
      <trkpt lat="41.681976610" lon="2.527007320">
        <ele>263.10</ele>
        <time>2015-05-31T07:26:32Z</time>
      </trkpt>
      <trkpt lat="41.681872090" lon="2.526920230">
        <ele>265.00</ele>
        <time>2015-05-31T07:26:40Z</time>
      </trkpt>
      <trkpt lat="41.681866640" lon="2.526901540">
        <ele>265.00</ele>
        <time>2015-05-31T07:26:41Z</time>
      </trkpt>
      <trkpt lat="41.681936540" lon="2.526791150">
        <ele>266.40</ele>
        <time>2015-05-31T07:26:50Z</time>
      </trkpt>
      <trkpt lat="41.682030590" lon="2.526736920">
        <ele>268.80</ele>
        <time>2015-05-31T07:26:58Z</time>
      </trkpt>
      <trkpt lat="41.682125390" lon="2.526596610">
        <ele>270.30</ele>
        <time>2015-05-31T07:27:07Z</time>
      </trkpt>
      <trkpt lat="41.682195880" lon="2.526405250">
        <ele>270.80</ele>
        <time>2015-05-31T07:27:16Z</time>
      </trkpt>
      <trkpt lat="41.682257490" lon="2.526289330">
        <ele>271.70</ele>
        <time>2015-05-31T07:27:23Z</time>
      </trkpt>
      <trkpt lat="41.682332250" lon="2.526175670">
        <ele>273.60</ele>
        <time>2015-05-31T07:27:32Z</time>
      </trkpt>
      <trkpt lat="41.682387160" lon="2.526053460">
        <ele>275.10</ele>
        <time>2015-05-31T07:27:39Z</time>
      </trkpt>
      <trkpt lat="41.682420260" lon="2.525893450">
        <ele>276.00</ele>
        <time>2015-05-31T07:27:47Z</time>
      </trkpt>
      <trkpt lat="41.682401490" lon="2.525715080">
        <ele>276.00</ele>
        <time>2015-05-31T07:27:53Z</time>
      </trkpt>
      <trkpt lat="41.682399810" lon="2.525569820">
        <ele>278.00</ele>
        <time>2015-05-31T07:28:00Z</time>
      </trkpt>
      <trkpt lat="41.682397630" lon="2.525548780">
        <ele>278.00</ele>
        <time>2015-05-31T07:28:01Z</time>
      </trkpt>
      <trkpt lat="41.682272660" lon="2.525409810">
        <ele>279.90</ele>
        <time>2015-05-31T07:28:11Z</time>
      </trkpt>
      <trkpt lat="41.682157580" lon="2.525362710">
        <ele>281.30</ele>
        <time>2015-05-31T07:28:20Z</time>
      </trkpt>
      <trkpt lat="41.682037210" lon="2.525318370">
        <ele>282.30</ele>
        <time>2015-05-31T07:28:29Z</time>
      </trkpt>
      <trkpt lat="41.681935460" lon="2.525274450">
        <ele>283.70</ele>
        <time>2015-05-31T07:28:36Z</time>
      </trkpt>
      <trkpt lat="41.681828000" lon="2.525242850">
        <ele>285.20</ele>
        <time>2015-05-31T07:28:43Z</time>
      </trkpt>
      <trkpt lat="41.681696320" lon="2.525216270">
        <ele>287.10</ele>
        <time>2015-05-31T07:28:52Z</time>
      </trkpt>
      <trkpt lat="41.681567740" lon="2.525167580">
        <ele>290.00</ele>
        <time>2015-05-31T07:29:02Z</time>
      </trkpt>
      <trkpt lat="41.681475540" lon="2.525126500">
        <ele>291.40</ele>
        <time>2015-05-31T07:29:10Z</time>
      </trkpt>
      <trkpt lat="41.681384760" lon="2.525065400">
        <ele>293.80</ele>
        <time>2015-05-31T07:29:19Z</time>
      </trkpt>
      <trkpt lat="41.681282340" lon="2.524991220">
        <ele>295.70</ele>
        <time>2015-05-31T07:29:28Z</time>
      </trkpt>
      <trkpt lat="41.681170270" lon="2.524923080">
        <ele>297.70</ele>
        <time>2015-05-31T07:29:38Z</time>
      </trkpt>
      <trkpt lat="41.681044630" lon="2.524841770">
        <ele>299.10</ele>
        <time>2015-05-31T07:29:48Z</time>
      </trkpt>
      <trkpt lat="41.680960050" lon="2.524754100">
        <ele>300.10</ele>
        <time>2015-05-31T07:29:54Z</time>
      </trkpt>
      <trkpt lat="41.680954860" lon="2.524639930">
        <ele>300.10</ele>
        <time>2015-05-31T07:29:59Z</time>
      </trkpt>
      <trkpt lat="41.681011270" lon="2.524553770">
        <ele>300.10</ele>
        <time>2015-05-31T07:30:03Z</time>
      </trkpt>
      <trkpt lat="41.681279320" lon="2.524426620">
        <ele>298.60</ele>
        <time>2015-05-31T07:30:11Z</time>
      </trkpt>
      <trkpt lat="41.681328610" lon="2.524406670">
        <ele>298.60</ele>
        <time>2015-05-31T07:30:12Z</time>
      </trkpt>
      <trkpt lat="41.681422900" lon="2.524356120">
        <ele>298.60</ele>
        <time>2015-05-31T07:30:14Z</time>
      </trkpt>
      <trkpt lat="41.681523480" lon="2.524317730">
        <ele>298.20</ele>
        <time>2015-05-31T07:30:16Z</time>
      </trkpt>
      <trkpt lat="41.681638900" lon="2.524153370">
        <ele>297.20</ele>
        <time>2015-05-31T07:30:20Z</time>
      </trkpt>
      <trkpt lat="41.681621640" lon="2.523988410">
        <ele>297.20</ele>
        <time>2015-05-31T07:30:23Z</time>
      </trkpt>
      <trkpt lat="41.681555840" lon="2.523793950">
        <ele>298.60</ele>
        <time>2015-05-31T07:30:28Z</time>
      </trkpt>
      <trkpt lat="41.681410410" lon="2.523608040">
        <ele>299.10</ele>
        <time>2015-05-31T07:30:34Z</time>
      </trkpt>
      <trkpt lat="41.681333380" lon="2.523517930">
        <ele>299.10</ele>
        <time>2015-05-31T07:30:36Z</time>
      </trkpt>
      <trkpt lat="41.681269760" lon="2.523265970">
        <ele>297.70</ele>
        <time>2015-05-31T07:30:41Z</time>
      </trkpt>
      <trkpt lat="41.681377390" lon="2.523218200">
        <ele>297.70</ele>
        <time>2015-05-31T07:30:45Z</time>
      </trkpt>
      <trkpt lat="41.681515770" lon="2.523081570">
        <ele>297.70</ele>
        <time>2015-05-31T07:30:50Z</time>
      </trkpt>
      <trkpt lat="41.681656420" lon="2.523070680">
        <ele>296.70</ele>
        <time>2015-05-31T07:30:53Z</time>
      </trkpt>
      <trkpt lat="41.681786930" lon="2.523023400">
        <ele>296.70</ele>
        <time>2015-05-31T07:30:56Z</time>
      </trkpt>
      <trkpt lat="41.681943840" lon="2.522947710">
        <ele>298.60</ele>
        <time>2015-05-31T07:31:03Z</time>
      </trkpt>
      <trkpt lat="41.682051040" lon="2.522895660">
        <ele>300.60</ele>
        <time>2015-05-31T07:31:09Z</time>
      </trkpt>
      <trkpt lat="41.682169650" lon="2.522854420">
        <ele>301.50</ele>
        <time>2015-05-31T07:31:16Z</time>
      </trkpt>
      <trkpt lat="41.682290850" lon="2.522822740">
        <ele>303.90</ele>
        <time>2015-05-31T07:31:23Z</time>
      </trkpt>
      <trkpt lat="41.682465360" lon="2.522791890">
        <ele>305.40</ele>
        <time>2015-05-31T07:31:33Z</time>
      </trkpt>
      <trkpt lat="41.682620760" lon="2.522845290">
        <ele>306.80</ele>
        <time>2015-05-31T07:31:42Z</time>
      </trkpt>
      <trkpt lat="41.682733920" lon="2.522894660">
        <ele>308.20</ele>
        <time>2015-05-31T07:31:50Z</time>
      </trkpt>
      <trkpt lat="41.682771470" lon="2.522926250">
        <ele>308.70</ele>
        <time>2015-05-31T07:31:54Z</time>
      </trkpt>
      <trkpt lat="41.682795610" lon="2.522869340">
        <ele>309.70</ele>
        <time>2015-05-31T07:31:59Z</time>
      </trkpt>
      <trkpt lat="41.682669880" lon="2.522741940">
        <ele>311.10</ele>
        <time>2015-05-31T07:32:09Z</time>
      </trkpt>
      <trkpt lat="41.682591420" lon="2.522659210">
        <ele>312.10</ele>
        <time>2015-05-31T07:32:15Z</time>
      </trkpt>
      <trkpt lat="41.682478020" lon="2.522532980">
        <ele>313.50</ele>
        <time>2015-05-31T07:32:24Z</time>
      </trkpt>
      <trkpt lat="41.682347760" lon="2.522497860">
        <ele>315.00</ele>
        <time>2015-05-31T07:32:32Z</time>
      </trkpt>
      <trkpt lat="41.682314650" lon="2.522491820">
        <ele>315.50</ele>
        <time>2015-05-31T07:32:34Z</time>
      </trkpt>
      <trkpt lat="41.682183480" lon="2.522412440">
        <ele>316.90</ele>
        <time>2015-05-31T07:32:43Z</time>
      </trkpt>
      <trkpt lat="41.682017930" lon="2.522404140">
        <ele>316.90</ele>
        <time>2015-05-31T07:32:50Z</time>
      </trkpt>
      <trkpt lat="41.681895140" lon="2.522314790">
        <ele>317.40</ele>
        <time>2015-05-31T07:32:56Z</time>
      </trkpt>
      <trkpt lat="41.681874690" lon="2.522285710">
        <ele>317.40</ele>
        <time>2015-05-31T07:32:57Z</time>
      </trkpt>
      <trkpt lat="41.681779470" lon="2.521974490">
        <ele>315.90</ele>
        <time>2015-05-31T07:33:02Z</time>
      </trkpt>
      <trkpt lat="41.681744600" lon="2.521921520">
        <ele>315.00</ele>
        <time>2015-05-31T07:33:03Z</time>
      </trkpt>
      <trkpt lat="41.681650470" lon="2.521807520">
        <ele>313.10</ele>
        <time>2015-05-31T07:33:05Z</time>
      </trkpt>
      <trkpt lat="41.681296340" lon="2.521658160">
        <ele>310.60</ele>
        <time>2015-05-31T07:33:10Z</time>
      </trkpt>
      <trkpt lat="41.681022580" lon="2.521540980">
        <ele>310.60</ele>
        <time>2015-05-31T07:33:15Z</time>
      </trkpt>
      <trkpt lat="41.680960220" lon="2.521371080">
        <ele>310.60</ele>
        <time>2015-05-31T07:33:20Z</time>
      </trkpt>
      <trkpt lat="41.681016300" lon="2.521316930">
        <ele>311.60</ele>
        <time>2015-05-31T07:33:22Z</time>
      </trkpt>
      <trkpt lat="41.681047310" lon="2.521291620">
        <ele>311.60</ele>
        <time>2015-05-31T07:33:23Z</time>
      </trkpt>
      <trkpt lat="41.681118970" lon="2.521224900">
        <ele>311.60</ele>
        <time>2015-05-31T07:33:25Z</time>
      </trkpt>
      <trkpt lat="41.681263390" lon="2.520982580">
        <ele>312.10</ele>
        <time>2015-05-31T07:33:31Z</time>
      </trkpt>
      <trkpt lat="41.681228440" lon="2.520768840">
        <ele>312.10</ele>
        <time>2015-05-31T07:33:35Z</time>
      </trkpt>
      <trkpt lat="41.681067010" lon="2.520567340">
        <ele>312.10</ele>
        <time>2015-05-31T07:33:40Z</time>
      </trkpt>
      <trkpt lat="41.680951590" lon="2.520403720">
        <ele>312.10</ele>
        <time>2015-05-31T07:33:43Z</time>
      </trkpt>
      <trkpt lat="41.680861820" lon="2.520313950">
        <ele>310.60</ele>
        <time>2015-05-31T07:33:45Z</time>
      </trkpt>
      <trkpt lat="41.680783530" lon="2.520255950">
        <ele>310.60</ele>
        <time>2015-05-31T07:33:47Z</time>
      </trkpt>
      <trkpt lat="41.680635670" lon="2.520202140">
        <ele>312.10</ele>
        <time>2015-05-31T07:33:52Z</time>
      </trkpt>
      <trkpt lat="41.680589410" lon="2.520181770">
        <ele>312.60</ele>
        <time>2015-05-31T07:33:54Z</time>
      </trkpt>
      <trkpt lat="41.680557220" lon="2.520038100">
        <ele>313.10</ele>
        <time>2015-05-31T07:33:58Z</time>
      </trkpt>
      <trkpt lat="41.680577340" lon="2.519926200">
        <ele>313.50</ele>
        <time>2015-05-31T07:34:01Z</time>
      </trkpt>
      <trkpt lat="41.680502900" lon="2.519719170">
        <ele>315.00</ele>
        <time>2015-05-31T07:34:08Z</time>
      </trkpt>
      <trkpt lat="41.680389250" lon="2.519545410">
        <ele>316.40</ele>
        <time>2015-05-31T07:34:16Z</time>
      </trkpt>
      <trkpt lat="41.680414060" lon="2.519352800">
        <ele>316.90</ele>
        <time>2015-05-31T07:34:22Z</time>
      </trkpt>
      <trkpt lat="41.680561910" lon="2.519291610">
        <ele>317.90</ele>
        <time>2015-05-31T07:34:28Z</time>
      </trkpt>
      <trkpt lat="41.680581690" lon="2.519292030">
        <ele>317.90</ele>
        <time>2015-05-31T07:34:29Z</time>
      </trkpt>
      <trkpt lat="41.680756210" lon="2.519160770">
        <ele>317.90</ele>
        <time>2015-05-31T07:34:35Z</time>
      </trkpt>
      <trkpt lat="41.680802890" lon="2.519064960">
        <ele>317.90</ele>
        <time>2015-05-31T07:34:38Z</time>
      </trkpt>
      <trkpt lat="41.680783280" lon="2.518777800">
        <ele>319.30</ele>
        <time>2015-05-31T07:34:47Z</time>
      </trkpt>
      <trkpt lat="41.680780260" lon="2.518649390">
        <ele>320.70</ele>
        <time>2015-05-31T07:34:51Z</time>
      </trkpt>
      <trkpt lat="41.680743050" lon="2.518516370">
        <ele>322.20</ele>
        <time>2015-05-31T07:34:56Z</time>
      </trkpt>
      <trkpt lat="41.680591920" lon="2.518379990">
        <ele>323.10</ele>
        <time>2015-05-31T07:35:04Z</time>
      </trkpt>
      <trkpt lat="41.680407940" lon="2.518292570">
        <ele>324.60</ele>
        <time>2015-05-31T07:35:13Z</time>
      </trkpt>
      <trkpt lat="41.680282630" lon="2.518151670">
        <ele>327.00</ele>
        <time>2015-05-31T07:35:21Z</time>
      </trkpt>
      <trkpt lat="41.680271980" lon="2.518118900">
        <ele>327.00</ele>
        <time>2015-05-31T07:35:22Z</time>
      </trkpt>
      <trkpt lat="41.680238870" lon="2.517956370">
        <ele>327.00</ele>
        <time>2015-05-31T07:35:26Z</time>
      </trkpt>
      <trkpt lat="41.680221780" lon="2.517615560">
        <ele>327.00</ele>
        <time>2015-05-31T07:35:32Z</time>
      </trkpt>
      <trkpt lat="41.680198560" lon="2.517404420">
        <ele>326.50</ele>
        <time>2015-05-31T07:35:38Z</time>
      </trkpt>
      <trkpt lat="41.680116500" lon="2.517209130">
        <ele>328.00</ele>
        <time>2015-05-31T07:35:46Z</time>
      </trkpt>
      <trkpt lat="41.679993200" lon="2.516978120">
        <ele>329.90</ele>
        <time>2015-05-31T07:35:55Z</time>
      </trkpt>
      <trkpt lat="41.679983390" lon="2.516951800">
        <ele>329.90</ele>
        <time>2015-05-31T07:35:56Z</time>
      </trkpt>
      <trkpt lat="41.679963110" lon="2.516737140">
        <ele>330.40</ele>
        <time>2015-05-31T07:36:04Z</time>
      </trkpt>
      <trkpt lat="41.679966460" lon="2.516561880">
        <ele>332.80</ele>
        <time>2015-05-31T07:36:11Z</time>
      </trkpt>
      <trkpt lat="41.679975930" lon="2.516369590">
        <ele>334.20</ele>
        <time>2015-05-31T07:36:18Z</time>
      </trkpt>
      <trkpt lat="41.679985070" lon="2.516238080">
        <ele>335.20</ele>
        <time>2015-05-31T07:36:23Z</time>
      </trkpt>
      <trkpt lat="41.679996550" lon="2.516049070">
        <ele>335.20</ele>
        <time>2015-05-31T07:36:28Z</time>
      </trkpt>
      <trkpt lat="41.679880210" lon="2.515842620">
        <ele>332.30</ele>
        <time>2015-05-31T07:36:32Z</time>
      </trkpt>
      <trkpt lat="41.679895640" lon="2.515680940">
        <ele>330.40</ele>
        <time>2015-05-31T07:36:35Z</time>
      </trkpt>
      <trkpt lat="41.679956490" lon="2.515612460">
        <ele>330.40</ele>
        <time>2015-05-31T07:36:37Z</time>
      </trkpt>
      <trkpt lat="41.680149770" lon="2.515313560">
        <ele>327.50</ele>
        <time>2015-05-31T07:36:43Z</time>
      </trkpt>
      <trkpt lat="41.680121530" lon="2.515071910">
        <ele>325.10</ele>
        <time>2015-05-31T07:36:46Z</time>
      </trkpt>
      <trkpt lat="41.680095380" lon="2.514847610">
        <ele>323.10</ele>
        <time>2015-05-31T07:36:49Z</time>
      </trkpt>
      <trkpt lat="41.680127310" lon="2.514670670">
        <ele>321.20</ele>
        <time>2015-05-31T07:36:51Z</time>
      </trkpt>
      <trkpt lat="41.680103840" lon="2.514293820">
        <ele>321.20</ele>
        <time>2015-05-31T07:36:56Z</time>
      </trkpt>
      <trkpt lat="41.680084980" lon="2.514250730">
        <ele>321.20</ele>
        <time>2015-05-31T07:36:57Z</time>
      </trkpt>
      <trkpt lat="41.679965120" lon="2.513996180">
        <ele>323.60</ele>
        <time>2015-05-31T07:37:04Z</time>
      </trkpt>
      <trkpt lat="41.679873260" lon="2.513786290">
        <ele>325.10</ele>
        <time>2015-05-31T07:37:10Z</time>
      </trkpt>
      <trkpt lat="41.679798070" lon="2.513670370">
        <ele>325.10</ele>
        <time>2015-05-31T07:37:16Z</time>
      </trkpt>
      <trkpt lat="41.679781890" lon="2.513662070">
        <ele>325.10</ele>
        <time>2015-05-31T07:37:27Z</time>
      </trkpt>
      <trkpt lat="41.679776110" lon="2.513657800">
        <ele>324.10</ele>
        <time>2015-05-31T07:37:41Z</time>
      </trkpt>
      <trkpt lat="41.679774940" lon="2.513638020">
        <ele>325.10</ele>
        <time>2015-05-31T07:38:00Z</time>
      </trkpt>
      <trkpt lat="41.679775350" lon="2.513636090">
        <ele>325.10</ele>
        <time>2015-05-31T07:38:04Z</time>
      </trkpt>
      <trkpt lat="41.679669160" lon="2.513654360">
        <ele>323.60</ele>
        <time>2015-05-31T07:38:09Z</time>
      </trkpt>
      <trkpt lat="41.679576450" lon="2.513649000">
        <ele>322.70</ele>
        <time>2015-05-31T07:38:12Z</time>
      </trkpt>
      <trkpt lat="41.679376540" lon="2.513562160">
        <ele>322.20</ele>
        <time>2015-05-31T07:38:17Z</time>
      </trkpt>
      <trkpt lat="41.679234300" lon="2.513467280">
        <ele>319.80</ele>
        <time>2015-05-31T07:38:20Z</time>
      </trkpt>
      <trkpt lat="41.679138580" lon="2.513381700">
        <ele>317.40</ele>
        <time>2015-05-31T07:38:22Z</time>
      </trkpt>
      <trkpt lat="41.678978660" lon="2.513293860">
        <ele>315.90</ele>
        <time>2015-05-31T07:38:25Z</time>
      </trkpt>
      <trkpt lat="41.678850500" lon="2.513310370">
        <ele>314.50</ele>
        <time>2015-05-31T07:38:28Z</time>
      </trkpt>
      <trkpt lat="41.678766170" lon="2.513401230">
        <ele>313.10</ele>
        <time>2015-05-31T07:38:30Z</time>
      </trkpt>
      <trkpt lat="41.678626620" lon="2.513558560">
        <ele>309.20</ele>
        <time>2015-05-31T07:38:34Z</time>
      </trkpt>
      <trkpt lat="41.678491920" lon="2.513527540">
        <ele>306.30</ele>
        <time>2015-05-31T07:38:38Z</time>
      </trkpt>
      <trkpt lat="41.678259740" lon="2.513404250">
        <ele>303.00</ele>
        <time>2015-05-31T07:38:42Z</time>
      </trkpt>
      <trkpt lat="41.677984390" lon="2.513419330">
        <ele>298.20</ele>
        <time>2015-05-31T07:38:47Z</time>
      </trkpt>
      <trkpt lat="41.677863360" lon="2.513510610">
        <ele>296.70</ele>
        <time>2015-05-31T07:38:49Z</time>
      </trkpt>
      <trkpt lat="41.677525570" lon="2.513758800">
        <ele>290.90</ele>
        <time>2015-05-31T07:38:54Z</time>
      </trkpt>
      <trkpt lat="41.677321970" lon="2.513920400">
        <ele>289.00</ele>
        <time>2015-05-31T07:38:58Z</time>
      </trkpt>
      <trkpt lat="41.677221890" lon="2.513828120">
        <ele>289.00</ele>
        <time>2015-05-31T07:39:01Z</time>
      </trkpt>
      <trkpt lat="41.677149050" lon="2.513597780">
        <ele>289.00</ele>
        <time>2015-05-31T07:39:07Z</time>
      </trkpt>
      <trkpt lat="41.677134550" lon="2.513569620">
        <ele>290.50</ele>
        <time>2015-05-31T07:39:08Z</time>
      </trkpt>
      <trkpt lat="41.676970270" lon="2.513381360">
        <ele>292.40</ele>
        <time>2015-05-31T07:39:16Z</time>
      </trkpt>
      <trkpt lat="41.676840180" lon="2.513302990">
        <ele>293.30</ele>
        <time>2015-05-31T07:39:22Z</time>
      </trkpt>
      <trkpt lat="41.676666090" lon="2.513294690">
        <ele>294.80</ele>
        <time>2015-05-31T07:39:30Z</time>
      </trkpt>
      <trkpt lat="41.676498870" lon="2.513357470">
        <ele>295.70</ele>
        <time>2015-05-31T07:39:37Z</time>
      </trkpt>
      <trkpt lat="41.676351680" lon="2.513390250">
        <ele>297.70</ele>
        <time>2015-05-31T07:39:44Z</time>
      </trkpt>
      <trkpt lat="41.676216990" lon="2.513437690">
        <ele>299.60</ele>
        <time>2015-05-31T07:39:51Z</time>
      </trkpt>
      <trkpt lat="41.676088660" lon="2.513513960">
        <ele>301.50</ele>
        <time>2015-05-31T07:39:59Z</time>
      </trkpt>
      <trkpt lat="41.675962590" lon="2.513623350">
        <ele>301.50</ele>
        <time>2015-05-31T07:40:06Z</time>
      </trkpt>
      <trkpt lat="41.675908110" lon="2.513665260">
        <ele>302.50</ele>
        <time>2015-05-31T07:40:11Z</time>
      </trkpt>
      <trkpt lat="41.675860420" lon="2.513650170">
        <ele>303.00</ele>
        <time>2015-05-31T07:40:15Z</time>
      </trkpt>
      <trkpt lat="41.675816250" lon="2.513561070">
        <ele>303.40</ele>
        <time>2015-05-31T07:40:22Z</time>
      </trkpt>
      <trkpt lat="41.675745920" lon="2.513371140">
        <ele>305.40</ele>
        <time>2015-05-31T07:40:31Z</time>
      </trkpt>
      <trkpt lat="41.675729070" lon="2.513178520">
        <ele>306.80</ele>
        <time>2015-05-31T07:40:39Z</time>
      </trkpt>
      <trkpt lat="41.675713900" lon="2.512985990">
        <ele>308.70</ele>
        <time>2015-05-31T07:40:47Z</time>
      </trkpt>
      <trkpt lat="41.675623300" lon="2.512776270">
        <ele>309.70</ele>
        <time>2015-05-31T07:40:56Z</time>
      </trkpt>
      <trkpt lat="41.675517930" lon="2.512609720">
        <ele>311.10</ele>
        <time>2015-05-31T07:41:04Z</time>
      </trkpt>
      <trkpt lat="41.675368490" lon="2.512437640">
        <ele>311.60</ele>
        <time>2015-05-31T07:41:12Z</time>
      </trkpt>
      <trkpt lat="41.675282740" lon="2.512423980">
        <ele>309.20</ele>
        <time>2015-05-31T07:41:14Z</time>
      </trkpt>
      <trkpt lat="41.675104790" lon="2.512285760">
        <ele>308.20</ele>
        <time>2015-05-31T07:41:19Z</time>
      </trkpt>
      <trkpt lat="41.674991970" lon="2.512241260">
        <ele>308.20</ele>
        <time>2015-05-31T07:41:23Z</time>
      </trkpt>
      <trkpt lat="41.674904300" lon="2.512214010">
        <ele>309.20</ele>
        <time>2015-05-31T07:41:27Z</time>
      </trkpt>
      <trkpt lat="41.674773710" lon="2.512174280">
        <ele>312.10</ele>
        <time>2015-05-31T07:41:34Z</time>
      </trkpt>
      <trkpt lat="41.674639430" lon="2.512129530">
        <ele>314.00</ele>
        <time>2015-05-31T07:41:42Z</time>
      </trkpt>
      <trkpt lat="41.674575730" lon="2.512118290">
        <ele>315.50</ele>
        <time>2015-05-31T07:41:46Z</time>
      </trkpt>
      <trkpt lat="41.674481090" lon="2.512029950">
        <ele>315.90</ele>
        <time>2015-05-31T07:41:53Z</time>
      </trkpt>
      <trkpt lat="41.674416470" lon="2.511942110">
        <ele>315.90</ele>
        <time>2015-05-31T07:41:55Z</time>
      </trkpt>
      <trkpt lat="41.674277410" lon="2.511764490">
        <ele>311.60</ele>
        <time>2015-05-31T07:41:59Z</time>
      </trkpt>
      <trkpt lat="41.674105500" lon="2.511376830">
        <ele>308.70</ele>
        <time>2015-05-31T07:42:04Z</time>
      </trkpt>
      <trkpt lat="41.673909280" lon="2.511030910">
        <ele>307.80</ele>
        <time>2015-05-31T07:42:10Z</time>
      </trkpt>
      <trkpt lat="41.673798390" lon="2.510900070">
        <ele>309.20</ele>
        <time>2015-05-31T07:42:16Z</time>
      </trkpt>
      <trkpt lat="41.673712980" lon="2.510783220">
        <ele>311.60</ele>
        <time>2015-05-31T07:42:22Z</time>
      </trkpt>
      <trkpt lat="41.673624970" lon="2.510637380">
        <ele>313.10</ele>
        <time>2015-05-31T07:42:30Z</time>
      </trkpt>
      <trkpt lat="41.673535780" lon="2.510463960">
        <ele>315.50</ele>
        <time>2015-05-31T07:42:40Z</time>
      </trkpt>
      <trkpt lat="41.673527990" lon="2.510442160">
        <ele>315.50</ele>
        <time>2015-05-31T07:42:41Z</time>
      </trkpt>
      <trkpt lat="41.673467810" lon="2.510298920">
        <ele>317.90</ele>
        <time>2015-05-31T07:42:49Z</time>
      </trkpt>
      <trkpt lat="41.673446850" lon="2.510229770">
        <ele>318.80</ele>
        <time>2015-05-31T07:42:53Z</time>
      </trkpt>
      <trkpt lat="41.673443750" lon="2.510043940">
        <ele>319.80</ele>
        <time>2015-05-31T07:43:00Z</time>
      </trkpt>
      <trkpt lat="41.673468640" lon="2.509776470">
        <ele>319.80</ele>
        <time>2015-05-31T07:43:08Z</time>
      </trkpt>
      <trkpt lat="41.673476770" lon="2.509492160">
        <ele>320.70</ele>
        <time>2015-05-31T07:43:17Z</time>
      </trkpt>
      <trkpt lat="41.673471580" lon="2.509286220">
        <ele>321.20</ele>
        <time>2015-05-31T07:43:26Z</time>
      </trkpt>
      <trkpt lat="41.673465630" lon="2.509267610">
        <ele>321.20</ele>
        <time>2015-05-31T07:43:27Z</time>
      </trkpt>
      <trkpt lat="41.673447600" lon="2.509185210">
        <ele>322.70</ele>
        <time>2015-05-31T07:43:31Z</time>
      </trkpt>
      <trkpt lat="41.673428660" lon="2.509017830">
        <ele>324.60</ele>
        <time>2015-05-31T07:43:38Z</time>
      </trkpt>
      <trkpt lat="41.673435870" lon="2.508995950">
        <ele>325.10</ele>
        <time>2015-05-31T07:43:39Z</time>
      </trkpt>
      <trkpt lat="41.673495800" lon="2.508940130">
        <ele>325.50</ele>
        <time>2015-05-31T07:43:43Z</time>
      </trkpt>
      <trkpt lat="41.673642650" lon="2.508858820">
        <ele>325.10</ele>
        <time>2015-05-31T07:43:50Z</time>
      </trkpt>
      <trkpt lat="41.673763520" lon="2.508739210">
        <ele>325.10</ele>
        <time>2015-05-31T07:43:56Z</time>
      </trkpt>
      <trkpt lat="41.673891680" lon="2.508597480">
        <ele>326.00</ele>
        <time>2015-05-31T07:44:03Z</time>
      </trkpt>
      <trkpt lat="41.674052780" lon="2.508475770">
        <ele>326.00</ele>
        <time>2015-05-31T07:44:09Z</time>
      </trkpt>
      <trkpt lat="41.674087730" lon="2.508452970">
        <ele>324.60</ele>
        <time>2015-05-31T07:44:10Z</time>
      </trkpt>
      <trkpt lat="41.674207840" lon="2.508161110">
        <ele>323.60</ele>
        <time>2015-05-31T07:44:16Z</time>
      </trkpt>
      <trkpt lat="41.674236760" lon="2.508048040">
        <ele>323.60</ele>
        <time>2015-05-31T07:44:19Z</time>
      </trkpt>
      <trkpt lat="41.674340110" lon="2.507812010">
        <ele>324.10</ele>
        <time>2015-05-31T07:44:26Z</time>
      </trkpt>
      <trkpt lat="41.674496680" lon="2.507644120">
        <ele>322.20</ele>
        <time>2015-05-31T07:44:32Z</time>
      </trkpt>
      <trkpt lat="41.674629290" lon="2.507545550">
        <ele>319.30</ele>
        <time>2015-05-31T07:44:36Z</time>
      </trkpt>
      <trkpt lat="41.674721400" lon="2.507341280">
        <ele>316.90</ele>
        <time>2015-05-31T07:44:41Z</time>
      </trkpt>
      <trkpt lat="41.674783340" lon="2.507175490">
        <ele>313.10</ele>
        <time>2015-05-31T07:44:47Z</time>
      </trkpt>
      <trkpt lat="41.674811090" lon="2.507072390">
        <ele>312.60</ele>
        <time>2015-05-31T07:44:49Z</time>
      </trkpt>
      <trkpt lat="41.674846960" lon="2.506925960">
        <ele>309.20</ele>
        <time>2015-05-31T07:44:52Z</time>
      </trkpt>
      <trkpt lat="41.674873790" lon="2.506812050">
        <ele>306.30</ele>
        <time>2015-05-31T07:44:55Z</time>
      </trkpt>
      <trkpt lat="41.674878650" lon="2.506711630">
        <ele>305.40</ele>
        <time>2015-05-31T07:44:57Z</time>
      </trkpt>
      <trkpt lat="41.674879570" lon="2.506549860">
        <ele>305.40</ele>
        <time>2015-05-31T07:45:02Z</time>
      </trkpt>
      <trkpt lat="41.674891470" lon="2.506447100">
        <ele>304.90</ele>
        <time>2015-05-31T07:45:09Z</time>
      </trkpt>
      <trkpt lat="41.674888540" lon="2.506405780">
        <ele>304.90</ele>
        <time>2015-05-31T07:45:21Z</time>
      </trkpt>
      <trkpt lat="41.674888290" lon="2.506423800">
        <ele>305.40</ele>
        <time>2015-05-31T07:45:27Z</time>
      </trkpt>
      <trkpt lat="41.674915860" lon="2.506481380">
        <ele>305.40</ele>
        <time>2015-05-31T07:45:36Z</time>
      </trkpt>
      <trkpt lat="41.674932880" lon="2.506460340">
        <ele>304.40</ele>
        <time>2015-05-31T07:45:42Z</time>
      </trkpt>
      <trkpt lat="41.674933300" lon="2.506458830">
        <ele>303.90</ele>
        <time>2015-05-31T07:45:45Z</time>
      </trkpt>
      <trkpt lat="41.674972110" lon="2.506320110">
        <ele>303.00</ele>
        <time>2015-05-31T07:45:52Z</time>
      </trkpt>
      <trkpt lat="41.675043270" lon="2.506243250">
        <ele>299.60</ele>
        <time>2015-05-31T07:45:58Z</time>
      </trkpt>
      <trkpt lat="41.675101610" lon="2.506150970">
        <ele>296.20</ele>
        <time>2015-05-31T07:46:04Z</time>
      </trkpt>
      <trkpt lat="41.675135550" lon="2.506090110">
        <ele>294.80</ele>
        <time>2015-05-31T07:46:08Z</time>
      </trkpt>
      <trkpt lat="41.675208060" lon="2.506016770">
        <ele>290.50</ele>
        <time>2015-05-31T07:46:14Z</time>
      </trkpt>
      <trkpt lat="41.675251980" lon="2.505988100">
        <ele>287.10</ele>
        <time>2015-05-31T07:46:17Z</time>
      </trkpt>
      <trkpt lat="41.675302020" lon="2.505980810">
        <ele>284.70</ele>
        <time>2015-05-31T07:46:21Z</time>
      </trkpt>
      <trkpt lat="41.675365470" lon="2.505943350">
        <ele>281.80</ele>
        <time>2015-05-31T07:46:25Z</time>
      </trkpt>
      <trkpt lat="41.675490530" lon="2.505854580">
        <ele>278.00</ele>
        <time>2015-05-31T07:46:32Z</time>
      </trkpt>
      <trkpt lat="41.675624890" lon="2.505764980">
        <ele>276.00</ele>
        <time>2015-05-31T07:46:38Z</time>
      </trkpt>
      <trkpt lat="41.675789510" lon="2.505693230">
        <ele>274.10</ele>
        <time>2015-05-31T07:46:43Z</time>
      </trkpt>
      <trkpt lat="41.675888750" lon="2.505627850">
        <ele>273.20</ele>
        <time>2015-05-31T07:46:48Z</time>
      </trkpt>
      <trkpt lat="41.675918340" lon="2.505585190">
        <ele>273.20</ele>
        <time>2015-05-31T07:46:55Z</time>
      </trkpt>
      <trkpt lat="41.675876510" lon="2.505439760">
        <ele>271.20</ele>
        <time>2015-05-31T07:47:01Z</time>
      </trkpt>
      <trkpt lat="41.675823870" lon="2.505236330">
        <ele>268.80</ele>
        <time>2015-05-31T07:47:06Z</time>
      </trkpt>
      <trkpt lat="41.675755810" lon="2.504968280">
        <ele>267.90</ele>
        <time>2015-05-31T07:47:13Z</time>
      </trkpt>
      <trkpt lat="41.675742150" lon="2.504779600">
        <ele>267.40</ele>
        <time>2015-05-31T07:47:19Z</time>
      </trkpt>
      <trkpt lat="41.675717260" lon="2.504678260">
        <ele>267.90</ele>
        <time>2015-05-31T07:47:23Z</time>
      </trkpt>
      <trkpt lat="41.675610390" lon="2.504445920">
        <ele>269.30</ele>
        <time>2015-05-31T07:47:31Z</time>
      </trkpt>
      <trkpt lat="41.675468150" lon="2.504268310">
        <ele>269.80</ele>
        <time>2015-05-31T07:47:39Z</time>
      </trkpt>
      <trkpt lat="41.675367310" lon="2.504145010">
        <ele>270.30</ele>
        <time>2015-05-31T07:47:45Z</time>
      </trkpt>
      <trkpt lat="41.675318110" lon="2.504023720">
        <ele>270.80</ele>
        <time>2015-05-31T07:47:51Z</time>
      </trkpt>
      <trkpt lat="41.675256420" lon="2.503862960">
        <ele>271.70</ele>
        <time>2015-05-31T07:47:58Z</time>
      </trkpt>
      <trkpt lat="41.675100940" lon="2.503729770">
        <ele>272.20</ele>
        <time>2015-05-31T07:48:06Z</time>
      </trkpt>
      <trkpt lat="41.675005880" lon="2.503545790">
        <ele>272.70</ele>
        <time>2015-05-31T07:48:13Z</time>
      </trkpt>
      <trkpt lat="41.674971770" lon="2.503404720">
        <ele>271.20</ele>
        <time>2015-05-31T07:48:17Z</time>
      </trkpt>
      <trkpt lat="41.674898930" lon="2.503243530">
        <ele>269.80</ele>
        <time>2015-05-31T07:48:22Z</time>
      </trkpt>
      <trkpt lat="41.674805140" lon="2.502983860">
        <ele>268.80</ele>
        <time>2015-05-31T07:48:28Z</time>
      </trkpt>
      <trkpt lat="41.674670780" lon="2.502785630">
        <ele>268.40</ele>
        <time>2015-05-31T07:48:34Z</time>
      </trkpt>
      <trkpt lat="41.674632720" lon="2.502744060">
        <ele>268.40</ele>
        <time>2015-05-31T07:48:36Z</time>
      </trkpt>
      <trkpt lat="41.674555270" lon="2.502671390">
        <ele>269.80</ele>
        <time>2015-05-31T07:48:40Z</time>
      </trkpt>
      <trkpt lat="41.674435080" lon="2.502542810">
        <ele>271.20</ele>
        <time>2015-05-31T07:48:47Z</time>
      </trkpt>
      <trkpt lat="41.674300630" lon="2.502400650">
        <ele>271.20</ele>
        <time>2015-05-31T07:48:53Z</time>
      </trkpt>
      <trkpt lat="41.674124360" lon="2.502459990">
        <ele>271.20</ele>
        <time>2015-05-31T07:48:58Z</time>
      </trkpt>
      <trkpt lat="41.674084040" lon="2.502487320">
        <ele>271.20</ele>
        <time>2015-05-31T07:48:59Z</time>
      </trkpt>
      <trkpt lat="41.673906260" lon="2.502592010">
        <ele>269.30</ele>
        <time>2015-05-31T07:49:03Z</time>
      </trkpt>
      <trkpt lat="41.673682380" lon="2.502589330">
        <ele>267.40</ele>
        <time>2015-05-31T07:49:09Z</time>
      </trkpt>
      <trkpt lat="41.673645330" lon="2.502564350">
        <ele>266.90</ele>
        <time>2015-05-31T07:49:10Z</time>
      </trkpt>
      <trkpt lat="41.673505270" lon="2.502370890">
        <ele>264.50</ele>
        <time>2015-05-31T07:49:15Z</time>
      </trkpt>
      <trkpt lat="41.673436880" lon="2.502277270">
        <ele>264.00</ele>
        <time>2015-05-31T07:49:17Z</time>
      </trkpt>
      <trkpt lat="41.673320700" lon="2.502144670">
        <ele>262.60</ele>
        <time>2015-05-31T07:49:20Z</time>
      </trkpt>
      <trkpt lat="41.673253900" lon="2.502027240">
        <ele>261.60</ele>
        <time>2015-05-31T07:49:22Z</time>
      </trkpt>
      <trkpt lat="41.673225230" lon="2.501963030">
        <ele>261.10</ele>
        <time>2015-05-31T07:49:23Z</time>
      </trkpt>
      <trkpt lat="41.673124060" lon="2.501785170">
        <ele>260.20</ele>
        <time>2015-05-31T07:49:26Z</time>
      </trkpt>
      <trkpt lat="41.673091630" lon="2.501727750">
        <ele>259.20</ele>
        <time>2015-05-31T07:49:27Z</time>
      </trkpt>
      <trkpt lat="41.672943430" lon="2.501427930">
        <ele>256.30</ele>
        <time>2015-05-31T07:49:32Z</time>
      </trkpt>
      <trkpt lat="41.672874120" lon="2.501237580">
        <ele>254.40</ele>
        <time>2015-05-31T07:49:35Z</time>
      </trkpt>
      <trkpt lat="41.672694490" lon="2.501011600">
        <ele>249.60</ele>
        <time>2015-05-31T07:49:39Z</time>
      </trkpt>
      <trkpt lat="41.672548900" lon="2.500677330">
        <ele>245.30</ele>
        <time>2015-05-31T07:49:44Z</time>
      </trkpt>
      <trkpt lat="41.672455440" lon="2.500371980">
        <ele>243.80</ele>
        <time>2015-05-31T07:49:48Z</time>
      </trkpt>
      <trkpt lat="41.672436410" lon="2.500170810">
        <ele>241.90</ele>
        <time>2015-05-31T07:49:51Z</time>
      </trkpt>
      <trkpt lat="41.672512600" lon="2.500013650">
        <ele>241.00</ele>
        <time>2015-05-31T07:49:55Z</time>
      </trkpt>
      <trkpt lat="41.672597260" lon="2.499904940">
        <ele>239.50</ele>
        <time>2015-05-31T07:49:58Z</time>
      </trkpt>
      <trkpt lat="41.672671860" lon="2.499624650">
        <ele>237.10</ele>
        <time>2015-05-31T07:50:02Z</time>
      </trkpt>
      <trkpt lat="41.672681670" lon="2.499396740">
        <ele>235.70</ele>
        <time>2015-05-31T07:50:05Z</time>
      </trkpt>
      <trkpt lat="41.672705640" lon="2.499172110">
        <ele>234.70</ele>
        <time>2015-05-31T07:50:08Z</time>
      </trkpt>
      <trkpt lat="41.672656770" lon="2.498913280">
        <ele>233.70</ele>
        <time>2015-05-31T07:50:12Z</time>
      </trkpt>
      <trkpt lat="41.672612600" lon="2.498610860">
        <ele>231.30</ele>
        <time>2015-05-31T07:50:16Z</time>
      </trkpt>
      <trkpt lat="41.672585020" lon="2.498284550">
        <ele>229.90</ele>
        <time>2015-05-31T07:50:20Z</time>
      </trkpt>
      <trkpt lat="41.672616790" lon="2.498136940">
        <ele>228.00</ele>
        <time>2015-05-31T07:50:23Z</time>
      </trkpt>
      <trkpt lat="41.672643190" lon="2.498099730">
        <ele>227.50</ele>
        <time>2015-05-31T07:50:24Z</time>
      </trkpt>
      <trkpt lat="41.672744870" lon="2.497849280">
        <ele>224.10</ele>
        <time>2015-05-31T07:50:28Z</time>
      </trkpt>
      <trkpt lat="41.672876800" lon="2.497633360">
        <ele>222.20</ele>
        <time>2015-05-31T07:50:33Z</time>
      </trkpt>
      <trkpt lat="41.672876800" lon="2.497530090">
        <ele>220.30</ele>
        <time>2015-05-31T07:50:38Z</time>
      </trkpt>
      <trkpt lat="41.672874370" lon="2.497516850">
        <ele>219.80</ele>
        <time>2015-05-31T07:50:39Z</time>
      </trkpt>
      <trkpt lat="41.672746790" lon="2.497471670">
        <ele>217.40</ele>
        <time>2015-05-31T07:50:45Z</time>
      </trkpt>
      <trkpt lat="41.672569010" lon="2.497500670">
        <ele>214.50</ele>
        <time>2015-05-31T07:50:50Z</time>
      </trkpt>
      <trkpt lat="41.672375640" lon="2.497567140">
        <ele>211.20</ele>
        <time>2015-05-31T07:50:55Z</time>
      </trkpt>
      <trkpt lat="41.672196190" lon="2.497653220">
        <ele>210.70</ele>
        <time>2015-05-31T07:51:02Z</time>
      </trkpt>
      <trkpt lat="41.672024110" lon="2.497693960">
        <ele>212.10</ele>
        <time>2015-05-31T07:51:08Z</time>
      </trkpt>
      <trkpt lat="41.671825120" lon="2.497776770">
        <ele>212.10</ele>
        <time>2015-05-31T07:51:14Z</time>
      </trkpt>
      <trkpt lat="41.671704090" lon="2.497831420">
        <ele>208.70</ele>
        <time>2015-05-31T07:51:18Z</time>
      </trkpt>
      <trkpt lat="41.671545920" lon="2.497882640">
        <ele>205.90</ele>
        <time>2015-05-31T07:51:23Z</time>
      </trkpt>
      <trkpt lat="41.671438380" lon="2.497923290">
        <ele>203.90</ele>
        <time>2015-05-31T07:51:27Z</time>
      </trkpt>
      <trkpt lat="41.671313740" lon="2.498032590">
        <ele>203.90</ele>
        <time>2015-05-31T07:51:33Z</time>
      </trkpt>
      <trkpt lat="41.671156240" lon="2.498221680">
        <ele>203.90</ele>
        <time>2015-05-31T07:51:40Z</time>
      </trkpt>
      <trkpt lat="41.671089940" lon="2.498244650">
        <ele>203.90</ele>
        <time>2015-05-31T07:51:42Z</time>
      </trkpt>
      <trkpt lat="41.670924990" lon="2.498355960">
        <ele>203.00</ele>
        <time>2015-05-31T07:51:46Z</time>
      </trkpt>
      <trkpt lat="41.670689370" lon="2.498448160">
        <ele>202.00</ele>
        <time>2015-05-31T07:51:52Z</time>
      </trkpt>
      <trkpt lat="41.670566240" lon="2.498343050">
        <ele>201.50</ele>
        <time>2015-05-31T07:51:56Z</time>
      </trkpt>
      <trkpt lat="41.670410340" lon="2.498274070">
        <ele>200.60</ele>
        <time>2015-05-31T07:52:00Z</time>
      </trkpt>
      <trkpt lat="41.670192740" lon="2.498300140">
        <ele>200.10</ele>
        <time>2015-05-31T07:52:04Z</time>
      </trkpt>
      <trkpt lat="41.669954950" lon="2.498406000">
        <ele>199.61</ele>
        <time>2015-05-31T07:52:10Z</time>
      </trkpt>
      <trkpt lat="41.669861830" lon="2.498415640">
        <ele>199.61</ele>
        <time>2015-05-31T07:52:12Z</time>
      </trkpt>
      <trkpt lat="41.669748250" lon="2.498449420">
        <ele>199.13</ele>
        <time>2015-05-31T07:52:16Z</time>
      </trkpt>
      <trkpt lat="41.669564270" lon="2.498441210">
        <ele>199.13</ele>
        <time>2015-05-31T07:52:23Z</time>
      </trkpt>
      <trkpt lat="41.669474750" lon="2.498434500">
        <ele>200.09</ele>
        <time>2015-05-31T07:52:26Z</time>
      </trkpt>
      <trkpt lat="41.669289510" lon="2.498423940">
        <ele>200.09</ele>
        <time>2015-05-31T07:52:31Z</time>
      </trkpt>
      <trkpt lat="41.669077200" lon="2.498473480">
        <ele>200.09</ele>
        <time>2015-05-31T07:52:37Z</time>
      </trkpt>
      <trkpt lat="41.668898160" lon="2.498520580">
        <ele>200.09</ele>
        <time>2015-05-31T07:52:42Z</time>
      </trkpt>
      <trkpt lat="41.668717860" lon="2.498611530">
        <ele>200.57</ele>
        <time>2015-05-31T07:52:48Z</time>
      </trkpt>
      <trkpt lat="41.668647960" lon="2.498656370">
        <ele>200.57</ele>
        <time>2015-05-31T07:52:50Z</time>
      </trkpt>
      <trkpt lat="41.668505800" lon="2.498676320">
        <ele>201.53</ele>
        <time>2015-05-31T07:52:54Z</time>
      </trkpt>
      <trkpt lat="41.668308490" lon="2.498808840">
        <ele>202.01</ele>
        <time>2015-05-31T07:53:01Z</time>
      </trkpt>
      <trkpt lat="41.668134820" lon="2.498936750">
        <ele>202.01</ele>
        <time>2015-05-31T07:53:07Z</time>
      </trkpt>
      <trkpt lat="41.668134820" lon="2.499107150">
        <ele>202.01</ele>
        <time>2015-05-31T07:53:12Z</time>
      </trkpt>
      <trkpt lat="41.668162060" lon="2.499306050">
        <ele>202.01</ele>
        <time>2015-05-31T07:53:17Z</time>
      </trkpt>
      <trkpt lat="41.668189720" lon="2.499676450">
        <ele>202.49</ele>
        <time>2015-05-31T07:53:24Z</time>
      </trkpt>
      <trkpt lat="41.668211770" lon="2.500143740">
        <ele>202.98</ele>
        <time>2015-05-31T07:53:31Z</time>
      </trkpt>
      <trkpt lat="41.668208830" lon="2.500539110">
        <ele>203.94</ele>
        <time>2015-05-31T07:53:39Z</time>
      </trkpt>
      <trkpt lat="41.668263820" lon="2.500847570">
        <ele>203.94</ele>
        <time>2015-05-31T07:53:45Z</time>
      </trkpt>
      <trkpt lat="41.668337410" lon="2.501237070">
        <ele>204.90</ele>
        <time>2015-05-31T07:53:53Z</time>
      </trkpt>
      <trkpt lat="41.668441260" lon="2.501685250">
        <ele>204.90</ele>
        <time>2015-05-31T07:54:02Z</time>
      </trkpt>
      <trkpt lat="41.668459030" lon="2.501740660">
        <ele>204.90</ele>
        <time>2015-05-31T07:54:03Z</time>
      </trkpt>
      <trkpt lat="41.668550480" lon="2.502209210">
        <ele>205.38</ele>
        <time>2015-05-31T07:54:12Z</time>
      </trkpt>
      <trkpt lat="41.668643520" lon="2.502548760">
        <ele>205.38</ele>
        <time>2015-05-31T07:54:19Z</time>
      </trkpt>
      <trkpt lat="41.668753490" lon="2.502996770">
        <ele>206.82</ele>
        <time>2015-05-31T07:54:28Z</time>
      </trkpt>
      <trkpt lat="41.668854490" lon="2.503357860">
        <ele>206.82</ele>
        <time>2015-05-31T07:54:35Z</time>
      </trkpt>
      <trkpt lat="41.668894470" lon="2.503542770">
        <ele>206.82</ele>
        <time>2015-05-31T07:54:38Z</time>
      </trkpt>
      <trkpt lat="41.668866220" lon="2.503968570">
        <ele>206.82</ele>
        <time>2015-05-31T07:54:45Z</time>
      </trkpt>
      <trkpt lat="41.668759020" lon="2.504402670">
        <ele>207.30</ele>
        <time>2015-05-31T07:54:54Z</time>
      </trkpt>
      <trkpt lat="41.668746030" lon="2.504633090">
        <ele>209.22</ele>
        <time>2015-05-31T07:55:00Z</time>
      </trkpt>
      <trkpt lat="41.668789530" lon="2.504881530">
        <ele>212.11</ele>
        <time>2015-05-31T07:55:07Z</time>
      </trkpt>
      <trkpt lat="41.668823310" lon="2.505060230">
        <ele>214.03</ele>
        <time>2015-05-31T07:55:13Z</time>
      </trkpt>
      <trkpt lat="41.668793050" lon="2.505314120">
        <ele>216.43</ele>
        <time>2015-05-31T07:55:20Z</time>
      </trkpt>
      <trkpt lat="41.668801430" lon="2.505589550">
        <ele>218.36</ele>
        <time>2015-05-31T07:55:27Z</time>
      </trkpt>
      <trkpt lat="41.668841080" lon="2.505806800">
        <ele>219.32</ele>
        <time>2015-05-31T07:55:33Z</time>
      </trkpt>
      <trkpt lat="41.668880470" lon="2.506101510">
        <ele>220.76</ele>
        <time>2015-05-31T07:55:41Z</time>
      </trkpt>
      <trkpt lat="41.668868820" lon="2.506339730">
        <ele>222.68</ele>
        <time>2015-05-31T07:55:48Z</time>
      </trkpt>
      <trkpt lat="41.668825990" lon="2.506485910">
        <ele>223.16</ele>
        <time>2015-05-31T07:55:52Z</time>
      </trkpt>
      <trkpt lat="41.668866560" lon="2.506818330">
        <ele>221.72</ele>
        <time>2015-05-31T07:55:57Z</time>
      </trkpt>
      <trkpt lat="41.668942000" lon="2.506912460">
        <ele>221.72</ele>
        <time>2015-05-31T07:55:59Z</time>
      </trkpt>
      <trkpt lat="41.669051300" lon="2.507208010">
        <ele>221.24</ele>
        <time>2015-05-31T07:56:05Z</time>
      </trkpt>
      <trkpt lat="41.669025400" lon="2.507528280">
        <ele>219.80</ele>
        <time>2015-05-31T07:56:09Z</time>
      </trkpt>
      <trkpt lat="41.668968570" lon="2.507819970">
        <ele>219.32</ele>
        <time>2015-05-31T07:56:12Z</time>
      </trkpt>
      <trkpt lat="41.668967480" lon="2.508157010">
        <ele>217.88</ele>
        <time>2015-05-31T07:56:16Z</time>
      </trkpt>
      <trkpt lat="41.669063120" lon="2.508352640">
        <ele>217.40</ele>
        <time>2015-05-31T07:56:19Z</time>
      </trkpt>
      <trkpt lat="41.669118940" lon="2.508643830">
        <ele>217.40</ele>
        <time>2015-05-31T07:56:23Z</time>
      </trkpt>
      <trkpt lat="41.669130340" lon="2.508787740">
        <ele>217.40</ele>
        <time>2015-05-31T07:56:25Z</time>
      </trkpt>
      <trkpt lat="41.669158670" lon="2.508933670">
        <ele>217.40</ele>
        <time>2015-05-31T07:56:27Z</time>
      </trkpt>
      <trkpt lat="41.669149360" lon="2.509203490">
        <ele>216.91</ele>
        <time>2015-05-31T07:56:31Z</time>
      </trkpt>
      <trkpt lat="41.669114500" lon="2.509361490">
        <ele>218.36</ele>
        <time>2015-05-31T07:56:35Z</time>
      </trkpt>
      <trkpt lat="41.669103600" lon="2.509571370">
        <ele>219.32</ele>
        <time>2015-05-31T07:56:41Z</time>
      </trkpt>
      <trkpt lat="41.669108040" lon="2.509742360">
        <ele>219.80</ele>
        <time>2015-05-31T07:56:45Z</time>
      </trkpt>
      <trkpt lat="41.669059590" lon="2.509961460">
        <ele>220.76</ele>
        <time>2015-05-31T07:56:52Z</time>
      </trkpt>
      <trkpt lat="41.669063450" lon="2.509994820">
        <ele>220.76</ele>
        <time>2015-05-31T07:56:57Z</time>
      </trkpt>
      <trkpt lat="41.669089600" lon="2.509963220">
        <ele>220.76</ele>
        <time>2015-05-31T07:57:02Z</time>
      </trkpt>
      <trkpt lat="41.669122460" lon="2.509927260">
        <ele>220.76</ele>
        <time>2015-05-31T07:57:10Z</time>
      </trkpt>
      <trkpt lat="41.669110560" lon="2.509937070">
        <ele>220.76</ele>
        <time>2015-05-31T07:57:22Z</time>
      </trkpt>
      <trkpt lat="41.669106200" lon="2.509945700">
        <ele>220.76</ele>
        <time>2015-05-31T07:57:34Z</time>
      </trkpt>
      <trkpt lat="41.669103850" lon="2.509952160">
        <ele>220.76</ele>
        <time>2015-05-31T07:57:45Z</time>
      </trkpt>
      <trkpt lat="41.669076020" lon="2.509948640">
        <ele>220.76</ele>
        <time>2015-05-31T07:58:09Z</time>
      </trkpt>
      <trkpt lat="41.669050370" lon="2.509932540">
        <ele>220.76</ele>
        <time>2015-05-31T07:58:36Z</time>
      </trkpt>
      <trkpt lat="41.669051720" lon="2.509930530">
        <ele>220.76</ele>
        <time>2015-05-31T07:59:05Z</time>
      </trkpt>
      <trkpt lat="41.669053140" lon="2.509945870">
        <ele>220.76</ele>
        <time>2015-05-31T07:59:30Z</time>
      </trkpt>
      <trkpt lat="41.669044760" lon="2.509929280">
        <ele>220.76</ele>
        <time>2015-05-31T07:59:54Z</time>
      </trkpt>
      <trkpt lat="41.669033610" lon="2.509939840">
        <ele>220.76</ele>
        <time>2015-05-31T08:00:11Z</time>
      </trkpt>
      <trkpt lat="41.669027830" lon="2.509976210">
        <ele>221.24</ele>
        <time>2015-05-31T08:00:19Z</time>
      </trkpt>
      <trkpt lat="41.669041570" lon="2.509979230">
        <ele>221.24</ele>
        <time>2015-05-31T08:00:27Z</time>
      </trkpt>
      <trkpt lat="41.669044420" lon="2.509988120">
        <ele>221.24</ele>
        <time>2015-05-31T08:00:35Z</time>
      </trkpt>
      <trkpt lat="41.669040990" lon="2.509990800">
        <ele>221.24</ele>
        <time>2015-05-31T08:00:36Z</time>
      </trkpt>
      <trkpt lat="41.668994130" lon="2.509884010">
        <ele>221.24</ele>
        <time>2015-05-31T08:00:43Z</time>
      </trkpt>
      <trkpt lat="41.668993800" lon="2.509844700">
        <ele>221.72</ele>
        <time>2015-05-31T08:00:45Z</time>
      </trkpt>
      <trkpt lat="41.669011650" lon="2.509634570">
        <ele>222.20</ele>
        <time>2015-05-31T08:00:52Z</time>
      </trkpt>
      <trkpt lat="41.668976530" lon="2.509453270">
        <ele>223.64</ele>
        <time>2015-05-31T08:00:58Z</time>
      </trkpt>
      <trkpt lat="41.668865720" lon="2.509293930">
        <ele>224.61</ele>
        <time>2015-05-31T08:01:05Z</time>
      </trkpt>
      <trkpt lat="41.668742260" lon="2.509210950">
        <ele>225.09</ele>
        <time>2015-05-31T08:01:13Z</time>
      </trkpt>
      <trkpt lat="41.668613340" lon="2.509076920">
        <ele>226.53</ele>
        <time>2015-05-31T08:01:21Z</time>
      </trkpt>
      <trkpt lat="41.668569590" lon="2.508847510">
        <ele>227.97</ele>
        <time>2015-05-31T08:01:29Z</time>
      </trkpt>
      <trkpt lat="41.668568500" lon="2.508650450">
        <ele>228.45</ele>
        <time>2015-05-31T08:01:37Z</time>
      </trkpt>
      <trkpt lat="41.668552410" lon="2.508437380">
        <ele>230.37</ele>
        <time>2015-05-31T08:01:45Z</time>
      </trkpt>
      <trkpt lat="41.668542600" lon="2.508245600">
        <ele>231.33</ele>
        <time>2015-05-31T08:01:51Z</time>
      </trkpt>
      <trkpt lat="41.668508230" lon="2.508071340">
        <ele>233.26</ele>
        <time>2015-05-31T08:01:57Z</time>
      </trkpt>
      <trkpt lat="41.668469930" lon="2.507869510">
        <ele>233.74</ele>
        <time>2015-05-31T08:02:03Z</time>
      </trkpt>
      <trkpt lat="41.668460710" lon="2.507649400">
        <ele>234.70</ele>
        <time>2015-05-31T08:02:09Z</time>
      </trkpt>
      <trkpt lat="41.668361210" lon="2.507511180">
        <ele>235.66</ele>
        <time>2015-05-31T08:02:15Z</time>
      </trkpt>
      <trkpt lat="41.668123840" lon="2.507399370">
        <ele>235.66</ele>
        <time>2015-05-31T08:02:22Z</time>
      </trkpt>
      <trkpt lat="41.667968770" lon="2.507338430">
        <ele>235.66</ele>
        <time>2015-05-31T08:02:26Z</time>
      </trkpt>
      <trkpt lat="41.667874310" lon="2.507124610">
        <ele>234.22</ele>
        <time>2015-05-31T08:02:31Z</time>
      </trkpt>
      <trkpt lat="41.667966180" lon="2.506987480">
        <ele>234.22</ele>
        <time>2015-05-31T08:02:35Z</time>
      </trkpt>
      <trkpt lat="41.668144960" lon="2.506744660">
        <ele>234.22</ele>
        <time>2015-05-31T08:02:43Z</time>
      </trkpt>
      <trkpt lat="41.668166500" lon="2.506666960">
        <ele>235.66</ele>
        <time>2015-05-31T08:02:45Z</time>
      </trkpt>
      <trkpt lat="41.668189470" lon="2.506384570">
        <ele>236.14</ele>
        <time>2015-05-31T08:02:51Z</time>
      </trkpt>
      <trkpt lat="41.668159380" lon="2.506070080">
        <ele>236.14</ele>
        <time>2015-05-31T08:02:58Z</time>
      </trkpt>
      <trkpt lat="41.668086290" lon="2.505958680">
        <ele>236.14</ele>
        <time>2015-05-31T08:03:01Z</time>
      </trkpt>
      <trkpt lat="41.667970700" lon="2.505902440">
        <ele>236.14</ele>
        <time>2015-05-31T08:03:04Z</time>
      </trkpt>
      <trkpt lat="41.667769620" lon="2.505690970">
        <ele>235.66</ele>
        <time>2015-05-31T08:03:11Z</time>
      </trkpt>
      <trkpt lat="41.667577930" lon="2.505548050">
        <ele>236.62</ele>
        <time>2015-05-31T08:03:17Z</time>
      </trkpt>
      <trkpt lat="41.667358070" lon="2.505440850">
        <ele>238.06</ele>
        <time>2015-05-31T08:03:24Z</time>
      </trkpt>
      <trkpt lat="41.667250700" lon="2.505372370">
        <ele>238.54</ele>
        <time>2015-05-31T08:03:28Z</time>
      </trkpt>
      <trkpt lat="41.667226140" lon="2.505195090">
        <ele>239.51</ele>
        <time>2015-05-31T08:03:33Z</time>
      </trkpt>
      <trkpt lat="41.667241640" lon="2.505169110">
        <ele>239.51</ele>
        <time>2015-05-31T08:03:34Z</time>
      </trkpt>
      <trkpt lat="41.667387570" lon="2.504974060">
        <ele>240.95</ele>
        <time>2015-05-31T08:03:42Z</time>
      </trkpt>
      <trkpt lat="41.667466530" lon="2.504806260">
        <ele>242.87</ele>
        <time>2015-05-31T08:03:48Z</time>
      </trkpt>
      <trkpt lat="41.667452950" lon="2.504591090">
        <ele>243.83</ele>
        <time>2015-05-31T08:03:54Z</time>
      </trkpt>
      <trkpt lat="41.667345080" lon="2.504364530">
        <ele>245.27</ele>
        <time>2015-05-31T08:04:02Z</time>
      </trkpt>
      <trkpt lat="41.667260250" lon="2.504147020">
        <ele>246.23</ele>
        <time>2015-05-31T08:04:09Z</time>
      </trkpt>
      <trkpt lat="41.667212390" lon="2.503955740">
        <ele>247.20</ele>
        <time>2015-05-31T08:04:14Z</time>
      </trkpt>
      <trkpt lat="41.667105270" lon="2.503855660">
        <ele>247.68</ele>
        <time>2015-05-31T08:04:18Z</time>
      </trkpt>
      <trkpt lat="41.666879210" lon="2.503773190">
        <ele>249.12</ele>
        <time>2015-05-31T08:04:26Z</time>
      </trkpt>
      <trkpt lat="41.666717520" lon="2.503802780">
        <ele>250.08</ele>
        <time>2015-05-31T08:04:32Z</time>
      </trkpt>
      <trkpt lat="41.666563970" lon="2.503785930">
        <ele>252.00</ele>
        <time>2015-05-31T08:04:39Z</time>
      </trkpt>
      <trkpt lat="41.666408650" lon="2.503723570">
        <ele>253.44</ele>
        <time>2015-05-31T08:04:46Z</time>
      </trkpt>
      <trkpt lat="41.666214360" lon="2.503710490">
        <ele>254.89</ele>
        <time>2015-05-31T08:04:54Z</time>
      </trkpt>
      <trkpt lat="41.666069850" lon="2.503719790">
        <ele>256.33</ele>
        <time>2015-05-31T08:05:00Z</time>
      </trkpt>
      <trkpt lat="41.665916460" lon="2.503702360">
        <ele>257.77</ele>
        <time>2015-05-31T08:05:07Z</time>
      </trkpt>
      <trkpt lat="41.665897690" lon="2.503571770">
        <ele>257.77</ele>
        <time>2015-05-31T08:05:12Z</time>
      </trkpt>
      <trkpt lat="41.665948320" lon="2.503491560">
        <ele>259.69</ele>
        <time>2015-05-31T08:05:16Z</time>
      </trkpt>
      <trkpt lat="41.666040770" lon="2.503289970">
        <ele>260.17</ele>
        <time>2015-05-31T08:05:24Z</time>
      </trkpt>
      <trkpt lat="41.666041100" lon="2.503059800">
        <ele>261.62</ele>
        <time>2015-05-31T08:05:31Z</time>
      </trkpt>
      <trkpt lat="41.665958710" lon="2.502900130">
        <ele>263.06</ele>
        <time>2015-05-31T08:05:38Z</time>
      </trkpt>
      <trkpt lat="41.665798450" lon="2.502850260">
        <ele>264.50</ele>
        <time>2015-05-31T08:05:45Z</time>
      </trkpt>
      <trkpt lat="41.665604910" lon="2.502780020">
        <ele>265.94</ele>
        <time>2015-05-31T08:05:53Z</time>
      </trkpt>
      <trkpt lat="41.665448170" lon="2.502738860">
        <ele>266.90</ele>
        <time>2015-05-31T08:06:00Z</time>
      </trkpt>
      <trkpt lat="41.665356640" lon="2.502862070">
        <ele>268.35</ele>
        <time>2015-05-31T08:06:06Z</time>
      </trkpt>
      <trkpt lat="41.665255470" lon="2.503024600">
        <ele>269.31</ele>
        <time>2015-05-31T08:06:13Z</time>
      </trkpt>
      <trkpt lat="41.665121440" lon="2.503149990">
        <ele>270.75</ele>
        <time>2015-05-31T08:06:21Z</time>
      </trkpt>
      <trkpt lat="41.665027480" lon="2.503209250">
        <ele>272.67</ele>
        <time>2015-05-31T08:06:26Z</time>
      </trkpt>
      <trkpt lat="41.664954560" lon="2.503355680">
        <ele>274.59</ele>
        <time>2015-05-31T08:06:33Z</time>
      </trkpt>
      <trkpt lat="41.664874680" lon="2.503598420">
        <ele>275.56</ele>
        <time>2015-05-31T08:06:42Z</time>
      </trkpt>
      <trkpt lat="41.664794630" lon="2.503772940">
        <ele>277.48</ele>
        <time>2015-05-31T08:06:49Z</time>
      </trkpt>
      <trkpt lat="41.664644930" lon="2.503904200">
        <ele>279.88</ele>
        <time>2015-05-31T08:06:57Z</time>
      </trkpt>
      <trkpt lat="41.664583410" lon="2.503938560">
        <ele>279.88</ele>
        <time>2015-05-31T08:07:00Z</time>
      </trkpt>
      <trkpt lat="41.664423560" lon="2.503917690">
        <ele>281.80</ele>
        <time>2015-05-31T08:07:09Z</time>
      </trkpt>
      <trkpt lat="41.664328010" lon="2.503803110">
        <ele>282.77</ele>
        <time>2015-05-31T08:07:16Z</time>
      </trkpt>
      <trkpt lat="41.664317370" lon="2.503787180">
        <ele>283.25</ele>
        <time>2015-05-31T08:07:17Z</time>
      </trkpt>
      <trkpt lat="41.664173280" lon="2.503659530">
        <ele>284.69</ele>
        <time>2015-05-31T08:07:26Z</time>
      </trkpt>
      <trkpt lat="41.664042270" lon="2.503628520">
        <ele>285.65</ele>
        <time>2015-05-31T08:07:33Z</time>
      </trkpt>
      <trkpt lat="41.663887210" lon="2.503646120">
        <ele>286.61</ele>
        <time>2015-05-31T08:07:41Z</time>
      </trkpt>
      <trkpt lat="41.663743370" lon="2.503752900">
        <ele>288.05</ele>
        <time>2015-05-31T08:07:49Z</time>
      </trkpt>
      <trkpt lat="41.663677910" lon="2.503874860">
        <ele>289.01</ele>
        <time>2015-05-31T08:07:54Z</time>
      </trkpt>
      <trkpt lat="41.663536510" lon="2.504006620">
        <ele>289.97</ele>
        <time>2015-05-31T08:08:02Z</time>
      </trkpt>
      <trkpt lat="41.663393680" lon="2.504098320">
        <ele>292.38</ele>
        <time>2015-05-31T08:08:10Z</time>
      </trkpt>
      <trkpt lat="41.663309690" lon="2.504306950">
        <ele>293.34</ele>
        <time>2015-05-31T08:08:18Z</time>
      </trkpt>
      <trkpt lat="41.663205250" lon="2.504486570">
        <ele>294.78</ele>
        <time>2015-05-31T08:08:26Z</time>
      </trkpt>
      <trkpt lat="41.663141470" lon="2.504621100">
        <ele>295.74</ele>
        <time>2015-05-31T08:08:32Z</time>
      </trkpt>
      <trkpt lat="41.663059490" lon="2.504802150">
        <ele>296.22</ele>
        <time>2015-05-31T08:08:39Z</time>
      </trkpt>
      <trkpt lat="41.662996040" lon="2.504920170">
        <ele>297.67</ele>
        <time>2015-05-31T08:08:44Z</time>
      </trkpt>
      <trkpt lat="41.662954300" lon="2.505033660">
        <ele>298.63</ele>
        <time>2015-05-31T08:08:49Z</time>
      </trkpt>
      <trkpt lat="41.662947260" lon="2.505194420">
        <ele>300.07</ele>
        <time>2015-05-31T08:08:56Z</time>
      </trkpt>
      <trkpt lat="41.662958570" lon="2.505376980">
        <ele>301.51</ele>
        <time>2015-05-31T08:09:03Z</time>
      </trkpt>
      <trkpt lat="41.662976180" lon="2.505554760">
        <ele>302.47</ele>
        <time>2015-05-31T08:09:10Z</time>
      </trkpt>
      <trkpt lat="41.662968130" lon="2.505761290">
        <ele>303.91</ele>
        <time>2015-05-31T08:09:18Z</time>
      </trkpt>
      <trkpt lat="41.662926470" lon="2.505945020">
        <ele>305.84</ele>
        <time>2015-05-31T08:09:25Z</time>
      </trkpt>
      <trkpt lat="41.662860260" lon="2.506068070">
        <ele>306.80</ele>
        <time>2015-05-31T08:09:31Z</time>
      </trkpt>
      <trkpt lat="41.662701080" lon="2.506177540">
        <ele>307.28</ele>
        <time>2015-05-31T08:09:39Z</time>
      </trkpt>
      <trkpt lat="41.662492120" lon="2.506189690">
        <ele>308.24</ele>
        <time>2015-05-31T08:09:48Z</time>
      </trkpt>
      <trkpt lat="41.662305960" lon="2.506228670">
        <ele>308.72</ele>
        <time>2015-05-31T08:09:54Z</time>
      </trkpt>
      <trkpt lat="41.662269330" lon="2.506221210">
        <ele>308.72</ele>
        <time>2015-05-31T08:09:55Z</time>
      </trkpt>
      <trkpt lat="41.662115610" lon="2.506101850">
        <ele>308.72</ele>
        <time>2015-05-31T08:10:00Z</time>
      </trkpt>
      <trkpt lat="41.661980570" lon="2.505815440">
        <ele>309.20</ele>
        <time>2015-05-31T08:10:08Z</time>
      </trkpt>
      <trkpt lat="41.661820400" lon="2.505524590">
        <ele>309.68</ele>
        <time>2015-05-31T08:10:16Z</time>
      </trkpt>
      <trkpt lat="41.661597690" lon="2.505257870">
        <ele>310.64</ele>
        <time>2015-05-31T08:10:25Z</time>
      </trkpt>
      <trkpt lat="41.661424770" lon="2.505139860">
        <ele>313.05</ele>
        <time>2015-05-31T08:10:32Z</time>
      </trkpt>
      <trkpt lat="41.661210280" lon="2.505139860">
        <ele>313.53</ele>
        <time>2015-05-31T08:10:38Z</time>
      </trkpt>
      <trkpt lat="41.661073070" lon="2.505157210">
        <ele>313.53</ele>
        <time>2015-05-31T08:10:41Z</time>
      </trkpt>
      <trkpt lat="41.660734020" lon="2.505080510">
        <ele>313.53</ele>
        <time>2015-05-31T08:10:49Z</time>
      </trkpt>
      <trkpt lat="41.660694290" lon="2.505064500">
        <ele>313.53</ele>
        <time>2015-05-31T08:10:50Z</time>
      </trkpt>
      <trkpt lat="41.660414160" lon="2.505076570">
        <ele>313.53</ele>
        <time>2015-05-31T08:10:57Z</time>
      </trkpt>
      <trkpt lat="41.660184920" lon="2.505122170">
        <ele>314.01</ele>
        <time>2015-05-31T08:11:03Z</time>
      </trkpt>
      <trkpt lat="41.659919380" lon="2.505115130">
        <ele>314.49</ele>
        <time>2015-05-31T08:11:10Z</time>
      </trkpt>
      <trkpt lat="41.659702880" lon="2.505160480">
        <ele>314.97</ele>
        <time>2015-05-31T08:11:16Z</time>
      </trkpt>
      <trkpt lat="41.659502800" lon="2.505415450">
        <ele>315.45</ele>
        <time>2015-05-31T08:11:24Z</time>
      </trkpt>
      <trkpt lat="41.659424180" lon="2.505565660">
        <ele>316.41</ele>
        <time>2015-05-31T08:11:29Z</time>
      </trkpt>
      <trkpt lat="41.659258380" lon="2.505640420">
        <ele>316.41</ele>
        <time>2015-05-31T08:11:34Z</time>
      </trkpt>
      <trkpt lat="41.658977590" lon="2.505553670">
        <ele>317.37</ele>
        <time>2015-05-31T08:11:41Z</time>
      </trkpt>
      <trkpt lat="41.658760750" lon="2.505379750">
        <ele>317.85</ele>
        <time>2015-05-31T08:11:48Z</time>
      </trkpt>
      <trkpt lat="41.658529070" lon="2.505170110">
        <ele>318.81</ele>
        <time>2015-05-31T08:11:56Z</time>
      </trkpt>
      <trkpt lat="41.658422710" lon="2.505032570">
        <ele>319.30</ele>
        <time>2015-05-31T08:12:00Z</time>
      </trkpt>
      <trkpt lat="41.658342580" lon="2.504962080">
        <ele>319.30</ele>
        <time>2015-05-31T08:12:02Z</time>
      </trkpt>
      <trkpt lat="41.658173180" lon="2.504897870">
        <ele>317.85</ele>
        <time>2015-05-31T08:12:05Z</time>
      </trkpt>
      <trkpt lat="41.657825920" lon="2.504853030">
        <ele>315.93</ele>
        <time>2015-05-31T08:12:11Z</time>
      </trkpt>
      <trkpt lat="41.657595920" lon="2.504832070">
        <ele>315.93</ele>
        <time>2015-05-31T08:12:15Z</time>
      </trkpt>
      <trkpt lat="41.657472370" lon="2.504864430">
        <ele>315.45</ele>
        <time>2015-05-31T08:12:17Z</time>
      </trkpt>
      <trkpt lat="41.657157540" lon="2.505160890">
        <ele>314.01</ele>
        <time>2015-05-31T08:12:23Z</time>
      </trkpt>
      <trkpt lat="41.656932570" lon="2.505543280">
        <ele>312.57</ele>
        <time>2015-05-31T08:12:28Z</time>
      </trkpt>
      <trkpt lat="41.656774160" lon="2.505934130">
        <ele>310.16</ele>
        <time>2015-05-31T08:12:32Z</time>
      </trkpt>
      <trkpt lat="41.656497970" lon="2.506319190">
        <ele>307.28</ele>
        <time>2015-05-31T08:12:36Z</time>
      </trkpt>
      <trkpt lat="41.656316750" lon="2.506477860">
        <ele>305.84</ele>
        <time>2015-05-31T08:12:38Z</time>
      </trkpt>
      <trkpt lat="41.655911990" lon="2.506671570">
        <ele>304.39</ele>
        <time>2015-05-31T08:12:42Z</time>
      </trkpt>
      <trkpt lat="41.655639250" lon="2.506686650">
        <ele>301.99</ele>
        <time>2015-05-31T08:12:45Z</time>
      </trkpt>
      <trkpt lat="41.655399360" lon="2.506666790">
        <ele>304.88</ele>
        <time>2015-05-31T08:12:49Z</time>
      </trkpt>
      <trkpt lat="41.655233730" lon="2.506609710">
        <ele>305.84</ele>
        <time>2015-05-31T08:12:54Z</time>
      </trkpt>
      <trkpt lat="41.654907420" lon="2.506466540">
        <ele>308.24</ele>
        <time>2015-05-31T08:13:04Z</time>
      </trkpt>
      <trkpt lat="41.654762330" lon="2.506502170">
        <ele>308.72</ele>
        <time>2015-05-31T08:13:08Z</time>
      </trkpt>
      <trkpt lat="41.654624110" lon="2.506928300">
        <ele>308.24</ele>
        <time>2015-05-31T08:13:15Z</time>
      </trkpt>
      <trkpt lat="41.654570800" lon="2.507139440">
        <ele>307.28</ele>
        <time>2015-05-31T08:13:18Z</time>
      </trkpt>
      <trkpt lat="41.654526800" lon="2.507261150">
        <ele>306.80</ele>
        <time>2015-05-31T08:13:20Z</time>
      </trkpt>
      <trkpt lat="41.654547500" lon="2.507464330">
        <ele>305.36</ele>
        <time>2015-05-31T08:13:25Z</time>
      </trkpt>
      <trkpt lat="41.654656220" lon="2.507463740">
        <ele>307.28</ele>
        <time>2015-05-31T08:13:30Z</time>
      </trkpt>
      <trkpt lat="41.654827290" lon="2.507512860">
        <ele>309.68</ele>
        <time>2015-05-31T08:13:39Z</time>
      </trkpt>
      <trkpt lat="41.655009680" lon="2.507437670">
        <ele>310.16</ele>
        <time>2015-05-31T08:13:45Z</time>
      </trkpt>
      <trkpt lat="41.655157960" lon="2.507343540">
        <ele>308.24</ele>
        <time>2015-05-31T08:13:48Z</time>
      </trkpt>
      <trkpt lat="41.655249150" lon="2.507282520">
        <ele>307.76</ele>
        <time>2015-05-31T08:13:50Z</time>
      </trkpt>
      <trkpt lat="41.655370770" lon="2.507297020">
        <ele>307.76</ele>
        <time>2015-05-31T08:13:53Z</time>
      </trkpt>
      <trkpt lat="41.655509070" lon="2.507509760">
        <ele>305.84</ele>
        <time>2015-05-31T08:13:58Z</time>
      </trkpt>
      <trkpt lat="41.655644780" lon="2.507889710">
        <ele>305.36</ele>
        <time>2015-05-31T08:14:05Z</time>
      </trkpt>
      <trkpt lat="41.655684510" lon="2.507926250">
        <ele>305.36</ele>
        <time>2015-05-31T08:14:06Z</time>
      </trkpt>
      <trkpt lat="41.655959020" lon="2.507939910">
        <ele>303.91</ele>
        <time>2015-05-31T08:14:12Z</time>
      </trkpt>
      <trkpt lat="41.656057590" lon="2.507715110">
        <ele>302.47</ele>
        <time>2015-05-31T08:14:16Z</time>
      </trkpt>
      <trkpt lat="41.656176940" lon="2.507567090">
        <ele>301.99</ele>
        <time>2015-05-31T08:14:19Z</time>
      </trkpt>
      <trkpt lat="41.656395800" lon="2.507571030">
        <ele>301.03</ele>
        <time>2015-05-31T08:14:23Z</time>
      </trkpt>
      <trkpt lat="41.656479200" lon="2.507628190">
        <ele>300.07</ele>
        <time>2015-05-31T08:14:25Z</time>
      </trkpt>
      <trkpt lat="41.656669300" lon="2.507955920">
        <ele>298.15</ele>
        <time>2015-05-31T08:14:31Z</time>
      </trkpt>
      <trkpt lat="41.656690000" lon="2.508074860">
        <ele>297.18</ele>
        <time>2015-05-31T08:14:33Z</time>
      </trkpt>
      <trkpt lat="41.656701070" lon="2.508146110">
        <ele>296.70</ele>
        <time>2015-05-31T08:14:34Z</time>
      </trkpt>
      <trkpt lat="41.656710870" lon="2.508302520">
        <ele>296.22</ele>
        <time>2015-05-31T08:14:36Z</time>
      </trkpt>
      <trkpt lat="41.656692680" lon="2.508551630">
        <ele>294.30</ele>
        <time>2015-05-31T08:14:39Z</time>
      </trkpt>
      <trkpt lat="41.656670810" lon="2.508858660">
        <ele>293.82</ele>
        <time>2015-05-31T08:14:43Z</time>
      </trkpt>
      <trkpt lat="41.656699390" lon="2.509078090">
        <ele>290.94</ele>
        <time>2015-05-31T08:14:46Z</time>
      </trkpt>
      <trkpt lat="41.656682290" lon="2.509217820">
        <ele>288.05</ele>
        <time>2015-05-31T08:14:49Z</time>
      </trkpt>
      <trkpt lat="41.656643820" lon="2.509237270">
        <ele>288.05</ele>
        <time>2015-05-31T08:14:50Z</time>
      </trkpt>
      <trkpt lat="41.656592520" lon="2.509246150">
        <ele>287.57</ele>
        <time>2015-05-31T08:14:51Z</time>
      </trkpt>
      <trkpt lat="41.656345500" lon="2.509240370">
        <ele>285.65</ele>
        <time>2015-05-31T08:14:55Z</time>
      </trkpt>
      <trkpt lat="41.656192450" lon="2.509045740">
        <ele>283.25</ele>
        <time>2015-05-31T08:14:59Z</time>
      </trkpt>
      <trkpt lat="41.656135710" lon="2.508866030">
        <ele>280.84</ele>
        <time>2015-05-31T08:15:02Z</time>
      </trkpt>
      <trkpt lat="41.656025650" lon="2.508830490">
        <ele>279.40</ele>
        <time>2015-05-31T08:15:05Z</time>
      </trkpt>
      <trkpt lat="41.655977790" lon="2.508843400">
        <ele>278.92</ele>
        <time>2015-05-31T08:15:06Z</time>
      </trkpt>
      <trkpt lat="41.655647960" lon="2.508913890">
        <ele>275.56</ele>
        <time>2015-05-31T08:15:11Z</time>
      </trkpt>
      <trkpt lat="41.655585430" lon="2.508925790">
        <ele>275.07</ele>
        <time>2015-05-31T08:15:12Z</time>
      </trkpt>
      <trkpt lat="41.655455350" lon="2.509106930">
        <ele>273.15</ele>
        <time>2015-05-31T08:15:16Z</time>
      </trkpt>
      <trkpt lat="41.655428020" lon="2.509330640">
        <ele>272.19</ele>
        <time>2015-05-31T08:15:19Z</time>
      </trkpt>
      <trkpt lat="41.655231130" lon="2.509586710">
        <ele>271.71</ele>
        <time>2015-05-31T08:15:24Z</time>
      </trkpt>
      <trkpt lat="41.654936930" lon="2.509638420">
        <ele>271.23</ele>
        <time>2015-05-31T08:15:29Z</time>
      </trkpt>
      <trkpt lat="41.654715980" lon="2.509819140">
        <ele>269.79</ele>
        <time>2015-05-31T08:15:33Z</time>
      </trkpt>
      <trkpt lat="41.654463430" lon="2.509760380">
        <ele>269.31</ele>
        <time>2015-05-31T08:15:37Z</time>
      </trkpt>
      <trkpt lat="41.654292530" lon="2.509759460">
        <ele>268.83</ele>
        <time>2015-05-31T08:15:40Z</time>
      </trkpt>
      <trkpt lat="41.654238130" lon="2.509918800">
        <ele>268.35</ele>
        <time>2015-05-31T08:15:43Z</time>
      </trkpt>
      <trkpt lat="41.654120610" lon="2.510302770">
        <ele>267.38</ele>
        <time>2015-05-31T08:15:48Z</time>
      </trkpt>
      <trkpt lat="41.653774520" lon="2.510785990">
        <ele>262.58</ele>
        <time>2015-05-31T08:15:54Z</time>
      </trkpt>
      <trkpt lat="41.653580570" lon="2.511046250">
        <ele>259.21</ele>
        <time>2015-05-31T08:15:57Z</time>
      </trkpt>
      <trkpt lat="41.653529270" lon="2.511122100">
        <ele>258.73</ele>
        <time>2015-05-31T08:15:58Z</time>
      </trkpt>
      <trkpt lat="41.653244280" lon="2.511358390">
        <ele>255.85</ele>
        <time>2015-05-31T08:16:02Z</time>
      </trkpt>
      <trkpt lat="41.652968770" lon="2.511374900">
        <ele>252.96</ele>
        <time>2015-05-31T08:16:06Z</time>
      </trkpt>
      <trkpt lat="41.652632410" lon="2.511263000">
        <ele>248.64</ele>
        <time>2015-05-31T08:16:10Z</time>
      </trkpt>
      <trkpt lat="41.652371560" lon="2.511220930">
        <ele>245.27</ele>
        <time>2015-05-31T08:16:13Z</time>
      </trkpt>
      <trkpt lat="41.651998730" lon="2.511106510">
        <ele>243.35</ele>
        <time>2015-05-31T08:16:17Z</time>
      </trkpt>
      <trkpt lat="41.651733450" lon="2.511066620">
        <ele>242.39</ele>
        <time>2015-05-31T08:16:20Z</time>
      </trkpt>
      <trkpt lat="41.651476210" lon="2.510990090">
        <ele>241.43</ele>
        <time>2015-05-31T08:16:23Z</time>
      </trkpt>
      <trkpt lat="41.651257610" lon="2.511000480">
        <ele>239.02</ele>
        <time>2015-05-31T08:16:26Z</time>
      </trkpt>
      <trkpt lat="41.650990810" lon="2.511189910">
        <ele>237.58</ele>
        <time>2015-05-31T08:16:30Z</time>
      </trkpt>
      <trkpt lat="41.650729460" lon="2.511232910">
        <ele>236.14</ele>
        <time>2015-05-31T08:16:34Z</time>
      </trkpt>
      <trkpt lat="41.650672130" lon="2.511191510">
        <ele>235.66</ele>
        <time>2015-05-31T08:16:35Z</time>
      </trkpt>
      <trkpt lat="41.650434920" lon="2.510963100">
        <ele>234.70</ele>
        <time>2015-05-31T08:16:39Z</time>
      </trkpt>
      <trkpt lat="41.649994290" lon="2.510781630">
        <ele>231.81</ele>
        <time>2015-05-31T08:16:45Z</time>
      </trkpt>
      <trkpt lat="41.649482070" lon="2.510572670">
        <ele>227.97</ele>
        <time>2015-05-31T08:16:51Z</time>
      </trkpt>
      <trkpt lat="41.649243430" lon="2.510463120">
        <ele>225.57</ele>
        <time>2015-05-31T08:16:54Z</time>
      </trkpt>
      <trkpt lat="41.649026340" lon="2.510528830">
        <ele>223.16</ele>
        <time>2015-05-31T08:16:58Z</time>
      </trkpt>
      <trkpt lat="41.648988040" lon="2.510585330">
        <ele>223.16</ele>
        <time>2015-05-31T08:16:59Z</time>
      </trkpt>
      <trkpt lat="41.648700450" lon="2.510788000">
        <ele>223.16</ele>
        <time>2015-05-31T08:17:05Z</time>
      </trkpt>
      <trkpt lat="41.648621580" lon="2.510757070">
        <ele>223.16</ele>
        <time>2015-05-31T08:17:07Z</time>
      </trkpt>
      <trkpt lat="41.648371630" lon="2.510601170">
        <ele>225.09</ele>
        <time>2015-05-31T08:17:14Z</time>
      </trkpt>
      <trkpt lat="41.648173650" lon="2.510460190">
        <ele>225.09</ele>
        <time>2015-05-31T08:17:19Z</time>
      </trkpt>
      <trkpt lat="41.647992440" lon="2.510332190">
        <ele>225.09</ele>
        <time>2015-05-31T08:17:25Z</time>
      </trkpt>
      <trkpt lat="41.647869890" lon="2.510207050">
        <ele>223.16</ele>
        <time>2015-05-31T08:17:31Z</time>
      </trkpt>
      <trkpt lat="41.647753970" lon="2.510059110">
        <ele>222.68</ele>
        <time>2015-05-31T08:17:38Z</time>
      </trkpt>
      <trkpt lat="41.647655400" lon="2.510006470">
        <ele>221.72</ele>
        <time>2015-05-31T08:17:42Z</time>
      </trkpt>
      <trkpt lat="41.647515760" lon="2.509862810">
        <ele>221.24</ele>
        <time>2015-05-31T08:17:50Z</time>
      </trkpt>
      <trkpt lat="41.647392210" lon="2.509755940">
        <ele>220.76</ele>
        <time>2015-05-31T08:17:55Z</time>
      </trkpt>
      <trkpt lat="41.647304200" lon="2.509848890">
        <ele>220.76</ele>
        <time>2015-05-31T08:18:01Z</time>
      </trkpt>
      <trkpt lat="41.647160360" lon="2.510116440">
        <ele>220.76</ele>
        <time>2015-05-31T08:18:09Z</time>
      </trkpt>
      <trkpt lat="41.647026920" lon="2.510455320">
        <ele>220.76</ele>
        <time>2015-05-31T08:18:17Z</time>
      </trkpt>
      <trkpt lat="41.646958280" lon="2.510810880">
        <ele>220.76</ele>
        <time>2015-05-31T08:18:24Z</time>
      </trkpt>
      <trkpt lat="41.646925080" lon="2.511158820">
        <ele>221.72</ele>
        <time>2015-05-31T08:18:31Z</time>
      </trkpt>
      <trkpt lat="41.646882920" lon="2.511530970">
        <ele>221.72</ele>
        <time>2015-05-31T08:18:38Z</time>
      </trkpt>
      <trkpt lat="41.646862970" lon="2.511755690">
        <ele>221.72</ele>
        <time>2015-05-31T08:18:42Z</time>
      </trkpt>
      <trkpt lat="41.646823240" lon="2.512215100">
        <ele>222.20</ele>
        <time>2015-05-31T08:18:51Z</time>
      </trkpt>
      <trkpt lat="41.646874540" lon="2.512516690">
        <ele>223.64</ele>
        <time>2015-05-31T08:18:58Z</time>
      </trkpt>
      <trkpt lat="41.646880490" lon="2.512811230">
        <ele>224.61</ele>
        <time>2015-05-31T08:19:06Z</time>
      </trkpt>
      <trkpt lat="41.646859200" lon="2.512874430">
        <ele>224.61</ele>
        <time>2015-05-31T08:19:11Z</time>
      </trkpt>
      <trkpt lat="41.646867330" lon="2.512908540">
        <ele>224.61</ele>
        <time>2015-05-31T08:19:18Z</time>
      </trkpt>
      <trkpt lat="41.646834640" lon="2.512946340">
        <ele>224.61</ele>
        <time>2015-05-31T08:19:24Z</time>
      </trkpt>
      <trkpt lat="41.646845620" lon="2.512988340">
        <ele>224.61</ele>
        <time>2015-05-31T08:19:35Z</time>
      </trkpt>
      <trkpt lat="41.646864570" lon="2.513020190">
        <ele>224.61</ele>
        <time>2015-05-31T08:19:47Z</time>
      </trkpt>
      <trkpt lat="41.646861550" lon="2.513038960">
        <ele>224.61</ele>
        <time>2015-05-31T08:20:03Z</time>
      </trkpt>
      <trkpt lat="41.646869760" lon="2.512975590">
        <ele>224.61</ele>
        <time>2015-05-31T08:20:21Z</time>
      </trkpt>
      <trkpt lat="41.646875710" lon="2.512967130">
        <ele>224.61</ele>
        <time>2015-05-31T08:20:31Z</time>
      </trkpt>
      <trkpt lat="41.646861800" lon="2.512978530">
        <ele>225.09</ele>
        <time>2015-05-31T08:20:44Z</time>
      </trkpt>
      <trkpt lat="41.646876970" lon="2.512987500">
        <ele>225.09</ele>
        <time>2015-05-31T08:21:05Z</time>
      </trkpt>
      <trkpt lat="41.646887700" lon="2.512990100">
        <ele>225.09</ele>
        <time>2015-05-31T08:21:19Z</time>
      </trkpt>
      <trkpt lat="41.646872860" lon="2.512981380">
        <ele>225.09</ele>
        <time>2015-05-31T08:21:33Z</time>
      </trkpt>
      <trkpt lat="41.646865910" lon="2.512957990">
        <ele>225.09</ele>
        <time>2015-05-31T08:21:56Z</time>
      </trkpt>
      <trkpt lat="41.646852330" lon="2.512956320">
        <ele>225.09</ele>
        <time>2015-05-31T08:22:05Z</time>
      </trkpt>
      <trkpt lat="41.646820650" lon="2.512957910">
        <ele>225.09</ele>
        <time>2015-05-31T08:22:16Z</time>
      </trkpt>
      <trkpt lat="41.646842690" lon="2.512971490">
        <ele>225.09</ele>
        <time>2015-05-31T08:22:36Z</time>
      </trkpt>
      <trkpt lat="41.646835400" lon="2.512919600">
        <ele>225.09</ele>
        <time>2015-05-31T08:22:56Z</time>
      </trkpt>
      <trkpt lat="41.646846880" lon="2.512931670">
        <ele>225.09</ele>
        <time>2015-05-31T08:23:10Z</time>
      </trkpt>
      <trkpt lat="41.646878150" lon="2.512906860">
        <ele>225.57</ele>
        <time>2015-05-31T08:23:31Z</time>
      </trkpt>
      <trkpt lat="41.646877220" lon="2.512965700">
        <ele>225.57</ele>
        <time>2015-05-31T08:23:52Z</time>
      </trkpt>
      <trkpt lat="41.646868510" lon="2.513015160">
        <ele>225.57</ele>
        <time>2015-05-31T08:24:06Z</time>
      </trkpt>
      <trkpt lat="41.646827520" lon="2.512987580">
        <ele>225.57</ele>
        <time>2015-05-31T08:24:23Z</time>
      </trkpt>
      <trkpt lat="41.646813600" lon="2.512979620">
        <ele>225.57</ele>
        <time>2015-05-31T08:24:25Z</time>
      </trkpt>
      <trkpt lat="41.646727860" lon="2.513037960">
        <ele>225.57</ele>
        <time>2015-05-31T08:24:32Z</time>
      </trkpt>
      <trkpt lat="41.646666250" lon="2.513096880">
        <ele>225.57</ele>
        <time>2015-05-31T08:24:36Z</time>
      </trkpt>
      <trkpt lat="41.646503730" lon="2.513306090">
        <ele>225.57</ele>
        <time>2015-05-31T08:24:45Z</time>
      </trkpt>
      <trkpt lat="41.646468940" lon="2.513467610">
        <ele>225.57</ele>
        <time>2015-05-31T08:24:50Z</time>
      </trkpt>
      <trkpt lat="41.646422250" lon="2.513742450">
        <ele>226.53</ele>
        <time>2015-05-31T08:24:58Z</time>
      </trkpt>
      <trkpt lat="41.646349830" lon="2.513947980">
        <ele>227.49</ele>
        <time>2015-05-31T08:25:04Z</time>
      </trkpt>
      <trkpt lat="41.646249420" lon="2.514201620">
        <ele>227.49</ele>
        <time>2015-05-31T08:25:12Z</time>
      </trkpt>
      <trkpt lat="41.646225110" lon="2.514258610">
        <ele>227.97</ele>
        <time>2015-05-31T08:25:14Z</time>
      </trkpt>
      <trkpt lat="41.646051100" lon="2.514489950">
        <ele>228.45</ele>
        <time>2015-05-31T08:25:22Z</time>
      </trkpt>
      <trkpt lat="41.645915740" lon="2.514799580">
        <ele>228.45</ele>
        <time>2015-05-31T08:25:29Z</time>
      </trkpt>
      <trkpt lat="41.645774250" lon="2.515072240">
        <ele>228.45</ele>
        <time>2015-05-31T08:25:36Z</time>
      </trkpt>
      <trkpt lat="41.645566040" lon="2.515375250">
        <ele>228.93</ele>
        <time>2015-05-31T08:25:46Z</time>
      </trkpt>
      <trkpt lat="41.645520950" lon="2.515420850">
        <ele>229.41</ele>
        <time>2015-05-31T08:25:48Z</time>
      </trkpt>
      <trkpt lat="41.645362360" lon="2.515391340">
        <ele>230.37</ele>
        <time>2015-05-31T08:25:55Z</time>
      </trkpt>
      <trkpt lat="41.645275530" lon="2.515257230">
        <ele>231.81</ele>
        <time>2015-05-31T08:26:02Z</time>
      </trkpt>
      <trkpt lat="41.645218780" lon="2.515084480">
        <ele>232.78</ele>
        <time>2015-05-31T08:26:09Z</time>
      </trkpt>
      <trkpt lat="41.645102690" lon="2.514920200">
        <ele>234.22</ele>
        <time>2015-05-31T08:26:16Z</time>
      </trkpt>
      <trkpt lat="41.644945610" lon="2.514750550">
        <ele>236.62</ele>
        <time>2015-05-31T08:26:26Z</time>
      </trkpt>
      <trkpt lat="41.644821730" lon="2.514648620">
        <ele>239.02</ele>
        <time>2015-05-31T08:26:35Z</time>
      </trkpt>
      <trkpt lat="41.644688960" lon="2.514585000">
        <ele>240.47</ele>
        <time>2015-05-31T08:26:42Z</time>
      </trkpt>
      <trkpt lat="41.644532550" lon="2.514566060">
        <ele>241.43</ele>
        <time>2015-05-31T08:26:49Z</time>
      </trkpt>
      <trkpt lat="41.644372210" lon="2.514585000">
        <ele>242.39</ele>
        <time>2015-05-31T08:26:57Z</time>
      </trkpt>
      <trkpt lat="41.644176830" lon="2.514580060">
        <ele>243.83</ele>
        <time>2015-05-31T08:27:06Z</time>
      </trkpt>
      <trkpt lat="41.644051770" lon="2.514550300">
        <ele>245.27</ele>
        <time>2015-05-31T08:27:14Z</time>
      </trkpt>
      <trkpt lat="41.643933500" lon="2.514525070">
        <ele>247.20</ele>
        <time>2015-05-31T08:27:21Z</time>
      </trkpt>
      <trkpt lat="41.643801990" lon="2.514483580">
        <ele>249.60</ele>
        <time>2015-05-31T08:27:29Z</time>
      </trkpt>
      <trkpt lat="41.643751780" lon="2.514468410">
        <ele>250.08</ele>
        <time>2015-05-31T08:27:32Z</time>
      </trkpt>
      <trkpt lat="41.643662680" lon="2.514457930">
        <ele>250.56</ele>
        <time>2015-05-31T08:27:37Z</time>
      </trkpt>
      <trkpt lat="41.643498480" lon="2.514421310">
        <ele>252.00</ele>
        <time>2015-05-31T08:27:46Z</time>
      </trkpt>
      <trkpt lat="41.643349280" lon="2.514357600">
        <ele>253.44</ele>
        <time>2015-05-31T08:27:55Z</time>
      </trkpt>
      <trkpt lat="41.643189860" lon="2.514289210">
        <ele>254.89</ele>
        <time>2015-05-31T08:28:04Z</time>
      </trkpt>
      <trkpt lat="41.643056000" lon="2.514265740">
        <ele>256.33</ele>
        <time>2015-05-31T08:28:13Z</time>
      </trkpt>
      <trkpt lat="41.642879730" lon="2.514197680">
        <ele>257.77</ele>
        <time>2015-05-31T08:28:23Z</time>
      </trkpt>
      <trkpt lat="41.642859610" lon="2.514189960">
        <ele>258.25</ele>
        <time>2015-05-31T08:28:24Z</time>
      </trkpt>
      <trkpt lat="41.642743270" lon="2.514116200">
        <ele>259.21</ele>
        <time>2015-05-31T08:28:32Z</time>
      </trkpt>
      <trkpt lat="41.642651910" lon="2.514031130">
        <ele>260.17</ele>
        <time>2015-05-31T08:28:39Z</time>
      </trkpt>
      <trkpt lat="41.642543360" lon="2.513937500">
        <ele>262.10</ele>
        <time>2015-05-31T08:28:47Z</time>
      </trkpt>
      <trkpt lat="41.642430460" lon="2.513856110">
        <ele>263.06</ele>
        <time>2015-05-31T08:28:55Z</time>
      </trkpt>
      <trkpt lat="41.642371110" lon="2.513772800">
        <ele>264.50</ele>
        <time>2015-05-31T08:29:01Z</time>
      </trkpt>
      <trkpt lat="41.642317890" lon="2.513701130">
        <ele>264.98</ele>
        <time>2015-05-31T08:29:05Z</time>
      </trkpt>
      <trkpt lat="41.642237670" lon="2.513583700">
        <ele>266.42</ele>
        <time>2015-05-31T08:29:13Z</time>
      </trkpt>
      <trkpt lat="41.642170870" lon="2.513508430">
        <ele>267.38</ele>
        <time>2015-05-31T08:29:19Z</time>
      </trkpt>
      <trkpt lat="41.642097610" lon="2.513409940">
        <ele>269.31</ele>
        <time>2015-05-31T08:29:26Z</time>
      </trkpt>
      <trkpt lat="41.642019570" lon="2.513311880">
        <ele>270.75</ele>
        <time>2015-05-31T08:29:33Z</time>
      </trkpt>
      <trkpt lat="41.641979170" lon="2.513264020">
        <ele>271.23</ele>
        <time>2015-05-31T08:29:36Z</time>
      </trkpt>
      <trkpt lat="41.641895690" lon="2.513132000">
        <ele>272.19</ele>
        <time>2015-05-31T08:29:44Z</time>
      </trkpt>
      <trkpt lat="41.641833660" lon="2.513035440">
        <ele>273.63</ele>
        <time>2015-05-31T08:29:50Z</time>
      </trkpt>
      <trkpt lat="41.641788570" lon="2.512929830">
        <ele>275.07</ele>
        <time>2015-05-31T08:29:57Z</time>
      </trkpt>
      <trkpt lat="41.641772810" lon="2.512896890">
        <ele>275.07</ele>
        <time>2015-05-31T08:29:59Z</time>
      </trkpt>
      <trkpt lat="41.641719920" lon="2.512796560">
        <ele>276.52</ele>
        <time>2015-05-31T08:30:05Z</time>
      </trkpt>
      <trkpt lat="41.641637860" lon="2.512710640">
        <ele>277.96</ele>
        <time>2015-05-31T08:30:11Z</time>
      </trkpt>
      <trkpt lat="41.641595790" lon="2.512716090">
        <ele>278.92</ele>
        <time>2015-05-31T08:30:15Z</time>
      </trkpt>
      <trkpt lat="41.641524200" lon="2.512798990">
        <ele>280.36</ele>
        <time>2015-05-31T08:30:23Z</time>
      </trkpt>
      <trkpt lat="41.641488670" lon="2.512910800">
        <ele>281.32</ele>
        <time>2015-05-31T08:30:31Z</time>
      </trkpt>
      <trkpt lat="41.641477940" lon="2.513032260">
        <ele>282.77</ele>
        <time>2015-05-31T08:30:39Z</time>
      </trkpt>
      <trkpt lat="41.641474580" lon="2.513137620">
        <ele>283.73</ele>
        <time>2015-05-31T08:30:46Z</time>
      </trkpt>
      <trkpt lat="41.641471990" lon="2.513258820">
        <ele>285.17</ele>
        <time>2015-05-31T08:30:53Z</time>
      </trkpt>
      <trkpt lat="41.641422360" lon="2.513418080">
        <ele>286.61</ele>
        <time>2015-05-31T08:31:02Z</time>
      </trkpt>
      <trkpt lat="41.641345840" lon="2.513504160">
        <ele>287.57</ele>
        <time>2015-05-31T08:31:09Z</time>
      </trkpt>
      <trkpt lat="41.641289090" lon="2.513575570">
        <ele>288.53</ele>
        <time>2015-05-31T08:31:14Z</time>
      </trkpt>
      <trkpt lat="41.641236290" lon="2.513583120">
        <ele>289.49</ele>
        <time>2015-05-31T08:31:18Z</time>
      </trkpt>
      <trkpt lat="41.641231590" lon="2.513496450">
        <ele>290.46</ele>
        <time>2015-05-31T08:31:24Z</time>
      </trkpt>
      <trkpt lat="41.641257490" lon="2.513400560">
        <ele>291.90</ele>
        <time>2015-05-31T08:31:31Z</time>
      </trkpt>
      <trkpt lat="41.641277860" lon="2.513297120">
        <ele>292.86</ele>
        <time>2015-05-31T08:31:38Z</time>
      </trkpt>
      <trkpt lat="41.641305020" lon="2.513157820">
        <ele>293.82</ele>
        <time>2015-05-31T08:31:45Z</time>
      </trkpt>
      <trkpt lat="41.641266040" lon="2.513070980">
        <ele>294.78</ele>
        <time>2015-05-31T08:31:51Z</time>
      </trkpt>
      <trkpt lat="41.641216840" lon="2.513178690">
        <ele>296.70</ele>
        <time>2015-05-31T08:31:59Z</time>
      </trkpt>
      <trkpt lat="41.641127990" lon="2.513274660">
        <ele>299.11</ele>
        <time>2015-05-31T08:32:08Z</time>
      </trkpt>
      <trkpt lat="41.641105610" lon="2.513290420">
        <ele>299.11</ele>
        <time>2015-05-31T08:32:10Z</time>
      </trkpt>
      <trkpt lat="41.641014750" lon="2.513357220">
        <ele>300.55</ele>
        <time>2015-05-31T08:32:18Z</time>
      </trkpt>
      <trkpt lat="41.640918360" lon="2.513451270">
        <ele>301.51</ele>
        <time>2015-05-31T08:32:26Z</time>
      </trkpt>
      <trkpt lat="41.640851980" lon="2.513528130">
        <ele>303.43</ele>
        <time>2015-05-31T08:32:33Z</time>
      </trkpt>
      <trkpt lat="41.640785680" lon="2.513616560">
        <ele>304.39</ele>
        <time>2015-05-31T08:32:40Z</time>
      </trkpt>
      <trkpt lat="41.640740160" lon="2.513728710">
        <ele>304.88</ele>
        <time>2015-05-31T08:32:47Z</time>
      </trkpt>
      <trkpt lat="41.640748710" lon="2.513875730">
        <ele>305.84</ele>
        <time>2015-05-31T08:32:54Z</time>
      </trkpt>
      <trkpt lat="41.640771170" lon="2.513982680">
        <ele>306.32</ele>
        <time>2015-05-31T08:32:59Z</time>
      </trkpt>
      <trkpt lat="41.640787850" lon="2.514099520">
        <ele>306.80</ele>
        <time>2015-05-31T08:33:03Z</time>
      </trkpt>
      <trkpt lat="41.640771680" lon="2.514279320">
        <ele>307.28</ele>
        <time>2015-05-31T08:33:10Z</time>
      </trkpt>
      <trkpt lat="41.640731610" lon="2.514466740">
        <ele>307.76</ele>
        <time>2015-05-31T08:33:17Z</time>
      </trkpt>
      <trkpt lat="41.640687020" lon="2.514609810">
        <ele>308.72</ele>
        <time>2015-05-31T08:33:24Z</time>
      </trkpt>
      <trkpt lat="41.640622310" lon="2.514732190">
        <ele>309.20</ele>
        <time>2015-05-31T08:33:31Z</time>
      </trkpt>
      <trkpt lat="41.640576210" lon="2.514812070">
        <ele>309.68</ele>
        <time>2015-05-31T08:33:34Z</time>
      </trkpt>
      <trkpt lat="41.640428520" lon="2.514731440">
        <ele>310.64</ele>
        <time>2015-05-31T08:33:44Z</time>
      </trkpt>
      <trkpt lat="41.640340090" lon="2.514582740">
        <ele>311.60</ele>
        <time>2015-05-31T08:33:52Z</time>
      </trkpt>
      <trkpt lat="41.640269770" lon="2.514470760">
        <ele>312.57</ele>
        <time>2015-05-31T08:33:59Z</time>
      </trkpt>
      <trkpt lat="41.640141530" lon="2.514332710">
        <ele>313.53</ele>
        <time>2015-05-31T08:34:08Z</time>
      </trkpt>
      <trkpt lat="41.640008090" lon="2.514285770">
        <ele>315.45</ele>
        <time>2015-05-31T08:34:16Z</time>
      </trkpt>
      <trkpt lat="41.639903140" lon="2.514358360">
        <ele>317.37</ele>
        <time>2015-05-31T08:34:24Z</time>
      </trkpt>
      <trkpt lat="41.639839940" lon="2.514452990">
        <ele>318.81</ele>
        <time>2015-05-31T08:34:31Z</time>
      </trkpt>
      <trkpt lat="41.639701890" lon="2.514628840">
        <ele>320.74</ele>
        <time>2015-05-31T08:34:41Z</time>
      </trkpt>
      <trkpt lat="41.639584630" lon="2.514826570">
        <ele>321.70</ele>
        <time>2015-05-31T08:34:50Z</time>
      </trkpt>
      <trkpt lat="41.639472730" lon="2.514961270">
        <ele>322.66</ele>
        <time>2015-05-31T08:34:57Z</time>
      </trkpt>
      <trkpt lat="41.639270980" lon="2.514968980">
        <ele>324.10</ele>
        <time>2015-05-31T08:35:06Z</time>
      </trkpt>
      <trkpt lat="41.639132340" lon="2.514918100">
        <ele>324.58</ele>
        <time>2015-05-31T08:35:13Z</time>
      </trkpt>
      <trkpt lat="41.639004600" lon="2.515005100">
        <ele>326.02</ele>
        <time>2015-05-31T08:35:22Z</time>
      </trkpt>
      <trkpt lat="41.638924220" lon="2.515086830">
        <ele>326.50</ele>
        <time>2015-05-31T08:35:27Z</time>
      </trkpt>
      <trkpt lat="41.638817020" lon="2.515240470">
        <ele>327.47</ele>
        <time>2015-05-31T08:35:34Z</time>
      </trkpt>
      <trkpt lat="41.638732950" lon="2.515405420">
        <ele>328.43</ele>
        <time>2015-05-31T08:35:41Z</time>
      </trkpt>
      <trkpt lat="41.638711990" lon="2.515449850">
        <ele>328.43</ele>
        <time>2015-05-31T08:35:43Z</time>
      </trkpt>
      <trkpt lat="41.638532700" lon="2.515560910">
        <ele>329.87</ele>
        <time>2015-05-31T08:35:52Z</time>
      </trkpt>
      <trkpt lat="41.638460450" lon="2.515488150">
        <ele>329.87</ele>
        <time>2015-05-31T08:35:56Z</time>
      </trkpt>
      <trkpt lat="41.638312010" lon="2.515337110">
        <ele>330.35</ele>
        <time>2015-05-31T08:36:04Z</time>
      </trkpt>
      <trkpt lat="41.638144620" lon="2.515215410">
        <ele>330.35</ele>
        <time>2015-05-31T08:36:11Z</time>
      </trkpt>
      <trkpt lat="41.637931050" lon="2.515123210">
        <ele>331.31</ele>
        <time>2015-05-31T08:36:20Z</time>
      </trkpt>
      <trkpt lat="41.637694260" lon="2.515107030">
        <ele>332.27</ele>
        <time>2015-05-31T08:36:29Z</time>
      </trkpt>
      <trkpt lat="41.637517150" lon="2.515111970">
        <ele>332.75</ele>
        <time>2015-05-31T08:36:36Z</time>
      </trkpt>
      <trkpt lat="41.637484550" lon="2.515124130">
        <ele>332.75</ele>
        <time>2015-05-31T08:36:37Z</time>
      </trkpt>
      <trkpt lat="41.637308360" lon="2.515266620">
        <ele>331.31</ele>
        <time>2015-05-31T08:36:41Z</time>
      </trkpt>
      <trkpt lat="41.637104260" lon="2.515387070">
        <ele>330.83</ele>
        <time>2015-05-31T08:36:45Z</time>
      </trkpt>
      <trkpt lat="41.636819530" lon="2.515412300">
        <ele>330.35</ele>
        <time>2015-05-31T08:36:52Z</time>
      </trkpt>
      <trkpt lat="41.636651390" lon="2.515371810">
        <ele>331.79</ele>
        <time>2015-05-31T08:36:58Z</time>
      </trkpt>
      <trkpt lat="41.636627920" lon="2.515369380">
        <ele>331.79</ele>
        <time>2015-05-31T08:36:59Z</time>
      </trkpt>
      <trkpt lat="41.636465470" lon="2.515346000">
        <ele>333.23</ele>
        <time>2015-05-31T08:37:06Z</time>
      </trkpt>
      <trkpt lat="41.636348800" lon="2.515271150">
        <ele>334.68</ele>
        <time>2015-05-31T08:37:13Z</time>
      </trkpt>
      <trkpt lat="41.636256510" lon="2.515161010">
        <ele>336.12</ele>
        <time>2015-05-31T08:37:20Z</time>
      </trkpt>
      <trkpt lat="41.636136230" lon="2.515024470">
        <ele>338.04</ele>
        <time>2015-05-31T08:37:29Z</time>
      </trkpt>
      <trkpt lat="41.635989050" lon="2.514984400">
        <ele>339.48</ele>
        <time>2015-05-31T08:37:38Z</time>
      </trkpt>
      <trkpt lat="41.635870360" lon="2.514962270">
        <ele>340.44</ele>
        <time>2015-05-31T08:37:45Z</time>
      </trkpt>
      <trkpt lat="41.635690320" lon="2.514953220">
        <ele>342.37</ele>
        <time>2015-05-31T08:37:55Z</time>
      </trkpt>
      <trkpt lat="41.635631810" lon="2.514979370">
        <ele>343.33</ele>
        <time>2015-05-31T08:37:59Z</time>
      </trkpt>
      <trkpt lat="41.635549000" lon="2.515045760">
        <ele>344.29</ele>
        <time>2015-05-31T08:38:05Z</time>
      </trkpt>
      <trkpt lat="41.635458720" lon="2.515164280">
        <ele>346.69</ele>
        <time>2015-05-31T08:38:14Z</time>
      </trkpt>
      <trkpt lat="41.635395610" lon="2.515284310">
        <ele>347.65</ele>
        <time>2015-05-31T08:38:21Z</time>
      </trkpt>
      <trkpt lat="41.635308770" lon="2.515342810">
        <ele>349.58</ele>
        <time>2015-05-31T08:38:29Z</time>
      </trkpt>
      <trkpt lat="41.635274490" lon="2.515313810">
        <ele>350.54</ele>
        <time>2015-05-31T08:38:33Z</time>
      </trkpt>
      <trkpt lat="41.635263510" lon="2.515246500">
        <ele>351.02</ele>
        <time>2015-05-31T08:38:37Z</time>
      </trkpt>
      <trkpt lat="41.635271470" lon="2.515116840">
        <ele>353.42</ele>
        <time>2015-05-31T08:38:46Z</time>
      </trkpt>
      <trkpt lat="41.635269540" lon="2.514981220">
        <ele>356.79</ele>
        <time>2015-05-31T08:38:55Z</time>
      </trkpt>
      <trkpt lat="41.635268710" lon="2.514965880">
        <ele>356.79</ele>
        <time>2015-05-31T08:38:56Z</time>
      </trkpt>
      <trkpt lat="41.635226460" lon="2.514852390">
        <ele>357.27</ele>
        <time>2015-05-31T08:39:03Z</time>
      </trkpt>
      <trkpt lat="41.635211040" lon="2.514829420">
        <ele>358.23</ele>
        <time>2015-05-31T08:39:05Z</time>
      </trkpt>
      <trkpt lat="41.635152780" lon="2.514763710">
        <ele>359.19</ele>
        <time>2015-05-31T08:39:11Z</time>
      </trkpt>
      <trkpt lat="41.635116570" lon="2.514721130">
        <ele>359.67</ele>
        <time>2015-05-31T08:39:15Z</time>
      </trkpt>
      <trkpt lat="41.635005770" lon="2.514696650">
        <ele>362.55</ele>
        <time>2015-05-31T08:39:25Z</time>
      </trkpt>
      <trkpt lat="41.634977350" lon="2.514708220">
        <ele>362.55</ele>
        <time>2015-05-31T08:39:27Z</time>
      </trkpt>
      <trkpt lat="41.634900990" lon="2.514689950">
        <ele>363.04</ele>
        <time>2015-05-31T08:39:33Z</time>
      </trkpt>
      <trkpt lat="41.634793200" lon="2.514659180">
        <ele>364.48</ele>
        <time>2015-05-31T08:39:42Z</time>
      </trkpt>
      <trkpt lat="41.634698650" lon="2.514642170">
        <ele>366.40</ele>
        <time>2015-05-31T08:39:51Z</time>
      </trkpt>
      <trkpt lat="41.634620200" lon="2.514638730">
        <ele>367.36</ele>
        <time>2015-05-31T08:39:57Z</time>
      </trkpt>
      <trkpt lat="41.634537470" lon="2.514658850">
        <ele>368.32</ele>
        <time>2015-05-31T08:40:03Z</time>
      </trkpt>
      <trkpt lat="41.634466730" lon="2.514743090">
        <ele>369.28</ele>
        <time>2015-05-31T08:40:10Z</time>
      </trkpt>
      <trkpt lat="41.634355330" lon="2.514788680">
        <ele>369.76</ele>
        <time>2015-05-31T08:40:17Z</time>
      </trkpt>
      <trkpt lat="41.634205290" lon="2.514806710">
        <ele>371.21</ele>
        <time>2015-05-31T08:40:26Z</time>
      </trkpt>
      <trkpt lat="41.634071100" lon="2.514789690">
        <ele>371.69</ele>
        <time>2015-05-31T08:40:33Z</time>
      </trkpt>
      <trkpt lat="41.633954930" lon="2.514766220">
        <ele>373.61</ele>
        <time>2015-05-31T08:40:41Z</time>
      </trkpt>
      <trkpt lat="41.633815620" lon="2.514754650">
        <ele>375.05</ele>
        <time>2015-05-31T08:40:50Z</time>
      </trkpt>
      <trkpt lat="41.633698940" lon="2.514841150">
        <ele>376.01</ele>
        <time>2015-05-31T08:40:58Z</time>
      </trkpt>
      <trkpt lat="41.633640440" lon="2.514914410">
        <ele>376.97</ele>
        <time>2015-05-31T08:41:04Z</time>
      </trkpt>
      <trkpt lat="41.633530720" lon="2.515001840">
        <ele>377.45</ele>
        <time>2015-05-31T08:41:10Z</time>
      </trkpt>
      <trkpt lat="41.633373140" lon="2.515050450">
        <ele>377.94</ele>
        <time>2015-05-31T08:41:18Z</time>
      </trkpt>
      <trkpt lat="41.633256880" lon="2.515044160">
        <ele>379.38</ele>
        <time>2015-05-31T08:41:26Z</time>
      </trkpt>
      <trkpt lat="41.633132660" lon="2.515047180">
        <ele>379.86</ele>
        <time>2015-05-31T08:41:32Z</time>
      </trkpt>
      <trkpt lat="41.632957310" lon="2.515023800">
        <ele>380.34</ele>
        <time>2015-05-31T08:41:41Z</time>
      </trkpt>
      <trkpt lat="41.632809960" lon="2.514951710">
        <ele>381.78</ele>
        <time>2015-05-31T08:41:50Z</time>
      </trkpt>
      <trkpt lat="41.632669980" lon="2.514851550">
        <ele>382.74</ele>
        <time>2015-05-31T08:41:59Z</time>
      </trkpt>
      <trkpt lat="41.632563610" lon="2.514759010">
        <ele>383.70</ele>
        <time>2015-05-31T08:42:07Z</time>
      </trkpt>
      <trkpt lat="41.632464620" lon="2.514683410">
        <ele>384.66</ele>
        <time>2015-05-31T08:42:14Z</time>
      </trkpt>
      <trkpt lat="41.632359770" lon="2.514627500">
        <ele>386.59</ele>
        <time>2015-05-31T08:42:21Z</time>
      </trkpt>
      <trkpt lat="41.632216100" lon="2.514601770">
        <ele>388.03</ele>
        <time>2015-05-31T08:42:29Z</time>
      </trkpt>
      <trkpt lat="41.632088700" lon="2.514597240">
        <ele>388.99</ele>
        <time>2015-05-31T08:42:36Z</time>
      </trkpt>
      <trkpt lat="41.631966570" lon="2.514606460">
        <ele>390.91</ele>
        <time>2015-05-31T08:42:45Z</time>
      </trkpt>
      <trkpt lat="41.631861130" lon="2.514629850">
        <ele>391.39</ele>
        <time>2015-05-31T08:42:52Z</time>
      </trkpt>
      <trkpt lat="41.631844280" lon="2.514630270">
        <ele>391.87</ele>
        <time>2015-05-31T08:42:53Z</time>
      </trkpt>
      <trkpt lat="41.631751410" lon="2.514668490">
        <ele>392.84</ele>
        <time>2015-05-31T08:43:00Z</time>
      </trkpt>
      <trkpt lat="41.631606900" lon="2.514746100">
        <ele>394.28</ele>
        <time>2015-05-31T08:43:11Z</time>
      </trkpt>
      <trkpt lat="41.631509670" lon="2.514802100">
        <ele>395.72</ele>
        <time>2015-05-31T08:43:18Z</time>
      </trkpt>
      <trkpt lat="41.631480510" lon="2.514813160">
        <ele>396.20</ele>
        <time>2015-05-31T08:43:20Z</time>
      </trkpt>
      <trkpt lat="41.631405400" lon="2.514881640">
        <ele>398.12</ele>
        <time>2015-05-31T08:43:28Z</time>
      </trkpt>
      <trkpt lat="41.631374730" lon="2.514893370">
        <ele>399.08</ele>
        <time>2015-05-31T08:43:31Z</time>
      </trkpt>
      <trkpt lat="41.631313450" lon="2.514944170">
        <ele>400.05</ele>
        <time>2015-05-31T08:43:37Z</time>
      </trkpt>
      <trkpt lat="41.631284120" lon="2.514972500">
        <ele>401.01</ele>
        <time>2015-05-31T08:43:40Z</time>
      </trkpt>
      <trkpt lat="41.631241450" lon="2.515020610">
        <ele>402.45</ele>
        <time>2015-05-31T08:43:45Z</time>
      </trkpt>
      <trkpt lat="41.631162240" lon="2.515130500">
        <ele>402.93</ele>
        <time>2015-05-31T08:43:52Z</time>
      </trkpt>
      <trkpt lat="41.631123440" lon="2.515215070">
        <ele>403.41</ele>
        <time>2015-05-31T08:43:57Z</time>
      </trkpt>
      <trkpt lat="41.631072390" lon="2.515389160">
        <ele>404.85</ele>
        <time>2015-05-31T08:44:07Z</time>
      </trkpt>
      <trkpt lat="41.631022430" lon="2.515509780">
        <ele>406.29</ele>
        <time>2015-05-31T08:44:15Z</time>
      </trkpt>
      <trkpt lat="41.630967450" lon="2.515614890">
        <ele>408.70</ele>
        <time>2015-05-31T08:44:23Z</time>
      </trkpt>
      <trkpt lat="41.630897290" lon="2.515734000">
        <ele>410.62</ele>
        <time>2015-05-31T08:44:32Z</time>
      </trkpt>
      <trkpt lat="41.630845070" lon="2.515807250">
        <ele>411.58</ele>
        <time>2015-05-31T08:44:39Z</time>
      </trkpt>
      <trkpt lat="41.630786400" lon="2.515853770">
        <ele>413.02</ele>
        <time>2015-05-31T08:44:45Z</time>
      </trkpt>
      <trkpt lat="41.630716910" lon="2.515879170">
        <ele>413.98</ele>
        <time>2015-05-31T08:44:50Z</time>
      </trkpt>
      <trkpt lat="41.630558660" lon="2.515935080">
        <ele>415.43</ele>
        <time>2015-05-31T08:44:59Z</time>
      </trkpt>
      <trkpt lat="41.630435110" lon="2.515961980">
        <ele>416.87</ele>
        <time>2015-05-31T08:45:08Z</time>
      </trkpt>
      <trkpt lat="41.630346100" lon="2.515935500">
        <ele>418.79</ele>
        <time>2015-05-31T08:45:15Z</time>
      </trkpt>
      <trkpt lat="41.630284990" lon="2.515824440">
        <ele>421.19</ele>
        <time>2015-05-31T08:45:24Z</time>
      </trkpt>
      <trkpt lat="41.630237470" lon="2.515717400">
        <ele>422.64</ele>
        <time>2015-05-31T08:45:32Z</time>
      </trkpt>
      <trkpt lat="41.630188180" lon="2.515601230">
        <ele>424.08</ele>
        <time>2015-05-31T08:45:41Z</time>
      </trkpt>
      <trkpt lat="41.630085170" lon="2.515533750">
        <ele>425.04</ele>
        <time>2015-05-31T08:45:49Z</time>
      </trkpt>
      <trkpt lat="41.630004370" lon="2.515538700">
        <ele>426.00</ele>
        <time>2015-05-31T08:45:54Z</time>
      </trkpt>
      <trkpt lat="41.629864730" lon="2.515611280">
        <ele>426.00</ele>
        <time>2015-05-31T08:46:04Z</time>
      </trkpt>
      <trkpt lat="41.629853160" lon="2.515622350">
        <ele>426.00</ele>
        <time>2015-05-31T08:46:05Z</time>
      </trkpt>
      <trkpt lat="41.629726420" lon="2.515627130">
        <ele>427.92</ele>
        <time>2015-05-31T08:46:14Z</time>
      </trkpt>
      <trkpt lat="41.629617880" lon="2.515628050">
        <ele>428.89</ele>
        <time>2015-05-31T08:46:22Z</time>
      </trkpt>
      <trkpt lat="41.629517970" lon="2.515617820">
        <ele>429.85</ele>
        <time>2015-05-31T08:46:30Z</time>
      </trkpt>
      <trkpt lat="41.629423080" lon="2.515638360">
        <ele>430.81</ele>
        <time>2015-05-31T08:46:38Z</time>
      </trkpt>
      <trkpt lat="41.629380000" lon="2.515640870">
        <ele>431.77</ele>
        <time>2015-05-31T08:46:42Z</time>
      </trkpt>
      <trkpt lat="41.629296680" lon="2.515586470">
        <ele>433.69</ele>
        <time>2015-05-31T08:46:50Z</time>
      </trkpt>
      <trkpt lat="41.629214460" lon="2.515572310">
        <ele>435.13</ele>
        <time>2015-05-31T08:46:58Z</time>
      </trkpt>
      <trkpt lat="41.629122680" lon="2.515544480">
        <ele>437.06</ele>
        <time>2015-05-31T08:47:07Z</time>
      </trkpt>
      <trkpt lat="41.629035340" lon="2.515510870">
        <ele>438.98</ele>
        <time>2015-05-31T08:47:14Z</time>
      </trkpt>
      <trkpt lat="41.628982700" lon="2.515493600">
        <ele>439.94</ele>
        <time>2015-05-31T08:47:18Z</time>
      </trkpt>
      <trkpt lat="41.628898800" lon="2.515444820">
        <ele>441.86</ele>
        <time>2015-05-31T08:47:26Z</time>
      </trkpt>
      <trkpt lat="41.628813300" lon="2.515371980">
        <ele>443.31</ele>
        <time>2015-05-31T08:47:35Z</time>
      </trkpt>
      <trkpt lat="41.628730820" lon="2.515303580">
        <ele>444.75</ele>
        <time>2015-05-31T08:47:43Z</time>
      </trkpt>
      <trkpt lat="41.628638120" lon="2.515246420">
        <ele>446.19</ele>
        <time>2015-05-31T08:47:52Z</time>
      </trkpt>
      <trkpt lat="41.628587160" lon="2.515192190">
        <ele>447.63</ele>
        <time>2015-05-31T08:47:58Z</time>
      </trkpt>
      <trkpt lat="41.628540470" lon="2.515130920">
        <ele>448.59</ele>
        <time>2015-05-31T08:48:05Z</time>
      </trkpt>
      <trkpt lat="41.628478690" lon="2.515052210">
        <ele>449.55</ele>
        <time>2015-05-31T08:48:12Z</time>
      </trkpt>
      <trkpt lat="41.628377020" lon="2.514994630">
        <ele>450.03</ele>
        <time>2015-05-31T08:48:19Z</time>
      </trkpt>
      <trkpt lat="41.628249950" lon="2.514949110">
        <ele>450.52</ele>
        <time>2015-05-31T08:48:26Z</time>
      </trkpt>
      <trkpt lat="41.628117430" lon="2.514947350">
        <ele>451.00</ele>
        <time>2015-05-31T08:48:34Z</time>
      </trkpt>
      <trkpt lat="41.627970920" lon="2.514958250">
        <ele>451.96</ele>
        <time>2015-05-31T08:48:43Z</time>
      </trkpt>
      <trkpt lat="41.627779140" lon="2.514972750">
        <ele>451.96</ele>
        <time>2015-05-31T08:48:52Z</time>
      </trkpt>
      <trkpt lat="41.627680820" lon="2.515007540">
        <ele>451.96</ele>
        <time>2015-05-31T08:48:55Z</time>
      </trkpt>
      <trkpt lat="41.627575290" lon="2.515104770">
        <ele>450.03</ele>
        <time>2015-05-31T08:48:58Z</time>
      </trkpt>
      <trkpt lat="41.627529530" lon="2.515146510">
        <ele>449.07</ele>
        <time>2015-05-31T08:48:59Z</time>
      </trkpt>
      <trkpt lat="41.627368850" lon="2.515289340">
        <ele>444.27</ele>
        <time>2015-05-31T08:49:03Z</time>
      </trkpt>
      <trkpt lat="41.627249490" lon="2.515363100">
        <ele>441.86</ele>
        <time>2015-05-31T08:49:06Z</time>
      </trkpt>
      <trkpt lat="41.627097190" lon="2.515423780">
        <ele>439.46</ele>
        <time>2015-05-31T08:49:11Z</time>
      </trkpt>
      <trkpt lat="41.626942210" lon="2.515493520">
        <ele>438.02</ele>
        <time>2015-05-31T08:49:16Z</time>
      </trkpt>
      <trkpt lat="41.626719840" lon="2.515603320">
        <ele>435.13</ele>
        <time>2015-05-31T08:49:21Z</time>
      </trkpt>
      <trkpt lat="41.626617070" lon="2.515657050">
        <ele>434.17</ele>
        <time>2015-05-31T08:49:23Z</time>
      </trkpt>
      <trkpt lat="41.626323040" lon="2.515812030">
        <ele>430.33</ele>
        <time>2015-05-31T08:49:28Z</time>
      </trkpt>
      <trkpt lat="41.626262520" lon="2.515845140">
        <ele>429.37</ele>
        <time>2015-05-31T08:49:29Z</time>
      </trkpt>
      <trkpt lat="41.626103510" lon="2.516042780">
        <ele>426.96</ele>
        <time>2015-05-31T08:49:34Z</time>
      </trkpt>
      <trkpt lat="41.625955320" lon="2.516311590">
        <ele>426.00</ele>
        <time>2015-05-31T08:49:41Z</time>
      </trkpt>
      <trkpt lat="41.625932940" lon="2.516208160">
        <ele>424.56</ele>
        <time>2015-05-31T08:49:44Z</time>
      </trkpt>
      <trkpt lat="41.625997230" lon="2.516072960">
        <ele>423.60</ele>
        <time>2015-05-31T08:49:47Z</time>
      </trkpt>
      <trkpt lat="41.626135700" lon="2.515714380">
        <ele>420.23</ele>
        <time>2015-05-31T08:49:54Z</time>
      </trkpt>
      <trkpt lat="41.626257910" lon="2.515510950">
        <ele>418.31</ele>
        <time>2015-05-31T08:49:58Z</time>
      </trkpt>
      <trkpt lat="41.626464770" lon="2.515147260">
        <ele>415.43</ele>
        <time>2015-05-31T08:50:03Z</time>
      </trkpt>
      <trkpt lat="41.626626380" lon="2.514857250">
        <ele>411.58</ele>
        <time>2015-05-31T08:50:08Z</time>
      </trkpt>
      <trkpt lat="41.626641130" lon="2.514657420">
        <ele>409.18</ele>
        <time>2015-05-31T08:50:11Z</time>
      </trkpt>
      <trkpt lat="41.626562760" lon="2.514492640">
        <ele>407.74</ele>
        <time>2015-05-31T08:50:14Z</time>
      </trkpt>
      <trkpt lat="41.626482040" lon="2.514422480">
        <ele>407.26</ele>
        <time>2015-05-31T08:50:16Z</time>
      </trkpt>
      <trkpt lat="41.626351620" lon="2.514267250">
        <ele>405.33</ele>
        <time>2015-05-31T08:50:19Z</time>
      </trkpt>
      <trkpt lat="41.626208540" lon="2.514193320">
        <ele>403.89</ele>
        <time>2015-05-31T08:50:22Z</time>
      </trkpt>
      <trkpt lat="41.626066470" lon="2.514196590">
        <ele>401.97</ele>
        <time>2015-05-31T08:50:25Z</time>
      </trkpt>
      <trkpt lat="41.625801010" lon="2.514102710">
        <ele>398.12</ele>
        <time>2015-05-31T08:50:30Z</time>
      </trkpt>
      <trkpt lat="41.625535810" lon="2.514020150">
        <ele>393.32</ele>
        <time>2015-05-31T08:50:36Z</time>
      </trkpt>
      <trkpt lat="41.625497420" lon="2.514007740">
        <ele>392.36</ele>
        <time>2015-05-31T08:50:37Z</time>
      </trkpt>
      <trkpt lat="41.625309080" lon="2.514001370">
        <ele>388.99</ele>
        <time>2015-05-31T08:50:41Z</time>
      </trkpt>
      <trkpt lat="41.625273540" lon="2.514003640">
        <ele>388.99</ele>
        <time>2015-05-31T08:50:42Z</time>
      </trkpt>
      <trkpt lat="41.625165660" lon="2.514034150">
        <ele>386.11</ele>
        <time>2015-05-31T08:50:45Z</time>
      </trkpt>
      <trkpt lat="41.624989730" lon="2.514049320">
        <ele>382.26</ele>
        <time>2015-05-31T08:50:49Z</time>
      </trkpt>
      <trkpt lat="41.624851840" lon="2.514058290">
        <ele>378.90</ele>
        <time>2015-05-31T08:50:53Z</time>
      </trkpt>
      <trkpt lat="41.624664260" lon="2.514058620">
        <ele>375.05</ele>
        <time>2015-05-31T08:51:00Z</time>
      </trkpt>
      <trkpt lat="41.624477090" lon="2.514019560">
        <ele>371.21</ele>
        <time>2015-05-31T08:51:05Z</time>
      </trkpt>
      <trkpt lat="41.624353790" lon="2.514041190">
        <ele>368.80</ele>
        <time>2015-05-31T08:51:09Z</time>
      </trkpt>
      <trkpt lat="41.624198310" lon="2.514115370">
        <ele>365.44</ele>
        <time>2015-05-31T08:51:14Z</time>
      </trkpt>
      <trkpt lat="41.624177190" lon="2.514127440">
        <ele>365.44</ele>
        <time>2015-05-31T08:51:15Z</time>
      </trkpt>
      <trkpt lat="41.624045170" lon="2.514199270">
        <ele>362.55</ele>
        <time>2015-05-31T08:51:21Z</time>
      </trkpt>
      <trkpt lat="41.623887840" lon="2.514240260">
        <ele>358.71</ele>
        <time>2015-05-31T08:51:26Z</time>
      </trkpt>
      <trkpt lat="41.623773430" lon="2.514302950">
        <ele>356.31</ele>
        <time>2015-05-31T08:51:31Z</time>
      </trkpt>
      <trkpt lat="41.623757750" lon="2.514310330">
        <ele>355.83</ele>
        <time>2015-05-31T08:51:32Z</time>
      </trkpt>
      <trkpt lat="41.623713410" lon="2.514307310">
        <ele>354.86</ele>
        <time>2015-05-31T08:51:35Z</time>
      </trkpt>
      <trkpt lat="41.623774520" lon="2.514176390">
        <ele>353.42</ele>
        <time>2015-05-31T08:51:41Z</time>
      </trkpt>
      <trkpt lat="41.623793710" lon="2.514141940">
        <ele>353.42</ele>
        <time>2015-05-31T08:51:42Z</time>
      </trkpt>
      <trkpt lat="41.623921030" lon="2.513855110">
        <ele>350.54</ele>
        <time>2015-05-31T08:51:49Z</time>
      </trkpt>
      <trkpt lat="41.623946350" lon="2.513788300">
        <ele>349.58</ele>
        <time>2015-05-31T08:51:51Z</time>
      </trkpt>
      <trkpt lat="41.624045840" lon="2.513577500">
        <ele>347.65</ele>
        <time>2015-05-31T08:51:57Z</time>
      </trkpt>
      <trkpt lat="41.624230490" lon="2.513401730">
        <ele>345.73</ele>
        <time>2015-05-31T08:52:03Z</time>
      </trkpt>
      <trkpt lat="41.624235940" lon="2.513329560">
        <ele>345.25</ele>
        <time>2015-05-31T08:52:07Z</time>
      </trkpt>
      <trkpt lat="41.624220180" lon="2.513328640">
        <ele>345.25</ele>
        <time>2015-05-31T08:52:08Z</time>
      </trkpt>
      <trkpt lat="41.624057160" lon="2.513376500">
        <ele>342.85</ele>
        <time>2015-05-31T08:52:14Z</time>
      </trkpt>
      <trkpt lat="41.623928160" lon="2.513470130">
        <ele>341.41</ele>
        <time>2015-05-31T08:52:18Z</time>
      </trkpt>
      <trkpt lat="41.623862110" lon="2.513528300">
        <ele>340.44</ele>
        <time>2015-05-31T08:52:20Z</time>
      </trkpt>
      <trkpt lat="41.623635460" lon="2.513620920">
        <ele>336.12</ele>
        <time>2015-05-31T08:52:26Z</time>
      </trkpt>
      <trkpt lat="41.623576710" lon="2.513636170">
        <ele>334.68</ele>
        <time>2015-05-31T08:52:29Z</time>
      </trkpt>
      <trkpt lat="41.623487190" lon="2.513662490">
        <ele>331.31</ele>
        <time>2015-05-31T08:52:33Z</time>
      </trkpt>
      <trkpt lat="41.623387950" lon="2.513578590">
        <ele>327.95</ele>
        <time>2015-05-31T08:52:38Z</time>
      </trkpt>
      <trkpt lat="41.623405970" lon="2.513533830">
        <ele>326.99</ele>
        <time>2015-05-31T08:52:39Z</time>
      </trkpt>
      <trkpt lat="41.623479220" lon="2.513390500">
        <ele>326.02</ele>
        <time>2015-05-31T08:52:42Z</time>
      </trkpt>
      <trkpt lat="41.623606800" lon="2.513211630">
        <ele>322.18</ele>
        <time>2015-05-31T08:52:47Z</time>
      </trkpt>
      <trkpt lat="41.623620630" lon="2.513170050">
        <ele>321.70</ele>
        <time>2015-05-31T08:52:48Z</time>
      </trkpt>
      <trkpt lat="41.623602940" lon="2.513065110">
        <ele>319.78</ele>
        <time>2015-05-31T08:52:51Z</time>
      </trkpt>
      <trkpt lat="41.623540080" lon="2.513100570">
        <ele>317.85</ele>
        <time>2015-05-31T08:52:55Z</time>
      </trkpt>
      <trkpt lat="41.623430440" lon="2.513158240">
        <ele>316.41</ele>
        <time>2015-05-31T08:52:58Z</time>
      </trkpt>
      <trkpt lat="41.623310920" lon="2.513160500">
        <ele>314.49</ele>
        <time>2015-05-31T08:53:01Z</time>
      </trkpt>
      <trkpt lat="41.623208150" lon="2.513160830">
        <ele>313.05</ele>
        <time>2015-05-31T08:53:03Z</time>
      </trkpt>
      <trkpt lat="41.623116710" lon="2.513187320">
        <ele>310.64</ele>
        <time>2015-05-31T08:53:05Z</time>
      </trkpt>
      <trkpt lat="41.622955270" lon="2.513311790">
        <ele>306.32</ele>
        <time>2015-05-31T08:53:09Z</time>
      </trkpt>
      <trkpt lat="41.622752930" lon="2.513398710">
        <ele>303.43</ele>
        <time>2015-05-31T08:53:13Z</time>
      </trkpt>
      <trkpt lat="41.622615050" lon="2.513570370">
        <ele>299.59</ele>
        <time>2015-05-31T08:53:18Z</time>
      </trkpt>
      <trkpt lat="41.622458900" lon="2.513765920">
        <ele>296.22</ele>
        <time>2015-05-31T08:53:24Z</time>
      </trkpt>
      <trkpt lat="41.622429640" lon="2.513788220">
        <ele>296.22</ele>
        <time>2015-05-31T08:53:25Z</time>
      </trkpt>
      <trkpt lat="41.622272900" lon="2.513838600">
        <ele>293.34</ele>
        <time>2015-05-31T08:53:30Z</time>
      </trkpt>
      <trkpt lat="41.622141470" lon="2.513888550">
        <ele>289.97</ele>
        <time>2015-05-31T08:53:34Z</time>
      </trkpt>
      <trkpt lat="41.622111130" lon="2.513896680">
        <ele>289.97</ele>
        <time>2015-05-31T08:53:35Z</time>
      </trkpt>
      <trkpt lat="41.622007280" lon="2.513953430">
        <ele>286.61</ele>
        <time>2015-05-31T08:53:39Z</time>
      </trkpt>
      <trkpt lat="41.621885740" lon="2.514040770">
        <ele>283.73</ele>
        <time>2015-05-31T08:53:44Z</time>
      </trkpt>
      <trkpt lat="41.621746350" lon="2.514116200">
        <ele>280.84</ele>
        <time>2015-05-31T08:53:48Z</time>
      </trkpt>
      <trkpt lat="41.621581480" lon="2.514151740">
        <ele>277.00</ele>
        <time>2015-05-31T08:53:52Z</time>
      </trkpt>
      <trkpt lat="41.621501680" lon="2.514166240">
        <ele>274.11</ele>
        <time>2015-05-31T08:53:55Z</time>
      </trkpt>
      <trkpt lat="41.621403950" lon="2.514306050">
        <ele>270.75</ele>
        <time>2015-05-31T08:54:00Z</time>
      </trkpt>
      <trkpt lat="41.621297410" lon="2.514544940">
        <ele>265.94</ele>
        <time>2015-05-31T08:54:05Z</time>
      </trkpt>
      <trkpt lat="41.621259360" lon="2.514614930">
        <ele>264.98</ele>
        <time>2015-05-31T08:54:07Z</time>
      </trkpt>
      <trkpt lat="41.621189120" lon="2.514722550">
        <ele>263.54</ele>
        <time>2015-05-31T08:54:09Z</time>
      </trkpt>
      <trkpt lat="41.621025930" lon="2.514957580">
        <ele>261.14</ele>
        <time>2015-05-31T08:54:13Z</time>
      </trkpt>
      <trkpt lat="41.620993990" lon="2.515022200">
        <ele>260.65</ele>
        <time>2015-05-31T08:54:14Z</time>
      </trkpt>
      <trkpt lat="41.620923580" lon="2.515137620">
        <ele>259.69</ele>
        <time>2015-05-31T08:54:16Z</time>
      </trkpt>
      <trkpt lat="41.620803220" lon="2.515281040">
        <ele>258.73</ele>
        <time>2015-05-31T08:54:19Z</time>
      </trkpt>
      <trkpt lat="41.620574220" lon="2.515599050">
        <ele>253.44</ele>
        <time>2015-05-31T08:54:26Z</time>
      </trkpt>
      <trkpt lat="41.620531140" lon="2.515636180">
        <ele>252.48</ele>
        <time>2015-05-31T08:54:27Z</time>
      </trkpt>
      <trkpt lat="41.620397620" lon="2.515813710">
        <ele>248.64</ele>
        <time>2015-05-31T08:54:30Z</time>
      </trkpt>
      <trkpt lat="41.620332830" lon="2.515940610">
        <ele>247.20</ele>
        <time>2015-05-31T08:54:32Z</time>
      </trkpt>
      <trkpt lat="41.620243640" lon="2.516104390">
        <ele>243.35</ele>
        <time>2015-05-31T08:54:35Z</time>
      </trkpt>
      <trkpt lat="41.620097130" lon="2.516201710">
        <ele>238.54</ele>
        <time>2015-05-31T08:54:39Z</time>
      </trkpt>
      <trkpt lat="41.620073410" lon="2.516201710">
        <ele>237.58</ele>
        <time>2015-05-31T08:54:40Z</time>
      </trkpt>
      <trkpt lat="41.620021440" lon="2.516189800">
        <ele>236.14</ele>
        <time>2015-05-31T08:54:42Z</time>
      </trkpt>
      <trkpt lat="41.619849440" lon="2.516144290">
        <ele>232.30</ele>
        <time>2015-05-31T08:54:47Z</time>
      </trkpt>
      <trkpt lat="41.619820100" lon="2.516154010">
        <ele>232.30</ele>
        <time>2015-05-31T08:54:48Z</time>
      </trkpt>
      <trkpt lat="41.619734360" lon="2.516298520">
        <ele>230.37</ele>
        <time>2015-05-31T08:54:52Z</time>
      </trkpt>
      <trkpt lat="41.619711390" lon="2.516346290">
        <ele>229.89</ele>
        <time>2015-05-31T08:54:53Z</time>
      </trkpt>
      <trkpt lat="41.619536710" lon="2.516556260">
        <ele>227.97</ele>
        <time>2015-05-31T08:54:59Z</time>
      </trkpt>
      <trkpt lat="41.619459680" lon="2.516881900">
        <ele>227.01</ele>
        <time>2015-05-31T08:55:06Z</time>
      </trkpt>
      <trkpt lat="41.619390870" lon="2.517141230">
        <ele>224.12</ele>
        <time>2015-05-31T08:55:12Z</time>
      </trkpt>
      <trkpt lat="41.619378040" lon="2.517283310">
        <ele>223.64</ele>
        <time>2015-05-31T08:55:15Z</time>
      </trkpt>
      <trkpt lat="41.619328920" lon="2.517589250">
        <ele>222.68</ele>
        <time>2015-05-31T08:55:20Z</time>
      </trkpt>
      <trkpt lat="41.619302100" lon="2.517705500">
        <ele>221.72</ele>
        <time>2015-05-31T08:55:22Z</time>
      </trkpt>
      <trkpt lat="41.619248630" lon="2.517818160">
        <ele>221.24</ele>
        <time>2015-05-31T08:55:24Z</time>
      </trkpt>
      <trkpt lat="41.619066990" lon="2.518008340">
        <ele>220.28</ele>
        <time>2015-05-31T08:55:28Z</time>
      </trkpt>
      <trkpt lat="41.618961130" lon="2.518107250">
        <ele>218.84</ele>
        <time>2015-05-31T08:55:30Z</time>
      </trkpt>
      <trkpt lat="41.618842690" lon="2.518374710">
        <ele>216.43</ele>
        <time>2015-05-31T08:55:35Z</time>
      </trkpt>
      <trkpt lat="41.618830450" lon="2.518434810">
        <ele>215.95</ele>
        <time>2015-05-31T08:55:36Z</time>
      </trkpt>
      <trkpt lat="41.618775640" lon="2.518668750">
        <ele>214.51</ele>
        <time>2015-05-31T08:55:39Z</time>
      </trkpt>
      <trkpt lat="41.618678070" lon="2.519075610">
        <ele>212.11</ele>
        <time>2015-05-31T08:55:43Z</time>
      </trkpt>
      <trkpt lat="41.618434070" lon="2.519400070">
        <ele>209.22</ele>
        <time>2015-05-31T08:55:48Z</time>
      </trkpt>
      <trkpt lat="41.618293090" lon="2.519444580">
        <ele>208.26</ele>
        <time>2015-05-31T08:55:50Z</time>
      </trkpt>
      <trkpt lat="41.617796130" lon="2.519533260">
        <ele>206.82</ele>
        <time>2015-05-31T08:55:57Z</time>
      </trkpt>
      <trkpt lat="41.617232690" lon="2.519638790">
        <ele>203.94</ele>
        <time>2015-05-31T08:56:05Z</time>
      </trkpt>
      <trkpt lat="41.616817370" lon="2.519706850">
        <ele>202.01</ele>
        <time>2015-05-31T08:56:11Z</time>
      </trkpt>
      <trkpt lat="41.616548560" lon="2.519821600">
        <ele>198.65</ele>
        <time>2015-05-31T08:56:16Z</time>
      </trkpt>
      <trkpt lat="41.616518890" lon="2.519835010">
        <ele>198.65</ele>
        <time>2015-05-31T08:56:17Z</time>
      </trkpt>
      <trkpt lat="41.616355700" lon="2.520015640">
        <ele>199.61</ele>
        <time>2015-05-31T08:56:23Z</time>
      </trkpt>
      <trkpt lat="41.616262990" lon="2.520175060">
        <ele>200.09</ele>
        <time>2015-05-31T08:56:28Z</time>
      </trkpt>
      <trkpt lat="41.616246060" lon="2.520227370">
        <ele>200.09</ele>
        <time>2015-05-31T08:56:29Z</time>
      </trkpt>
      <trkpt lat="41.616129890" lon="2.520548560">
        <ele>200.09</ele>
        <time>2015-05-31T08:56:35Z</time>
      </trkpt>
      <trkpt lat="41.616105500" lon="2.520605640">
        <ele>199.13</ele>
        <time>2015-05-31T08:56:36Z</time>
      </trkpt>
      <trkpt lat="41.615972640" lon="2.521118030">
        <ele>198.17</ele>
        <time>2015-05-31T08:56:43Z</time>
      </trkpt>
      <trkpt lat="41.615921930" lon="2.521456990">
        <ele>197.69</ele>
        <time>2015-05-31T08:56:47Z</time>
      </trkpt>
      <trkpt lat="41.615841630" lon="2.521760920">
        <ele>197.21</ele>
        <time>2015-05-31T08:56:51Z</time>
      </trkpt>
      <trkpt lat="41.615756810" lon="2.522521160">
        <ele>195.77</ele>
        <time>2015-05-31T08:56:59Z</time>
      </trkpt>
      <trkpt lat="41.615655890" lon="2.523382060">
        <ele>192.88</ele>
        <time>2015-05-31T08:57:07Z</time>
      </trkpt>
      <trkpt lat="41.615643910" lon="2.523487170">
        <ele>192.40</ele>
        <time>2015-05-31T08:57:08Z</time>
      </trkpt>
      <trkpt lat="41.615616660" lon="2.523901240">
        <ele>190.96</ele>
        <time>2015-05-31T08:57:12Z</time>
      </trkpt>
      <trkpt lat="41.615580120" lon="2.524120010">
        <ele>190.00</ele>
        <time>2015-05-31T08:57:14Z</time>
      </trkpt>
      <trkpt lat="41.615496300" lon="2.525100350">
        <ele>186.63</ele>
        <time>2015-05-31T08:57:22Z</time>
      </trkpt>
      <trkpt lat="41.615489850" lon="2.525227510">
        <ele>186.63</ele>
        <time>2015-05-31T08:57:23Z</time>
      </trkpt>
      <trkpt lat="41.615524880" lon="2.526204420">
        <ele>183.75</ele>
        <time>2015-05-31T08:57:31Z</time>
      </trkpt>
      <trkpt lat="41.615557820" lon="2.526873630">
        <ele>180.87</ele>
        <time>2015-05-31T08:57:37Z</time>
      </trkpt>
      <trkpt lat="41.615521780" lon="2.527223990">
        <ele>178.94</ele>
        <time>2015-05-31T08:57:40Z</time>
      </trkpt>
      <trkpt lat="41.615481380" lon="2.527458430">
        <ele>177.50</ele>
        <time>2015-05-31T08:57:43Z</time>
      </trkpt>
      <trkpt lat="41.615445760" lon="2.527651720">
        <ele>176.54</ele>
        <time>2015-05-31T08:57:46Z</time>
      </trkpt>
      <trkpt lat="41.615315330" lon="2.528225290">
        <ele>175.10</ele>
        <time>2015-05-31T08:57:54Z</time>
      </trkpt>
      <trkpt lat="41.615171000" lon="2.528984190">
        <ele>174.14</ele>
        <time>2015-05-31T08:58:03Z</time>
      </trkpt>
      <trkpt lat="41.615158930" lon="2.529513930">
        <ele>172.21</ele>
        <time>2015-05-31T08:58:09Z</time>
      </trkpt>
      <trkpt lat="41.615148450" lon="2.530173330">
        <ele>171.25</ele>
        <time>2015-05-31T08:58:16Z</time>
      </trkpt>
      <trkpt lat="41.615150630" lon="2.530759730">
        <ele>168.85</ele>
        <time>2015-05-31T08:58:22Z</time>
      </trkpt>
      <trkpt lat="41.615088180" lon="2.531216210">
        <ele>166.93</ele>
        <time>2015-05-31T08:58:27Z</time>
      </trkpt>
      <trkpt lat="41.615136550" lon="2.531559620">
        <ele>166.93</ele>
        <time>2015-05-31T08:58:31Z</time>
      </trkpt>
      <trkpt lat="41.615197320" lon="2.532027240">
        <ele>164.52</ele>
        <time>2015-05-31T08:58:36Z</time>
      </trkpt>
      <trkpt lat="41.615149120" lon="2.532310210">
        <ele>163.56</ele>
        <time>2015-05-31T08:58:39Z</time>
      </trkpt>
      <trkpt lat="41.614915520" lon="2.533148240">
        <ele>161.64</ele>
        <time>2015-05-31T08:58:49Z</time>
      </trkpt>
      <trkpt lat="41.614689790" lon="2.533932360">
        <ele>158.27</ele>
        <time>2015-05-31T08:58:58Z</time>
      </trkpt>
      <trkpt lat="41.614664060" lon="2.534029010">
        <ele>157.79</ele>
        <time>2015-05-31T08:58:59Z</time>
      </trkpt>
      <trkpt lat="41.614422240" lon="2.534722860">
        <ele>155.87</ele>
        <time>2015-05-31T08:59:07Z</time>
      </trkpt>
      <trkpt lat="41.614177910" lon="2.535505730">
        <ele>152.99</ele>
        <time>2015-05-31T08:59:16Z</time>
      </trkpt>
      <trkpt lat="41.614121420" lon="2.535671190">
        <ele>152.03</ele>
        <time>2015-05-31T08:59:18Z</time>
      </trkpt>
      <trkpt lat="41.613901730" lon="2.536302930">
        <ele>151.06</ele>
        <time>2015-05-31T08:59:26Z</time>
      </trkpt>
      <trkpt lat="41.613859650" lon="2.536424890">
        <ele>150.58</ele>
        <time>2015-05-31T08:59:28Z</time>
      </trkpt>
      <trkpt lat="41.613754040" lon="2.536584820">
        <ele>148.66</ele>
        <time>2015-05-31T08:59:32Z</time>
      </trkpt>
      <trkpt lat="41.613707600" lon="2.536635780">
        <ele>148.66</ele>
        <time>2015-05-31T08:59:34Z</time>
      </trkpt>
      <trkpt lat="41.613651110" lon="2.536839800">
        <ele>148.18</ele>
        <time>2015-05-31T08:59:38Z</time>
      </trkpt>
      <trkpt lat="41.613569720" lon="2.536979440">
        <ele>148.18</ele>
        <time>2015-05-31T08:59:41Z</time>
      </trkpt>
      <trkpt lat="41.613415830" lon="2.537172390">
        <ele>147.70</ele>
        <time>2015-05-31T08:59:45Z</time>
      </trkpt>
      <trkpt lat="41.613164870" lon="2.537499280">
        <ele>146.74</ele>
        <time>2015-05-31T08:59:51Z</time>
      </trkpt>
      <trkpt lat="41.612957760" lon="2.537664990">
        <ele>145.78</ele>
        <time>2015-05-31T08:59:55Z</time>
      </trkpt>
      <trkpt lat="41.612767490" lon="2.537858110">
        <ele>145.30</ele>
        <time>2015-05-31T08:59:59Z</time>
      </trkpt>
      <trkpt lat="41.612526760" lon="2.538119040">
        <ele>144.34</ele>
        <time>2015-05-31T09:00:04Z</time>
      </trkpt>
      <trkpt lat="41.612274210" lon="2.538487590">
        <ele>142.41</ele>
        <time>2015-05-31T09:00:10Z</time>
      </trkpt>
      <trkpt lat="41.612137920" lon="2.538819100">
        <ele>140.49</ele>
        <time>2015-05-31T09:00:15Z</time>
      </trkpt>
      <trkpt lat="41.611961650" lon="2.539069630">
        <ele>139.05</ele>
        <time>2015-05-31T09:00:22Z</time>
      </trkpt>
      <trkpt lat="41.611961730" lon="2.539070140">
        <ele>139.05</ele>
        <time>2015-05-31T09:00:23Z</time>
      </trkpt>
      <trkpt lat="41.611948580" lon="2.538940550">
        <ele>139.05</ele>
        <time>2015-05-31T09:00:29Z</time>
      </trkpt>
      <trkpt lat="41.611943380" lon="2.538912720">
        <ele>139.05</ele>
        <time>2015-05-31T09:00:30Z</time>
      </trkpt>
      <trkpt lat="41.611890910" lon="2.538784730">
        <ele>140.97</ele>
        <time>2015-05-31T09:00:35Z</time>
      </trkpt>
      <trkpt lat="41.611697790" lon="2.538765790">
        <ele>141.93</ele>
        <time>2015-05-31T09:00:40Z</time>
      </trkpt>
      <trkpt lat="41.611670720" lon="2.538760090">
        <ele>141.93</ele>
        <time>2015-05-31T09:00:41Z</time>
      </trkpt>
      <trkpt lat="41.611614470" lon="2.538743740">
        <ele>140.97</ele>
        <time>2015-05-31T09:00:44Z</time>
      </trkpt>
      <trkpt lat="41.611443820" lon="2.538784480">
        <ele>140.49</ele>
        <time>2015-05-31T09:00:49Z</time>
      </trkpt>
      <trkpt lat="41.611239130" lon="2.538817590">
        <ele>139.53</ele>
        <time>2015-05-31T09:00:53Z</time>
      </trkpt>
      <trkpt lat="41.610907120" lon="2.538934520">
        <ele>138.09</ele>
        <time>2015-05-31T09:00:59Z</time>
      </trkpt>
      <trkpt lat="41.610618790" lon="2.539056470">
        <ele>136.64</ele>
        <time>2015-05-31T09:01:05Z</time>
      </trkpt>
      <trkpt lat="41.610561540" lon="2.539081540">
        <ele>136.16</ele>
        <time>2015-05-31T09:01:06Z</time>
      </trkpt>
      <trkpt lat="41.610459530" lon="2.539131160">
        <ele>136.16</ele>
        <time>2015-05-31T09:01:08Z</time>
      </trkpt>
      <trkpt lat="41.610082850" lon="2.539349420">
        <ele>134.24</ele>
        <time>2015-05-31T09:01:15Z</time>
      </trkpt>
      <trkpt lat="41.609755700" lon="2.539555030">
        <ele>133.28</ele>
        <time>2015-05-31T09:01:21Z</time>
      </trkpt>
      <trkpt lat="41.609558390" lon="2.539671030">
        <ele>132.32</ele>
        <time>2015-05-31T09:01:25Z</time>
      </trkpt>
      <trkpt lat="41.609454710" lon="2.539716970">
        <ele>132.32</ele>
        <time>2015-05-31T09:01:27Z</time>
      </trkpt>
      <trkpt lat="41.609214230" lon="2.539939510">
        <ele>129.92</ele>
        <time>2015-05-31T09:01:33Z</time>
      </trkpt>
      <trkpt lat="41.609197720" lon="2.539980080">
        <ele>129.92</ele>
        <time>2015-05-31T09:01:34Z</time>
      </trkpt>
      <trkpt lat="41.609042900" lon="2.540295150">
        <ele>128.95</ele>
        <time>2015-05-31T09:01:43Z</time>
      </trkpt>
      <trkpt lat="41.608928070" lon="2.540439570">
        <ele>128.47</ele>
        <time>2015-05-31T09:01:48Z</time>
      </trkpt>
      <trkpt lat="41.608882810" lon="2.540460020">
        <ele>128.47</ele>
        <time>2015-05-31T09:01:50Z</time>
      </trkpt>
      <trkpt lat="41.608858340" lon="2.540378130">
        <ele>127.99</ele>
        <time>2015-05-31T09:01:54Z</time>
      </trkpt>
      <trkpt lat="41.608752470" lon="2.540308810">
        <ele>127.03</ele>
        <time>2015-05-31T09:01:58Z</time>
      </trkpt>
      <trkpt lat="41.608573520" lon="2.540336890">
        <ele>126.55</ele>
        <time>2015-05-31T09:02:02Z</time>
      </trkpt>
      <trkpt lat="41.608133380" lon="2.540407470">
        <ele>126.07</ele>
        <time>2015-05-31T09:02:11Z</time>
      </trkpt>
      <trkpt lat="41.607761810" lon="2.540456420">
        <ele>124.63</ele>
        <time>2015-05-31T09:02:19Z</time>
      </trkpt>
      <trkpt lat="41.607600800" lon="2.540587430">
        <ele>124.63</ele>
        <time>2015-05-31T09:02:23Z</time>
      </trkpt>
      <trkpt lat="41.607463080" lon="2.540813150">
        <ele>124.15</ele>
        <time>2015-05-31T09:02:29Z</time>
      </trkpt>
      <trkpt lat="41.607205510" lon="2.540781720">
        <ele>123.67</ele>
        <time>2015-05-31T09:02:36Z</time>
      </trkpt>
      <trkpt lat="41.606804270" lon="2.540697820">
        <ele>123.19</ele>
        <time>2015-05-31T09:02:45Z</time>
      </trkpt>
      <trkpt lat="41.606658840" lon="2.540654650">
        <ele>122.71</ele>
        <time>2015-05-31T09:02:48Z</time>
      </trkpt>
      <trkpt lat="41.606357930" lon="2.540504700">
        <ele>121.26</ele>
        <time>2015-05-31T09:02:55Z</time>
      </trkpt>
      <trkpt lat="41.606174870" lon="2.540420040">
        <ele>121.26</ele>
        <time>2015-05-31T09:02:59Z</time>
      </trkpt>
      <trkpt lat="41.605955510" lon="2.540379720">
        <ele>120.30</ele>
        <time>2015-05-31T09:03:04Z</time>
      </trkpt>
      <trkpt lat="41.605889800" lon="2.540451310">
        <ele>120.78</ele>
        <time>2015-05-31T09:03:10Z</time>
      </trkpt>
      <trkpt lat="41.605992390" lon="2.540578290">
        <ele>120.78</ele>
        <time>2015-05-31T09:03:17Z</time>
      </trkpt>
      <trkpt lat="41.606060290" lon="2.540613160">
        <ele>120.78</ele>
        <time>2015-05-31T09:03:20Z</time>
      </trkpt>
      <trkpt lat="41.606212250" lon="2.540696060">
        <ele>121.74</ele>
        <time>2015-05-31T09:03:26Z</time>
      </trkpt>
      <trkpt lat="41.606380140" lon="2.540719780">
        <ele>122.71</ele>
        <time>2015-05-31T09:03:32Z</time>
      </trkpt>
      <trkpt lat="41.606468820" lon="2.540763780">
        <ele>122.71</ele>
        <time>2015-05-31T09:03:36Z</time>
      </trkpt>
      <trkpt lat="41.606596230" lon="2.540980370">
        <ele>124.15</ele>
        <time>2015-05-31T09:03:43Z</time>
      </trkpt>
      <trkpt lat="41.606678450" lon="2.541244150">
        <ele>125.11</ele>
        <time>2015-05-31T09:03:51Z</time>
      </trkpt>
      <trkpt lat="41.606700750" lon="2.541407260">
        <ele>126.55</ele>
        <time>2015-05-31T09:03:56Z</time>
      </trkpt>
      <trkpt lat="41.606716420" lon="2.541613540">
        <ele>127.51</ele>
        <time>2015-05-31T09:04:03Z</time>
      </trkpt>
      <trkpt lat="41.606817590" lon="2.541881760">
        <ele>128.95</ele>
        <time>2015-05-31T09:04:11Z</time>
      </trkpt>
      <trkpt lat="41.606909540" lon="2.542104380">
        <ele>130.40</ele>
        <time>2015-05-31T09:04:18Z</time>
      </trkpt>
      <trkpt lat="41.606990340" lon="2.542290040">
        <ele>131.84</ele>
        <time>2015-05-31T09:04:25Z</time>
      </trkpt>
      <trkpt lat="41.607028730" lon="2.542342100">
        <ele>132.80</ele>
        <time>2015-05-31T09:04:31Z</time>
      </trkpt>
      <trkpt lat="41.607063600" lon="2.542362130">
        <ele>133.28</ele>
        <time>2015-05-31T09:04:38Z</time>
      </trkpt>
      <trkpt lat="41.607083050" lon="2.542362800">
        <ele>133.28</ele>
        <time>2015-05-31T09:04:50Z</time>
      </trkpt>
      <trkpt lat="41.607081790" lon="2.542383330">
        <ele>133.28</ele>
        <time>2015-05-31T09:05:04Z</time>
      </trkpt>
    </trkseg>
  </trk>
</gpx>
